[[{"header":{"parameterUnit":"m.s-1","parameterCategory":1,"la1":30.6,"la2":28.766,"lo1":-90.7593,"lo2":-88.6598,"dy":0.0162,"dx":0.0183,"nx":116,"ny":114,"refTime":"2023-08-24T00:00:00:Z","depth":0,"parameterNumber":2,"parameterNumberName":"U-component_of_WINDS"},"data":[0.0,0.0,0.0,0.0,0.0,0.0,0.0,0.0,0.0,0.0,0.0,0.0,0.0,0.0,0.0,0.0,0.0,0.0,0.0,0.0,0.0,0.0,0.0,0.0,0.0,0.0,0.0,0.0,0.0,0.0,0.0,0.0,0.0,0.0,0.0,0.0,0.0,0.0,0.0,0.0,0.0,0.0,0.0,0.0,0.0,0.0,0.0,0.0,0.0,0.0,0.0,0.0,0.0,0.0,0.0,0.0,0.0,0.0,0.0,0.0,0.0,0.0,0.0,0.0,0.0,0.0,0.0,0.0,0.0,0.0,0.0,0.0,0.0,0.0,0.0,0.0,0.0,0.0,0.0,0.0,0.0,0.0,0.0,0.0,0.0,0.0,0.0,0.0,0.0,0.0,0.0,0.0,0.0,0.0,0.0,0.0,0.0,0.0,0.0,0.0,0.0,0.0,0.0,0.0,0.0,0.0,0.0,0.0,0.0,0.0,0.0,0.0,0.0,0.0,0.0,0.0,0.0,0.0,0.0,0.0,0.0,0.0,0.0,0.0,0.0,0.0,0.0,0.0,0.0,0.0,0.0,0.0,0.0,0.0,0.0,0.0,0.0,0.0,0.0,0.0,0.0,0.0,0.0,0.0,0.0,0.0,0.0,0.0,0.0,0.0,0.0,0.0,0.0,0.0,0.0,0.0,0.0,0.0,0.0,0.0,0.0,0.0,0.0,0.0,0.0,0.0,0.0,0.0,0.0,0.0,0.0,0.0,0.0,0.0,0.0,0.0,0.0,0.0,0.0,0.0,0.0,0.0,0.0,0.0,0.0,0.0,0.0,0.0,0.0,0.0,0.0,0.0,0.0,0.0,0.0,0.0,0.0,0.0,0.0,0.0,0.0,0.0,0.0,0.0,0.0,0.0,0.0,0.0,0.0,0.0,0.0,0.0,0.0,0.0,0.0,0.0,0.0,0.0,0.0,0.0,0.0,0.0,0.0,0.0,0.0,0.0,0.0,0.0,0.0,0.0,0.0,0.0,0.0,0.0,0.0,0.0,0.0,0.0,0.0,0.0,0.0,0.0,0.0,0.0,0.0,0.0,0.0,0.0,0.0,0.0,0.0,0.0,0.0,0.0,0.0,0.0,0.0,0.0,0.0,0.0,0.0,0.0,0.0,0.0,0.0,0.0,0.0,0.0,0.0,0.0,0.0,0.0,0.0,0.0,0.0,0.0,0.0,0.0,0.0,0.0,0.0,0.0,0.0,0.0,0.0,0.0,0.0,0.0,0.0,0.0,0.0,0.0,0.0,0.0,0.0,0.0,0.0,0.0,0.0,0.0,0.0,0.0,0.0,0.0,0.0,0.0,0.0,0.0,0.0,0.0,0.0,0.0,0.0,0.0,0.0,0.0,0.0,0.0,0.0,0.0,0.0,0.0,0.0,0.0,0.0,0.0,0.0,0.0,0.0,0.0,0.0,0.0,0.0,0.0,0.0,0.0,0.0,0.0,0.0,0.0,0.0,0.0,0.0,0.0,0.0,0.0,0.0,0.0,0.0,0.0,0.0,0.0,0.0,0.0,0.0,0.0,0.0,0.0,0.0,0.0,0.0,0.0,0.0,0.0,0.0,0.0,0.0,0.0,0.0,0.0,0.0,0.0,0.0,0.0,0.0,0.0,0.0,0.0,0.0,0.0,0.0,0.0,0.0,0.0,0.0,0.0,0.0,0.0,0.0,0.0,0.0,0.0,0.0,0.0,0.0,0.0,0.0,0.0,0.0,0.0,0.0,0.0,0.0,0.0,0.0,0.0,0.0,0.0,0.0,0.0,0.0,0.0,0.0,0.0,0.0,0.0,0.0,0.0,0.0,0.0,0.0,0.0,0.0,0.0,0.0,0.0,0.0,0.0,0.0,0.0,0.0,0.0,0.0,0.0,0.0,0.0,0.0,0.0,0.0,0.0,0.0,0.0,0.0,0.0,0.0,0.0,0.0,0.0,0.0,0.0,0.0,0.0,0.0,0.0,0.0,0.0,0.0,0.0,0.0,0.0,0.0,0.0,0.0,0.0,0.0,0.0,0.0,0.0,0.0,0.0,0.0,0.0,0.0,0.0,0.0,0.0,0.0,0.0,0.0,0.0,0.0,0.0,0.0,0.0,0.0,0.0,0.0,0.0,0.0,0.0,0.0,0.0,0.0,0.0,0.0,0.0,0.0,0.0,0.0,0.0,0.0,0.0,0.0,0.0,0.0,0.0,0.0,0.0,0.0,0.0,0.0,0.0,0.0,0.0,0.0,0.0,0.0,0.0,0.0,0.0,0.0,0.0,0.0,0.0,0.0,0.0,0.0,0.0,0.0,0.0,0.0,0.0,0.0,0.0,0.0,0.0,0.0,0.0,0.0,0.0,0.0,0.0,0.0,0.0,0.0,0.0,0.0,0.0,0.0,0.0,0.0,0.0,0.0,0.0,0.0,0.0,0.0,0.0,0.0,0.0,0.0,0.0,0.0,0.0,0.0,0.0,0.0,0.0,0.0,0.0,0.0,0.0,0.0,0.0,0.0,0.0,0.0,0.0,0.0,0.0,0.0,0.0,0.0,0.0,0.0,0.0,0.0,0.0,0.0,0.0,0.0,0.0,0.0,0.0,0.0,0.0,0.0,0.0,0.0,0.0,0.0,0.0,0.0,0.0,0.0,0.0,0.0,0.0,0.0,0.0,0.0,0.0,0.0,0.0,0.0,0.0,0.0,0.0,0.0,0.0,0.0,0.0,0.0,0.0,0.0,0.0,0.0,0.0,0.0,0.0,0.0,0.0,0.0,0.0,0.0,0.0,0.0,0.0,0.0,0.0,0.0,0.0,0.0,0.0,0.0,0.0,0.0,0.0,0.0,0.0,0.0,0.0,0.0,0.0,0.0,0.0,0.0,0.0,0.0,0.0,0.0,0.0,0.0,0.0,0.0,0.0,0.0,0.0,0.0,0.0,0.0,0.0,0.0,0.0,0.0,0.0,0.0,0.0,0.0,0.0,0.0,0.0,0.0,0.0,0.0,0.0,0.0,0.0,0.0,0.0,0.0,0.0,0.0,0.0,0.0,0.0,0.0,0.0,0.0,0.0,0.0,0.0,0.0,0.0,0.0,0.0,0.0,0.0,0.0,0.0,0.0,0.0,0.0,0.0,0.0,0.0,0.0,0.0,0.0,0.0,0.0,0.0,0.0,0.0,0.0,0.0,0.0,0.0,0.0,0.0,0.0,0.0,0.0,0.0,0.0,0.0,0.0,0.0,0.0,0.0,0.0,0.0,0.0,0.0,0.0,0.0,0.0,0.0,0.0,0.0,0.0,0.0,0.0,0.0,0.0,0.0,0.0,0.0,0.0,0.0,0.0,0.0,0.0,0.0,0.0,0.0,0.0,0.0,0.0,0.0,0.0,0.0,0.0,0.0,0.0,0.0,0.0,0.0,0.0,0.0,0.0,0.0,0.0,0.0,0.0,0.0,0.0,0.0,0.0,0.0,0.0,0.0,0.0,0.0,0.0,0.0,0.0,0.0,0.0,0.0,0.0,0.0,0.0,0.0,0.0,0.0,0.0,0.0,0.0,0.0,0.0,0.0,0.0,0.0,0.0,0.0,0.0,0.0,0.0,0.0,0.0,0.0,0.0,0.0,0.0,0.0,0.0,0.0,0.0,0.0,0.0,0.0,0.0,0.0,0.0,0.0,0.0,0.0,0.0,0.0,0.0,0.0,0.0,0.0,0.0,0.0,0.0,0.0,0.0,0.0,0.0,0.0,0.0,0.0,0.0,0.0,0.0,0.0,0.0,0.0,0.0,0.0,0.0,0.0,0.0,0.0,0.0,0.0,0.0,0.0,0.0,0.0,0.0,0.0,0.0,0.0,0.0,0.0,0.0,0.0,0.0,0.0,0.0,0.0,0.0,0.0,0.0,0.0,0.0,0.0,0.0,0.0,0.0,0.0,0.0,0.0,0.0,0.0,0.0,0.0,0.0,0.0,0.0,0.0,0.0,0.0,0.0,0.0,0.0,0.0,0.0,0.0,0.0,0.0,0.0,0.0,0.0,0.0,0.0,0.0,0.0,0.0,0.0,0.0,0.0,0.0,0.0,0.0,0.0,0.0,0.0,0.0,0.0,0.0,0.0,0.0,0.0,0.0,0.0,0.0,0.0,0.0,0.0,0.0,0.0,0.0,0.0,0.0,0.0,0.0,0.0,0.0,0.0,0.0,0.0,0.0,0.0,0.0,0.0,0.0,0.0,0.0,0.0,0.0,0.0,0.0,0.0,0.0,0.0,0.0,0.0,0.0,0.0,0.0,0.0,0.0,0.0,0.0,0.0,0.0,0.0,0.0,0.0,0.0,0.0,0.0,0.0,0.0,0.0,0.0,0.0,0.0,0.0,0.0,0.0,0.0,0.0,0.0,0.0,0.0,0.0,0.0,0.0,0.0,0.0,0.0,0.0,0.0,0.0,0.0,0.0,0.0,0.0,0.0,0.0,0.0,0.0,0.0,0.0,0.0,0.0,0.0,0.0,0.0,0.0,0.0,0.0,0.0,0.0,0.0,0.0,0.0,0.0,0.0,0.0,0.0,0.0,0.0,0.0,0.0,0.0,0.0,0.0,0.0,0.0,0.0,0.0,0.0,0.0,0.0,0.0,0.0,0.0,0.0,0.0,0.0,0.0,0.0,0.0,0.0,0.0,0.0,0.0,0.0,0.0,0.0,0.0,0.0,0.0,0.0,0.0,0.0,0.0,0.0,0.0,0.0,0.0,0.0,0.0,0.0,0.0,0.0,0.0,0.0,0.0,0.0,0.0,0.0,0.0,0.0,0.0,0.0,0.0,0.0,0.0,0.0,0.0,0.0,0.0,0.0,0.0,0.0,0.0,0.0,0.0,0.0,0.0,0.0,0.0,0.0,0.0,0.0,0.0,0.0,0.0,0.0,0.0,0.0,0.0,0.0,0.0,0.0,0.0,0.0,0.0,0.0,0.0,0.0,0.0,0.0,0.0,0.0,0.0,0.0,0.0,0.0,0.0,0.0,0.0,0.0,0.0,0.0,0.0,0.0,0.0,0.0,0.0,0.0,0.0,0.0,0.0,0.0,0.0,0.0,0.0,0.0,0.0,0.0,0.0,0.0,0.0,0.0,0.0,0.0,0.0,0.0,0.0,0.0,0.0,0.0,0.0,0.0,0.0,0.0,0.0,0.0,0.0,0.0,0.0,0.0,0.0,0.0,0.0,0.0,0.0,0.0,0.0,0.0,0.0,0.0,0.0,0.0,0.0,0.0,0.0,0.0,0.0,0.0,0.0,0.0,0.0,0.0,0.0,0.0,0.0,0.0,0.0,0.0,0.0,0.0,0.0,0.0,0.0,0.0,0.0,0.0,0.0,0.0,0.0,0.0,0.0,0.0,0.0,0.0,0.0,0.0,0.0,0.0,0.0,0.0,0.0,0.0,0.0,0.0,0.0,0.0,0.0,0.0,0.0,0.0,0.0,0.0,0.0,0.0,0.0,0.0,0.0,0.0,0.0,0.0,0.0,0.0,0.0,0.0,0.0,0.0,0.0,0.0,0.0,0.0,0.0,0.0,0.0,0.0,0.0,0.0,0.0,0.0,0.0,0.0,0.0,0.0,0.0,0.0,0.0,0.0,0.0,0.0,0.0,0.0,0.0,0.0,0.0,0.0,0.0,0.0,0.0,0.0,0.0,0.0,0.0,0.0,0.0,0.0,0.0,0.0,0.0,0.0,0.0,0.0,0.0,0.0,0.0,0.0,0.0,0.0,0.0,0.0,0.0,0.0,0.0,0.0,0.0,0.0,0.0,0.0,0.0,0.0,0.0,0.0,0.0,0.0,0.0,0.0,0.0,0.0,0.0,0.0,0.0,0.0,0.0,0.0,0.0,0.0,0.0,0.0,0.0,0.0,0.0,0.0,0.0,0.0,0.0,0.0,0.0,0.0,0.0,0.0,0.0,0.0,0.0,0.0,0.0,0.0,0.0,0.0,0.0,0.0,0.0,0.0,0.0,0.0,0.0,0.0,0.0,0.0,0.0,0.0,0.0,0.0,0.0,0.0,0.0,0.0,0.0,0.0,0.0,0.0,0.0,0.0,-1.9355,-1.9729,0.0,0.0,0.0,0.0,0.0,0.0,0.0,0.0,0.0,0.0,0.0,0.0,0.0,0.0,0.0,0.0,0.0,0.0,0.0,0.0,0.0,0.0,0.0,0.0,0.0,0.0,0.0,0.0,0.0,0.0,0.0,0.0,0.0,0.0,0.0,0.0,0.0,0.0,0.0,0.0,0.0,0.0,0.0,0.0,0.0,0.0,0.0,0.0,0.0,0.0,0.0,0.0,0.0,0.0,0.0,0.0,0.0,0.0,0.0,0.0,0.0,0.0,0.0,0.0,0.0,0.0,0.0,0.0,0.0,0.0,0.0,0.0,0.0,0.0,0.0,0.0,0.0,0.0,0.0,0.0,0.0,0.0,0.0,0.0,0.0,0.0,0.0,0.0,0.0,0.0,0.0,0.0,0.0,0.0,0.0,0.0,0.0,0.0,0.0,0.0,0.0,0.0,0.0,0.0,0.0,0.0,0.0,0.0,0.0,0.0,0.0,0.0,0.0,0.0,-2.0184,-2.0555,0.0,0.0,0.0,0.0,0.0,0.0,0.0,0.0,0.0,0.0,0.0,0.0,0.0,0.0,0.0,0.0,0.0,0.0,0.0,0.0,0.0,0.0,0.0,0.0,0.0,0.0,0.0,0.0,0.0,0.0,0.0,0.0,0.0,0.0,0.0,0.0,0.0,0.0,0.0,0.0,0.0,0.0,0.0,0.0,0.0,0.0,0.0,0.0,0.0,0.0,0.0,0.0,0.0,0.0,0.0,0.0,0.0,0.0,0.0,0.0,0.0,0.0,0.0,0.0,0.0,0.0,0.0,0.0,0.0,0.0,0.0,0.0,0.0,0.0,0.0,0.0,0.0,0.0,0.0,0.0,0.0,0.0,0.0,0.0,0.0,0.0,0.0,0.0,0.0,0.0,0.0,0.0,0.0,0.0,0.0,0.0,0.0,0.0,0.0,0.0,0.0,0.0,0.0,0.0,0.0,0.0,0.0,0.0,-1.6298,-1.7044,-1.8635,-1.8434,-1.908,-2.0292,-2.0916,-2.1365,-2.1741,-2.2539,0.0,0.0,0.0,0.0,0.0,0.0,0.0,0.0,0.0,0.0,0.0,0.0,0.0,0.0,0.0,0.0,0.0,0.0,0.0,0.0,0.0,0.0,0.0,0.0,0.0,0.0,0.0,0.0,0.0,0.0,0.0,0.0,0.0,0.0,0.0,0.0,0.0,0.0,3.2398,3.2201,3.1875,3.136,3.1204,0.0,0.0,0.0,0.0,0.0,0.0,0.0,0.0,0.0,0.0,0.0,0.0,0.0,0.0,0.0,0.0,0.0,0.0,0.0,0.0,0.0,0.0,0.0,0.0,0.0,0.0,0.0,0.0,0.0,0.0,0.0,0.0,0.0,0.0,0.0,0.0,0.0,0.0,0.0,0.0,0.0,0.0,0.0,-1.1258,-1.359,0.0,0.0,0.0,0.0,0.0,0.0,0.0,0.0,0.0,0.0,0.0,0.0,0.0,-1.4675,-1.5432,-1.4771,-1.5153,-1.6588,-1.5248,-1.5717,-1.7878,-1.7956,-1.888,-2.0382,-2.1195,0.0,-2.1741,-2.2539,0.0,0.0,0.0,0.0,0.0,0.0,0.0,0.0,0.0,0.0,0.0,0.0,0.0,0.0,0.0,0.0,0.0,0.0,0.0,0.0,0.0,0.0,0.0,0.0,0.0,0.0,0.0,0.0,0.0,0.0,0.0,0.0,0.0,0.0,0.0,0.0,3.3799,3.3055,3.2201,3.1652,3.0984,3.036,3.0297,2.9393,2.7984,2.73,0.0,0.0,0.0,0.0,0.0,0.0,0.0,0.0,0.0,0.0,0.0,0.0,0.0,0.0,0.0,0.0,0.0,0.0,0.0,0.0,0.0,0.0,0.0,0.0,0.0,0.0,0.0,0.0,0.0,0.0,0.0,0.0,0.0,0.0,0.0,0.0,0.0,0.0,0.0,-1.0997,-1.3884,-1.4268,-1.2926,-1.2058,0.0,0.0,0.0,0.0,0.0,0.0,0.0,0.0,0.0,-1.2646,-1.3715,-1.4196,-1.389,-1.4196,-1.4573,-1.5032,-1.4573,-1.552,-1.7692,-1.7948,-1.888,-2.0382,-2.1284,-2.1909,-2.2353,-2.3038,-2.3551,-2.3887,0.0,0.0,0.0,0.0,-2.5895,-2.5895,0.0,0.0,0.0,0.0,0.0,0.0,0.0,0.0,0.0,0.0,0.0,0.0,0.0,0.0,0.0,3.5245,0.0,0.0,0.0,0.0,0.0,0.0,0.0,0.0,0.0,0.0,0.0,3.4101,3.3491,3.2841,3.2074,3.1379,3.0478,2.956,2.9359,2.8271,2.6519,2.6302,2.4897,0.0,0.0,0.0,0.0,0.0,0.0,0.0,0.0,0.0,0.0,0.0,0.0,0.0,0.0,0.0,0.0,0.0,0.0,0.0,0.0,0.0,0.0,0.0,0.0,0.0,0.0,0.0,0.0,0.0,0.0,0.0,0.0,0.0,0.0,0.0,0.0,0.0,0.0,-1.2967,-1.4549,-1.4364,-1.3113,-1.2349,0.0,0.0,0.0,0.0,0.0,0.0,-0.9912,-1.069,-1.1365,-1.215,-1.3516,-1.3806,-1.2732,-1.3806,-1.4088,-1.359,-1.4094,-1.5425,-1.7591,-1.7855,-1.8872,-2.0555,-2.1374,-2.2087,-2.2882,-2.3551,-2.3887,-2.4241,-2.5454,-2.5895,-2.5895,-2.5895,-2.5895,-2.5895,0.0,0.0,0.0,0.0,0.0,0.0,0.0,0.0,0.0,0.0,0.0,0.0,0.0,0.0,3.5088,3.5088,3.4994,3.4899,0.0,0.0,0.0,0.0,0.0,0.0,0.0,0.0,0.0,3.4101,3.3949,3.323,3.2074,3.1792,3.0659,2.8853,2.8634,2.7749,2.6258,2.5599,2.4267,2.2585,0.0,0.0,0.0,0.0,0.0,0.0,0.0,0.0,0.0,0.0,0.0,0.0,0.0,0.0,0.0,0.0,0.0,0.0,0.0,0.0,0.0,0.0,0.0,0.0,0.0,0.0,0.0,0.0,0.0,0.0,0.0,0.0,0.0,0.0,0.0,0.0,0.0,0.0,0.0,-1.4076,-1.2543,0.0,0.0,0.0,0.0,-0.9023,-0.8825,-0.8817,-0.8905,-1.0578,-1.1853,-1.2635,-1.3709,-1.3806,-1.2732,-1.3806,-1.3806,-1.2727,-1.3806,-1.533,-1.7296,-1.7755,-1.9047,-2.0997,-2.1463,-2.2087,-2.2882,-2.3551,-2.4231,-2.4946,-2.5644,-2.5895,-2.5895,-2.5895,-2.5895,-2.5895,0.0,0.0,0.0,0.0,0.0,0.0,0.0,0.0,0.0,0.0,0.0,0.0,0.0,3.5088,3.4994,3.4994,3.4947,3.4899,3.4899,0.0,0.0,0.0,0.0,0.0,0.0,0.0,3.4691,3.4497,3.3475,3.2772,3.2321,3.1407,3.0404,2.931,2.9233,2.8141,2.6189,2.5004,2.3722,2.2274,2.009,1.893,0.0,0.0,0.0,0.0,0.0,0.0,0.0,0.0,0.0,0.0,0.0,0.0,0.0,0.0,0.0,0.0,0.0,0.0,0.0,0.0,0.0,0.0,0.0,0.0,0.0,0.0,0.0,0.0,0.0,0.0,0.0,0.0,0.0,0.0,0.0,0.0,0.0,-1.4172,-1.2052,0.0,-1.137,-1.0105,-0.9122,-0.8825,-0.8432,-0.8333,-0.8524,-1.019,-1.1268,-1.1755,-1.2732,-1.3119,-1.2727,-1.3119,-1.3119,-1.2727,-1.428,-1.5798,-1.7296,-1.8311,-1.9604,-2.0997,-2.1463,-2.2087,-2.2882,-2.3551,-2.4231,-2.4946,-2.5644,-2.5895,-2.5895,-2.5895,-2.5895,-2.5895,0.0,0.0,0.0,0.0,0.0,0.0,0.0,0.0,0.0,0.0,0.0,3.5274,3.5105,3.4994,3.4899,3.4899,3.4899,3.4899,3.4899,0.0,0.0,0.0,0.0,0.0,0.0,3.4787,3.4756,3.4756,3.3716,3.3077,3.2848,3.1931,3.0911,2.9889,2.9889,2.8707,2.6612,2.5368,2.3868,2.2199,1.9866,1.8709,1.8247,0.0,0.0,0.0,0.0,0.0,0.0,0.0,0.0,0.0,0.0,0.0,0.0,0.0,0.0,0.0,0.0,0.0,0.0,0.0,0.0,0.0,0.0,0.0,0.0,0.0,0.0,0.0,0.0,0.0,0.0,0.0,0.0,0.0,0.0,-1.1653,-1.1745,-1.2904,-1.0974,-0.9912,-1.0681,-0.941,-0.8531,-0.8627,-0.8035,-0.7839,-0.8137,-0.9509,-1.0583,-1.117,-1.1853,-1.2339,-1.2727,-1.2727,-1.2727,-1.2727,-1.4567,-1.6089,-1.7382,-1.8588,-1.9886,-2.0997,-2.1463,-2.2087,-2.2882,-2.3551,-2.4231,-2.4946,-2.5644,-2.5895,-2.5895,-2.5895,-2.5895,-2.5895,0.0,0.0,0.0,0.0,0.0,0.0,0.0,0.0,0.0,0.0,3.5837,3.5605,3.5135,3.4994,3.4899,3.4899,3.4899,3.4899,3.4947,3.4899,0.0,0.0,0.0,0.0,3.493,3.4947,3.4947,3.493,3.4643,3.4202,3.3633,3.3339,3.2204,3.0468,3.0482,2.9372,2.7537,2.6748,2.4909,2.2349,2.044,1.952,1.9134,0.0,0.0,0.0,0.0,0.0,0.0,0.0,0.0,0.0,0.0,0.0,0.0,0.0,0.0,0.0,0.0,0.0,0.0,0.0,0.0,0.0,0.0,0.0,0.0,0.0,0.0,0.0,0.0,0.0,0.0,0.0,0.0,0.0,-1.0079,-0.9501,-0.9213,-1.0173,-0.9402,-0.8821,-0.9015,-0.8329,-0.8038,-0.8233,-0.7534,-0.7238,-0.7543,-0.8528,-0.9801,-1.1072,-1.117,-1.1658,-1.2727,-1.2635,-1.2727,-1.2727,-1.4561,-1.6089,-1.7382,-1.8596,-1.9886,-2.0997,-2.1454,-2.2087,-2.2794,-2.3464,-2.4241,-2.4946,-2.5644,-2.5895,-2.5895,-2.5895,-2.5895,-2.5895,0.0,0.0,0.0,0.0,0.0,0.0,0.0,0.0,0.0,0.0,3.5722,3.5453,3.4994,3.4899,3.4899,3.4899,3.4899,3.5024,3.5362,0.0,0.0,0.0,0.0,0.0,3.5847,3.5776,3.5661,3.5464,3.4607,3.4153,3.4088,3.3077,3.2485,3.2189,3.1972,3.1028,2.9543,2.8479,2.6758,2.453,2.1824,2.0498,1.9963,0.0,0.0,0.0,0.0,0.0,0.0,0.0,0.0,0.0,0.0,0.0,0.0,0.0,0.0,0.0,0.0,0.0,0.0,0.0,0.0,0.0,0.0,0.0,0.0,0.0,0.0,0.0,0.0,0.0,0.0,0.0,-0.7056,-0.764,-0.9015,-0.9114,-0.8913,-0.8403,-0.8418,-0.7925,-0.6415,-0.6229,-0.5934,-0.5233,-0.5035,-0.5334,-0.6434,-0.7415,-0.87,-0.9998,-0.9998,-1.0877,-1.2727,-1.195,-1.2339,-1.3902,-1.5534,-1.6662,-1.739,-1.8788,-2.0085,-2.0997,-2.1177,-2.1544,-2.2087,-2.2784,-2.3474,-2.4241,-2.5464,-2.5895,-2.5895,-2.5895,-2.5895,-2.5895,0.0,0.0,0.0,0.0,0.0,0.0,0.0,0.0,0.0,0.0,3.6037,3.5688,3.5241,3.5195,3.5195,3.5195,3.5362,3.5571,3.582,0.0,0.0,0.0,0.0,3.5933,3.6172,3.6147,3.6079,3.5916,3.5136,3.4811,3.4858,3.3971,3.3495,3.3255,3.3077,3.2164,3.0749,2.9811,2.8479,2.6835,2.4436,2.2678,2.141,2.009,1.9316,1.9009,1.8567,1.8072,1.7421,1.6887,0.0,0.0,0.0,0.0,0.0,0.0,0.0,0.0,0.0,0.0,0.0,0.0,0.0,0.0,0.0,0.0,0.0,0.0,0.0,0.0,0.0,0.0,0.0,0.0,-0.6464,-0.6448,-0.7241,-0.7531,-0.7322,-0.6224,-0.6329,-0.6129,-0.5024,-0.5029,-0.4931,-0.4329,-0.4331,-0.483,-0.6132,-0.6722,-0.7912,-0.9509,-0.9118,-1.0096,-1.2635,-1.1658,-1.2242,-1.4292,-1.5534,-1.6386,-1.703,-1.8427,-1.9729,-2.0736,-2.0907,-2.1275,-2.182,-2.2775,-2.3464,-2.3887,0.0,0.0,0.0,0.0,-2.5895,-2.5895,0.0,0.0,0.0,0.0,0.0,0.0,0.0,0.0,0.0,0.0,0.0,3.6105,3.5705,3.5661,3.5661,3.5661,3.5977,3.6172,0.0,0.0,0.0,3.6256,3.6298,3.634,3.6357,3.6422,3.6422,3.6357,3.6045,3.5899,3.5899,3.5464,3.4847,3.412,3.3987,3.3087,3.1543,3.0968,3.0079,2.8892,2.7578,2.5563,2.3294,2.2296,2.1607,2.0998,2.0861,2.0034,1.9063,1.958,0.0,0.0,0.0,0.0,0.0,0.0,0.0,0.0,0.0,0.0,0.0,0.0,0.0,0.0,0.0,0.0,0.0,0.0,0.0,0.0,0.0,0.0,0.0,0.0,-0.5358,-0.5151,-0.5251,-0.5343,-0.5035,-0.4033,-0.4033,-0.4131,-0.413,-0.4228,-0.4327,-0.4624,-0.4624,-0.5127,-0.6334,-0.6437,0.0,0.0,0.0,-0.9414,-1.2349,-1.1565,-1.2145,-1.4088,-1.4956,-1.5818,-1.6676,-1.7785,-1.908,-2.0292,-2.0736,-2.1186,-2.182,-2.3115,-2.38,-2.3973,-2.4765,-2.538,-2.5895,-2.5895,-2.5895,-2.5895,0.0,0.0,0.0,0.0,0.0,0.0,0.0,0.0,0.0,3.6939,3.6821,3.6603,3.6147,3.6105,3.6105,3.6105,3.6147,3.6172,0.0,0.0,3.6764,3.6764,3.6964,3.7173,3.7337,3.7685,3.7721,3.7319,3.7097,3.7041,3.7135,3.6121,3.5752,3.5882,3.5203,3.4333,3.3276,3.2786,3.1456,2.9652,2.8983,2.7525,2.5517,2.4089,2.3849,2.4163,2.3548,2.3514,2.358,2.2475,2.2336,2.2356,2.0379,2.0139,0.0,0.0,0.0,0.0,0.0,0.0,0.0,0.0,0.0,0.0,0.0,0.0,0.0,0.0,0.0,0.0,0.0,0.0,0.0,-0.0805,-0.2615,-0.3725,-0.4033,-0.4133,-0.383,-0.3127,-0.4028,-0.4026,-0.2321,-0.2923,-0.3425,-0.3524,-0.3524,-0.4327,-0.6337,-0.6437,-0.7036,-0.8233,-0.8137,-0.8744,-1.0164,-1.0904,-1.1828,-1.3036,-1.4632,0.0,-1.6588,-1.7505,-1.8711,-2.0292,-2.0382,-2.0925,-2.1731,-2.2618,-2.3647,-2.4775,-2.5464,-2.5812,-2.5895,-2.5895,-2.5895,-2.5895,0.0,0.0,0.0,0.0,0.0,0.0,0.0,0.0,0.0,0.0,3.7034,3.6821,3.6563,3.6563,3.6563,3.6563,3.6781,0.0,0.0,3.7111,3.7301,3.7432,3.7578,3.7774,3.7984,3.8238,3.8238,3.7984,3.7738,3.7649,3.7703,3.6985,3.6671,3.6671,3.6088,3.5459,3.4764,3.3838,3.2754,3.1667,3.091,2.9929,2.8661,2.6523,2.5726,2.5689,2.5726,2.5726,2.5607,2.5235,2.535,2.5395,2.383,2.3591,2.3546,0.0,0.0,0.0,0.0,0.0,0.0,0.0,0.0,0.0,0.0,0.0,0.0,0.0,0.0,0.6745,0.5046,0.0,0.1711,-0.0403,-0.1713,-0.242,-0.2623,-0.2724,-0.2624,-0.2222,-0.2823,-0.2822,-0.1718,-0.2521,-0.3224,-0.3224,-0.3725,-0.4726,-0.6337,-0.6437,-0.6936,-0.7939,-0.8038,-0.8763,-1.0419,-1.0946,-1.196,-1.3555,-1.4746,-1.5629,-1.6008,-1.7225,-1.8334,-1.9363,-1.9729,-2.0464,-2.1454,-2.2765,-2.3766,-2.4588,-2.5276,-2.5688,-2.5874,-2.5633,-2.5535,-2.5502,0.0,0.0,0.0,0.0,0.0,0.0,0.0,0.0,0.0,0.0,3.7388,3.7034,3.7034,3.7034,3.7034,0.0,0.0,0.0,0.0,3.7649,3.7774,3.7984,3.8086,3.8219,3.8382,3.8478,3.8478,3.8446,3.8198,3.808,3.808,3.7756,3.7487,3.7175,3.6689,3.6281,3.5822,3.4638,3.3855,3.3415,3.2602,3.1972,3.1304,2.9136,2.7893,2.7393,2.7867,2.7762,2.7446,2.7762,2.8103,2.8128,2.6966,2.6752,2.6726,2.5652,2.4908,0.0,0.0,0.0,0.0,0.0,0.0,0.0,0.0,1.4539,1.294,1.0373,0.8707,0.6918,0.4321,0.2414,0.0705,-0.1312,-0.1616,-0.1617,-0.1617,-0.1617,-0.1617,-0.1617,-0.1617,-0.1617,-0.1617,-0.2422,-0.3024,-0.3525,-0.4323,-0.5327,-0.6637,-0.6736,-0.7135,-0.7939,-0.8244,-0.9172,-1.0843,-1.1279,-1.2294,-1.398,-1.4758,-1.5235,-1.5412,-1.685,-1.7792,-1.8427,-1.9471,-2.0391,-2.1275,-2.2863,-2.3639,-2.396,-2.4474,-2.5016,-2.5402,-2.5185,-2.5043,-2.4989,0.0,0.0,0.0,0.0,0.0,0.0,0.0,0.0,0.0,0.0,0.0,0.0,0.0,0.0,0.0,0.0,0.0,0.0,3.7577,3.781,3.7949,3.7984,3.8465,3.8621,3.8415,3.8743,3.8833,3.8585,3.8664,3.8713,3.8683,3.8234,3.8016,3.7948,3.719,3.6643,3.6281,3.552,3.4543,3.3467,3.3119,3.2548,3.1819,3.1519,3.1144,3.0778,3.0259,3.0616,3.1071,2.9723,3.0211,3.0954,2.8346,2.8373,2.8906,2.6956,2.617,2.5908,2.5211,2.4095,2.2833,2.115,2.0099,1.8766,0.0,1.4409,1.2989,1.0951,0.8484,0.6509,0.6111,0.281,-0.0202,-0.1412,-0.1615,-0.1617,-0.1617,-0.1617,-0.1617,-0.1617,-0.1617,-0.1617,-0.1617,-0.1718,-0.2521,-0.4524,-0.4724,-0.5727,-0.7736,-0.7839,-0.7839,-0.8038,-0.8965,-0.9486,-0.9797,-1.1658,-1.2667,-1.2923,-1.3968,-1.4734,-1.5422,-1.6319,-1.7369,-1.8495,-2.0169,-2.1203,-2.1946,-2.2206,-2.2758,-2.3274,-2.2971,-2.3256,-2.3854,-2.4404,-2.4563,-2.4563,0.0,0.0,0.0,0.0,0.0,0.0,0.0,0.0,0.0,0.0,0.0,0.0,0.0,0.0,0.0,0.0,0.0,0.0,3.7577,3.7845,3.8052,3.8219,3.859,3.8803,3.8815,3.896,3.9017,3.8884,3.8921,3.891,3.8833,3.8621,3.8496,3.8433,3.7844,3.7377,3.6981,3.6281,3.5548,3.4797,3.4479,3.3887,3.3303,3.3459,3.3198,3.261,3.1603,3.1562,0.0,3.1101,3.1347,3.169,3.0527,3.0527,3.0719,2.9501,2.8801,2.7956,2.5952,2.5028,2.4186,2.2257,2.1274,2.0134,1.7765,1.6544,1.5082,1.2206,1.064,0.9162,0.6802,0.4808,0.2909,0.1007,0.0303,-0.0404,-0.1414,-0.1617,-0.1617,-0.1617,-0.1617,-0.1617,-0.1617,-0.2723,-0.3823,-0.4724,-0.5927,-0.7033,-0.7939,-0.8038,-0.8038,-0.8038,-0.9069,-0.9937,-1.052,-1.2012,-1.2995,-1.3663,-1.4508,-1.4892,-1.4823,-1.6455,-1.7781,-1.8696,-1.9791,-2.0368,-2.0703,-2.1532,-2.182,-2.1791,-2.2068,-2.222,-2.2298,-2.3207,-2.3716,-2.4006,0.0,0.0,0.0,0.0,0.0,0.0,0.0,0.0,0.0,0.0,0.0,0.0,0.0,0.0,0.0,0.0,0.0,0.0,0.0,3.7915,3.8186,3.8382,3.8713,3.895,3.9101,3.9101,3.9101,3.9101,3.9036,3.8997,3.8939,3.8851,3.8762,3.8719,3.8285,3.7879,3.7469,3.6825,3.6232,3.5766,3.5498,3.5038,3.4578,3.4771,3.448,3.3832,3.2788,3.2446,0.0,3.2226,3.2336,3.2431,3.2043,3.2043,3.2099,3.1477,3.0808,2.9714,2.7367,2.6455,2.566,2.3705,2.2511,2.1395,1.9713,1.8433,1.6779,1.4017,1.2887,1.1327,0.8287,0.6802,0.5511,0.372,0.2517,0.121,-0.0606,-0.101,-0.1212,-0.1516,-0.1617,-0.1617,-0.1617,-0.3022,-0.4024,-0.4321,-0.5824,-0.693,-0.7528,-0.7531,-0.7733,-0.8038,-0.9069,-1.01,-1.1178,-1.2203,-1.3245,-1.4298,-1.4827,-1.4827,-1.4394,-1.6494,-1.7916,-1.892,-1.9462,-1.9669,-1.9773,-2.0717,-2.086,-2.0595,-2.0989,-2.1115,-2.1041,-2.1829,-2.2495,-2.2926,0.0,0.0,0.0,0.0,0.0,0.0,0.0,0.0,0.0,0.0,0.0,0.0,0.0,0.0,0.0,0.0,0.0,0.0,0.0,3.8086,3.8382,3.8382,3.8826,3.9101,3.9101,3.9101,3.9101,3.9101,3.9036,3.8979,3.8979,3.8862,3.8792,3.8792,3.8318,3.7879,3.7469,3.7055,3.6457,3.5827,3.5783,3.5543,3.5178,3.5178,3.4961,3.4594,3.3899,0.0,0.0,3.3071,3.3335,3.3815,3.247,3.2485,3.2826,3.225,3.1649,3.097,3.0047,2.8787,2.7354,2.5807,2.3801,2.2121,2.165,1.9185,1.6894,1.6441,1.422,1.2027,1.1165,0.8488,0.6307,0.5904,0.4622,0.3124,0.131,0.0605,-0.0101,-0.1414,-0.1617,-0.1617,-0.1617,-0.1617,-0.2118,-0.3217,-0.3317,-0.4216,-0.631,-0.641,-0.6915,-0.7939,-0.9069,-1.01,-1.1178,-1.2203,-1.3245,-1.4298,-1.4298,-1.4298,-1.4388,-1.5912,-1.7527,-1.9052,-1.9486,-1.9739,-1.9776,-1.9944,-1.9956,-1.988,-1.9531,-1.9706,-2.0235,-2.0255,-2.0722,-2.1262,0.0,0.0,0.0,0.0,0.0,0.0,0.0,0.0,0.0,0.0,0.0,0.0,0.0,0.0,0.0,0.0,0.0,0.0,0.0,3.8446,3.8652,3.8652,3.8931,3.9101,3.9101,3.9101,3.9101,3.9101,3.9073,3.9036,3.9007,3.9129,3.9073,3.8862,3.8799,3.8319,3.756,3.7377,3.686,3.6131,3.6131,3.5898,3.5588,3.5588,3.5362,3.4991,0.0,0.0,0.0,3.4431,3.4577,3.469,3.4036,3.3935,3.3951,3.3077,3.2446,3.1777,3.0895,3.0021,2.9025,2.7367,2.577,2.4385,2.357,2.1738,1.9861,1.8482,1.6937,1.5076,1.241,1.0453,0.8682,0.6603,0.5832,0.474,0.2319,0.131,0.0202,-0.1414,-0.1009,-0.0807,-0.1516,-0.2218,-0.2821,-0.313,-0.3825,-0.4918,-0.631,-0.641,-0.6915,-0.7939,-0.9069,-1.0074,-1.1236,-1.22,-1.3245,-1.4298,-1.4298,-1.4514,-1.5032,-1.612,-1.7198,-1.8218,-1.8946,-1.9343,-1.9408,-1.9497,-1.951,-1.9469,-1.9366,-1.946,-1.9618,-1.9618,-1.9775,-2.0157,0.0,0.0,0.0,0.0,0.0,0.0,0.0,0.0,0.0,0.0,0.0,0.0,0.0,0.0,0.0,0.0,0.0,3.8382,0.0,0.0,3.8792,3.8792,3.8989,3.9101,3.9101,3.9192,3.9245,3.9245,3.9245,3.9272,3.9305,3.9376,3.929,3.9073,3.9154,3.8685,3.7859,3.7773,3.734,3.6678,3.6557,3.6385,3.6105,3.6002,3.5722,0.0,0.0,0.0,0.0,3.5178,3.5224,3.5178,3.4961,3.4787,3.4529,3.3732,3.3108,3.2555,3.1936,3.1372,3.0616,2.9251,2.7893,2.6703,2.6224,2.4425,2.2423,2.0853,1.9619,1.7757,1.4398,1.2769,1.1113,0.8867,0.7918,0.6639,0.4223,0.3214,0.2111,0.0303,0.0202,-0.0101,-0.0909,-0.1613,-0.2217,-0.2629,-0.3226,-0.4327,-0.5732,-0.5812,-0.6509,-0.7939,-0.866,-0.9693,-1.116,-1.1833,-1.2923,-1.4298,-1.44,-1.4827,-1.546,-1.6055,-1.6915,-1.7865,-1.8454,-1.8894,-1.9204,-1.9292,-1.9301,-1.9301,-1.9301,-1.9301,-1.9301,-1.9301,-1.9301,-1.946,0.0,0.0,0.0,0.0,0.0,0.0,0.0,0.0,0.0,0.0,0.0,0.0,0.0,0.0,0.0,0.0,0.0,0.0,0.0,0.0,0.0,3.8822,3.8989,3.9101,3.9101,3.935,3.9477,3.9477,3.9477,3.9585,3.9775,3.9537,3.9401,3.9401,3.935,3.8943,3.8291,3.8245,3.7877,3.7376,3.7055,3.6834,3.6702,3.6444,0.0,0.0,0.0,0.0,3.5783,3.5407,3.527,3.5224,3.5178,3.4961,3.4643,3.425,3.3697,3.3251,3.3251,3.2895,3.2241,3.1342,3.01,2.9142,2.9403,2.7053,2.458,2.3794,2.2236,2.0124,1.7216,1.5126,1.3504,1.2496,1.0769,0.8806,0.6708,0.6098,0.5209,0.3335,0.1718,0.0505,0.0101,0.0101,-0.0404,-0.1516,-0.1617,-0.2528,-0.4663,-0.4818,-0.58,-0.7939,-0.8038,-0.9069,-1.116,-1.1312,-1.231,-1.4298,-1.4514,-1.4929,-1.5351,-1.5684,-1.6522,-1.7789,-1.7921,-1.8488,-1.9301,-1.9301,-1.9301,-1.9301,-1.9301,-1.9301,-1.9301,-1.9301,-1.9301,-1.9301,0.0,0.0,0.0,0.0,0.0,0.0,0.0,0.0,0.0,0.0,0.0,0.0,0.0,0.0,0.0,0.0,0.0,0.0,0.0,0.0,0.0,0.0,0.0,0.0,0.0,0.0,0.0,0.0,3.9192,3.9331,3.9585,3.966,3.9632,3.9477,3.9543,3.9133,3.8355,3.8291,3.7946,3.7376,0.0,3.7129,3.6908,0.0,0.0,0.0,0.0,3.6402,3.6174,3.6028,3.5854,3.5543,3.5008,3.4787,3.4691,3.4594,3.4234,3.3917,3.4218,3.3681,3.2933,3.271,3.1615,3.0727,3.1168,2.9671,2.7802,2.6497,2.4804,2.2475,1.8962,1.6309,1.4105,1.2506,1.0774,0.8803,0.6393,0.6009,0.5125,0.2829,0.2729,0.2117,0.0503,0.0804,0.0403,-0.1414,-0.1617,-0.2528,-0.4663,-0.4818,-0.58,-0.7939,-0.8038,-0.9069,-1.116,-1.277,-1.3771,-1.4298,-1.44,-1.4358,-1.4291,-1.5761,-1.6593,-1.686,-1.8275,-1.9,-1.9301,-1.9301,-1.9301,-1.9301,-1.9301,-1.9301,-1.9301,-1.9301,-1.9301,-1.9301,0.0,0.0,0.0,0.0,0.0,0.0,0.0,0.0,0.0,0.0,0.0,0.0,0.0,0.0,0.0,0.0,0.0,0.0,0.0,0.0,0.0,0.0,0.0,0.0,0.0,0.0,0.0,0.0,0.0,0.0,3.9614,3.966,3.9609,3.9483,3.9585,3.9275,3.8681,3.864,0.0,0.0,0.0,0.0,0.0,0.0,0.0,0.0,3.6702,3.6544,3.6301,3.6131,3.6028,3.5898,3.5131,3.5055,3.5102,3.4787,3.4626,3.4626,3.4691,3.4267,3.3834,3.363,3.2664,3.1877,3.2406,3.1361,2.992,2.8938,2.7518,2.5437,2.1998,1.8854,1.6278,1.449,1.236,1.0373,0.8554,0.7658,0.6487,0.4836,0.4638,0.3825,0.2008,0.2213,0.1512,-0.0707,-0.1314,-0.2528,-0.4663,-0.4818,-0.58,-0.7939,-0.8038,-0.9027,-1.1194,-1.2807,-1.3866,-1.4298,-1.4406,-1.4262,-1.3981,-1.512,-1.5877,-1.6445,-1.7103,-1.8101,-1.9292,-1.8894,-1.8991,-1.9301,-1.9301,-1.9301,-1.9301,-1.9301,-1.9301,-1.9301,0.0,0.0,0.0,0.0,0.0,0.0,0.0,0.0,0.0,0.0,0.0,0.0,0.0,0.0,0.0,0.0,0.0,0.0,0.0,0.0,0.0,0.0,0.0,0.0,0.0,0.0,0.0,0.0,0.0,0.0,0.0,0.0,0.0,0.0,0.0,0.0,0.0,0.0,0.0,0.0,0.0,0.0,0.0,0.0,0.0,0.0,3.6742,3.6585,3.6301,3.6002,3.6088,3.6156,3.5453,3.5498,3.5677,3.5008,3.5008,3.5131,3.4913,3.4787,3.4611,3.425,3.3351,3.2662,3.3198,3.2446,3.1433,3.0845,2.9873,2.8258,2.5221,2.1906,1.8967,1.6824,1.4576,1.2657,1.1405,0.9867,0.8612,0.7749,0.6742,0.5427,0.3819,0.3632,0.2626,0.0404,-0.0808,-0.2326,-0.4459,-0.4718,-0.58,-0.7939,-0.8247,-0.9288,-1.1226,-1.2325,-1.3352,-1.4298,-1.4514,-1.44,-1.3843,-1.4179,-1.5047,-1.6229,-1.5636,-1.6795,-1.9154,-1.8444,-1.8602,-1.9301,-1.9301,-1.9301,-1.9301,-1.9301,-1.9301,-1.9301,0.0,0.0,0.0,0.0,0.0,0.0,0.0,0.0,0.0,0.0,4.2287,4.2234,0.0,0.0,0.0,0.0,0.0,0.0,0.0,0.0,0.0,0.0,0.0,0.0,0.0,3.9073,3.9183,3.9183,3.9183,0.0,0.0,0.0,0.0,0.0,0.0,0.0,0.0,0.0,0.0,0.0,0.0,0.0,0.0,0.0,0.0,0.0,3.7027,3.6788,3.6602,3.6561,3.6461,3.6156,3.5453,3.5498,3.5766,3.565,3.5407,3.527,3.5543,3.5148,3.4691,3.4594,3.3834,3.3105,3.3239,3.3152,3.2735,3.1735,3.0634,2.897,2.5995,2.3253,2.0335,1.7074,1.5628,1.4037,1.1512,1.0891,1.004,0.8161,0.7563,0.6437,0.4111,0.3718,0.2918,0.1407,0.0302,-0.1212,-0.334,-0.4314,-0.58,-0.7939,-0.9693,-1.0821,-1.1194,-1.3061,-1.4088,-1.4298,-1.44,-1.4082,-1.3628,-1.4579,-1.5234,-1.5661,-1.675,-1.7861,-1.8823,-1.8986,-1.9195,-1.9301,-1.9301,-1.9301,-1.9301,-1.9301,-1.9301,-1.9301,0.0,0.0,0.0,0.0,0.0,0.0,0.0,4.2287,4.2187,4.1899,4.1899,4.2002,4.2287,4.1948,4.1395,0.0,0.0,0.0,0.0,0.0,0.0,0.0,0.0,0.0,0.0,3.8892,3.9007,3.9101,0.0,3.9183,3.9298,3.9298,3.9298,3.9298,3.9298,3.9219,3.9101,0.0,0.0,3.895,3.8713,3.8446,0.0,0.0,0.0,0.0,0.0,3.6948,3.6846,3.6846,3.6708,3.6402,3.5722,3.5766,3.6045,3.5871,3.5766,3.5766,3.5766,3.556,3.5195,3.4787,3.4086,3.3487,3.331,3.333,3.3231,3.2698,3.1962,3.074,2.8373,2.5346,2.2362,1.9696,1.713,1.4892,1.3602,1.2129,1.0826,0.9784,0.8542,0.7256,0.6029,0.5131,0.3822,0.1908,0.1207,-0.0101,-0.2224,-0.4416,-0.6106,-0.712,-0.866,-0.9842,-1.0338,-1.1864,-1.2929,-1.3454,-1.3872,-1.3872,-1.3521,-1.3888,-1.4419,-1.4886,-1.5189,-1.6152,-1.7441,-1.7174,-1.7409,-1.7995,-1.8488,-1.8602,-1.8691,-1.9107,-1.9301,-1.9222,0.0,0.0,0.0,0.0,0.0,0.0,0.0,4.2044,4.1813,4.1401,4.1338,4.1534,4.1917,4.2061,4.1866,0.0,0.0,0.0,0.0,0.0,0.0,0.0,0.0,0.0,0.0,0.0,0.0,3.896,3.9017,0.0,0.0,0.0,0.0,0.0,3.9101,3.9073,3.9045,3.9073,3.9073,0.0,0.0,3.859,0.0,0.0,0.0,0.0,0.0,3.7126,3.7126,3.7087,3.6948,3.665,3.6174,3.6131,3.6259,3.5985,3.6071,3.6259,3.6002,3.5854,3.5633,3.4961,3.4399,3.3917,3.3535,3.3621,3.3771,3.3607,3.3206,3.2347,3.042,2.7451,2.4547,2.2292,1.9047,1.6477,1.5512,1.3499,1.192,1.1298,0.969,0.845,0.7865,0.6656,0.5035,0.3015,0.2111,0.0503,-0.2123,-0.4728,-0.6221,-0.6714,-0.7733,-0.8784,-0.9627,-1.0646,-1.1641,-1.2406,-1.3143,-1.344,-1.3205,-1.3091,-1.3553,-1.4215,-1.3644,-1.4487,-1.6196,-1.5534,-1.5997,-1.7056,-1.7757,-1.8101,-1.8391,-1.9088,-1.9301,-1.9143,0.0,0.0,0.0,0.0,0.0,0.0,0.0,4.122,4.0943,4.0849,4.0849,4.0896,4.0943,4.1311,4.1453,0.0,0.0,0.0,0.0,0.0,0.0,0.0,0.0,0.0,0.0,0.0,0.0,3.8478,3.8713,0.0,0.0,0.0,0.0,0.0,0.0,3.8989,3.8833,3.9017,0.0,0.0,0.0,0.0,0.0,0.0,0.0,0.0,0.0,3.7577,3.7595,3.7354,3.7129,3.6921,3.6708,3.6461,3.6301,3.6259,3.6301,3.6301,3.6259,3.6028,3.5677,3.527,3.4866,3.4513,3.4281,3.4667,3.4957,3.4278,3.3829,3.2843,3.0321,2.881,2.6673,2.2592,2.1553,1.9884,1.5949,1.5208,1.4037,1.1507,1.1011,1.0266,0.8475,0.7563,0.6651,0.5749,0.3127,-0.0202,-0.4255,-0.476,-0.5856,-0.7836,-0.8866,-0.9474,-0.9557,-1.0699,-1.1212,-1.138,-1.2097,-1.227,-1.2089,-1.2753,-1.3363,-1.3749,-1.4103,-1.4881,-1.5752,-1.6133,-1.6928,-1.7879,-1.798,-1.8497,-1.9195,-1.9292,-1.9301,-1.9143,0.0,0.0,0.0,0.0,0.0,0.0,4.1065,4.0943,4.0689,4.0351,4.0302,4.0302,4.0302,4.048,4.0787,4.1286,0.0,0.0,0.0,0.0,0.0,0.0,0.0,0.0,0.0,0.0,3.8252,3.8382,3.8528,0.0,0.0,0.0,0.0,0.0,0.0,3.8803,3.8541,3.8634,0.0,0.0,0.0,0.0,0.0,0.0,0.0,0.0,0.0,0.0,3.7613,3.7372,3.7164,3.6935,3.6766,3.669,3.6597,3.6385,3.6301,3.6301,3.6301,3.6216,3.6002,3.5628,3.5299,3.5058,3.5114,3.5212,3.5237,3.4914,3.4625,3.3819,3.1902,3.02,2.8378,2.6195,2.3634,2.1085,1.8771,1.7079,1.5221,1.3077,1.1925,1.0923,0.9763,0.8294,0.6819,0.5135,0.232,-0.0404,-0.2731,-0.4128,-0.5216,-0.6006,-0.7733,-0.8656,-0.8656,-0.9693,-1.0169,-1.0173,-1.1418,-1.1994,-1.177,-1.2516,-1.2985,-1.3083,-1.3278,-1.392,-1.4753,-1.5177,-1.5933,-1.6952,-1.7713,-1.8197,-1.8593,-1.9097,-1.9301,-1.9134,0.0,0.0,0.0,0.0,0.0,4.0546,4.0546,4.0466,4.022,3.9817,3.9765,3.9765,3.9765,3.9919,4.0285,4.1001,4.0506,0.0,0.0,0.0,0.0,0.0,0.0,0.0,0.0,0.0,3.7949,3.8086,3.8153,3.8186,0.0,0.0,3.851,3.8433,0.0,0.0,0.0,0.0,0.0,0.0,0.0,0.0,0.0,0.0,0.0,0.0,0.0,0.0,0.0,0.0,0.0,3.6952,3.6766,3.6731,3.6678,3.6367,3.6367,3.6451,3.6343,3.6301,3.6233,3.5875,3.556,3.5446,3.5663,3.5728,3.5636,3.5379,3.5213,3.4675,3.3017,3.1188,2.9651,2.8554,2.5359,2.2561,2.1044,1.9076,1.7007,1.4942,1.3443,1.2252,1.1049,0.8864,0.6597,0.4528,0.2216,0.0303,-0.101,-0.2813,-0.4102,-0.4794,-0.6611,-0.7528,-0.7528,-0.8553,-0.9069,-0.8965,-1.029,-1.0949,-1.0846,-1.1861,-1.2322,-1.2328,-1.2607,-1.3089,-1.3835,-1.4328,-1.5202,-1.6315,-1.7379,-1.8092,-1.8488,-1.9088,-1.9143,-1.8727,0.0,0.0,0.0,0.0,0.0,0.0,4.0003,3.9592,3.9325,3.9325,3.9325,3.9325,3.9325,3.9731,4.0003,4.0003,3.9764,0.0,0.0,0.0,0.0,0.0,0.0,0.0,0.0,0.0,3.7521,3.7297,3.7577,3.7703,3.7703,3.7966,3.8201,3.8382,0.0,0.0,0.0,0.0,0.0,0.0,0.0,0.0,0.0,0.0,0.0,0.0,0.0,0.0,0.0,0.0,0.0,0.0,0.0,3.6502,3.6301,3.6301,3.6557,3.6821,3.6409,3.6301,3.6233,3.5875,3.5819,3.5807,3.5712,3.6257,3.6481,3.553,3.5535,3.5156,3.3059,3.1691,3.0375,2.867,2.6908,2.4854,2.2265,2.1145,1.956,1.68,1.585,1.4527,1.2444,0.9217,0.6393,0.4528,0.3621,0.2214,0.0101,-0.101,-0.2616,-0.4694,-0.5802,-0.641,-0.641,-0.7325,-0.7836,-0.7829,-0.8486,-0.8873,-0.8849,-1.057,-1.1305,-1.1395,-1.2328,-1.2887,-1.3149,-1.3834,-1.4989,-1.6472,-1.7166,-1.8197,-1.9301,-1.9301,-1.8727,-1.7917,0.0,0.0,0.0,0.0,0.0,0.0,0.0,3.9415,3.9272,3.9272,3.9272,3.9272,3.9272,3.9415,3.9451,3.9312,3.9649,0.0,0.0,0.0,0.0,0.0,0.0,0.0,0.0,0.0,3.6498,3.6678,3.6781,3.7034,3.7429,3.7703,3.7845,3.7845,3.7984,3.788,0.0,0.0,0.0,0.0,0.0,0.0,3.7521,0.0,0.0,0.0,0.0,0.0,0.0,0.0,0.0,0.0,0.0,0.0,0.0,3.6367,3.6367,3.6451,3.6343,3.6301,3.6259,3.6165,3.5762,3.5539,3.6004,3.5933,3.5636,3.5261,3.5182,3.483,3.3522,3.2026,3.0751,3.0218,2.7643,2.53,2.3784,2.171,1.9337,1.6773,1.4102,1.2088,1.1072,0.9217,0.7512,0.6358,0.4935,0.3118,0.1207,0.0101,-0.1513,-0.3627,-0.4742,-0.5639,-0.641,-0.6611,-0.7036,-0.7707,-0.8438,-0.9037,-0.9616,-1.0737,-1.1668,-1.2237,-1.2607,-1.2991,-1.3553,-1.4108,-1.4965,-1.6005,-1.6493,-1.7414,-1.8362,-1.7768,-1.7696,-1.7755,0.0,0.0,0.0,0.0,0.0,0.0,0.0,3.9272,3.9272,3.9218,3.9272,3.9272,3.9148,3.9164,3.9094,3.8914,3.9312,0.0,0.0,0.0,0.0,0.0,0.0,0.0,0.0,3.5907,3.5933,3.6062,3.6062,3.6274,3.662,3.6939,3.7111,3.7167,3.7394,3.7429,0.0,0.0,0.0,0.0,0.0,0.0,3.7259,0.0,0.0,0.0,0.0,0.0,0.0,0.0,0.0,0.0,0.0,0.0,0.0,0.0,3.6301,3.6301,3.6301,3.6301,3.6301,3.6301,3.5872,3.5472,3.5684,3.5704,3.5461,3.4722,3.4842,3.4784,3.3804,3.236,3.1168,3.0502,2.8036,2.5676,2.4115,2.2108,1.9761,1.7137,1.4306,1.2191,1.1077,0.9834,0.8623,0.7753,0.6042,0.4329,0.2712,0.131,-0.0202,-0.1921,-0.3441,-0.4547,-0.5227,-0.5472,-0.601,-0.6959,-0.7415,-0.8055,-0.8882,-0.9818,-1.0534,-1.1129,-1.1505,-1.1866,0.0,-1.3272,-1.4005,-1.4768,-1.5718,-1.6629,-1.7383,-1.6879,-1.6627,-1.6339,0.0,0.0,0.0,0.0,0.0,0.0,0.0,3.9272,3.9202,3.9023,3.9148,3.9164,3.886,3.8914,3.8914,3.8805,0.0,0.0,0.0,0.0,0.0,0.0,0.0,0.0,0.0,3.5793,3.5654,3.5459,3.5459,3.5459,3.5504,3.589,3.6182,3.6374,3.6568,3.6643,0.0,0.0,0.0,0.0,0.0,0.0,0.0,0.0,0.0,0.0,0.0,0.0,0.0,0.0,0.0,0.0,0.0,0.0,0.0,0.0,0.0,0.0,0.0,3.6301,3.6301,3.6301,3.5993,3.5581,3.4923,3.5512,0.0,3.3965,3.4586,3.5008,3.3818,3.2793,3.1645,2.9993,2.8255,2.6177,2.3551,2.2183,2.0486,1.7587,1.5842,1.4175,1.2299,1.0865,0.9628,0.8601,0.7036,0.5644,0.4429,0.2724,0.1212,-0.0,-0.1921,-0.3035,-0.3237,-0.4126,-0.5022,-0.5871,-0.5871,-0.6325,-0.7228,-0.8225,-0.8679,-0.8777,-0.9703,-1.0139,-1.0218,-1.169,-1.2613,-1.3155,-1.4838,-1.5824,-1.6206,-1.6363,-1.535,-1.3917,0.0,0.0,0.0,0.0,0.0,0.0,0.0,0.0,0.0,0.0,3.8969,3.886,3.8805,3.8805,3.8805,0.0,0.0,0.0,0.0,0.0,0.0,0.0,0.0,0.0,0.0,3.4792,3.4658,3.4897,3.4897,3.5098,3.5504,3.561,3.5786,3.6037,3.6054,3.6097,0.0,0.0,0.0,0.0,0.0,0.0,0.0,0.0,0.0,0.0,3.6806,3.6684,0.0,0.0,0.0,0.0,0.0,0.0,0.0,0.0,3.6301,3.6301,3.6301,0.0,3.6301,3.6301,3.5675,3.4965,0.0,3.4816,3.4691,3.41,3.4631,3.4994,3.4115,3.3312,3.226,3.085,2.9144,2.7375,2.5382,2.1861,1.8915,1.745,1.5216,1.3695,1.3211,1.1785,1.0564,0.9731,0.8517,0.6819,0.4529,0.4028,0.262,0.0101,-0.0505,-0.1516,-0.3136,-0.3937,-0.4842,-0.5874,-0.6505,-0.7408,-0.8496,-0.9456,-1.0393,-1.1225,-1.2037,-1.2347,-1.2394,-1.2555,-1.2765,-1.3124,-1.3724,-1.4108,-1.4318,-1.3835,-1.3309,-1.2872,0.0,0.0,0.0,0.0,0.0,0.0,0.0,0.0,0.0,0.0,0.0,0.0,0.0,0.0,0.0,0.0,0.0,0.0,0.0,0.0,0.0,0.0,0.0,0.0,3.5704,3.4975,3.4688,3.4955,3.4611,3.4561,3.4847,3.5052,3.5191,3.5345,3.5509,3.5554,0.0,0.0,0.0,0.0,3.6241,0.0,0.0,0.0,0.0,0.0,3.6585,3.6502,0.0,3.636,3.6301,3.6301,0.0,0.0,0.0,0.0,3.6301,3.6301,3.6301,3.6301,3.6284,3.6266,3.571,3.5108,3.5031,3.4978,3.4877,3.447,3.4758,3.4898,3.4199,3.3249,3.2053,3.0559,2.8909,2.6812,2.4119,2.0998,1.8692,1.7609,1.6319,1.4981,1.3927,1.2646,1.1556,1.0654,0.9217,0.7598,0.581,0.4822,0.3422,0.1511,0.0488,-0.0767,-0.2398,-0.2847,-0.3758,-0.5331,-0.5719,-0.6799,-0.848,-0.8969,-0.9552,-1.0139,-1.0514,-1.0717,-1.0748,-1.1029,-1.1165,-1.1353,-1.1997,-1.2625,-1.3058,-1.2289,-1.206,-1.1815,0.0,0.0,0.0,0.0,0.0,0.0,0.0,0.0,0.0,0.0,0.0,0.0,0.0,0.0,0.0,0.0,0.0,0.0,0.0,0.0,0.0,0.0,0.0,3.7048,3.6481,3.5736,3.5299,3.5185,3.4554,3.4214,3.4101,3.4448,3.4594,3.4594,3.4913,3.5038,0.0,0.0,3.5722,3.5722,3.6114,0.0,0.0,0.0,0.0,0.0,0.0,0.0,0.0,3.6301,3.6301,3.6301,3.6301,0.0,0.0,0.0,0.0,0.0,3.6284,3.6284,3.6284,3.6232,3.5882,3.548,3.5266,3.545,3.5498,3.4927,3.4908,3.4861,3.4301,3.326,3.1899,3.0281,2.8277,2.5711,2.2013,2.0483,1.9092,1.7643,1.7407,1.649,1.4242,1.3093,1.2097,1.1269,0.9422,0.7987,0.7174,0.5515,0.4004,0.2866,0.1206,-0.0269,-0.1525,-0.1705,-0.2683,-0.4355,-0.4565,-0.5636,-0.7562,-0.7834,-0.7967,-0.7978,-0.8237,-0.8408,-0.8438,-0.9118,-0.9383,-0.9529,-1.0616,-1.1386,-1.194,-1.13,-1.088,-1.0438,0.0,0.0,0.0,0.0,0.0,0.0,0.0,0.0,0.0,0.0,0.0,0.0,0.0,0.0,0.0,0.0,0.0,0.0,0.0,0.0,0.0,0.0,3.7351,3.7274,3.7161,3.6481,3.5817,3.5185,3.5072,3.47,3.4101,3.4151,3.4201,3.4201,3.425,3.4284,3.4333,3.4991,3.527,3.5362,3.6028,0.0,0.0,0.0,0.0,0.0,0.0,0.0,0.0,3.6301,3.6301,3.6301,3.6301,0.0,0.0,0.0,0.0,0.0,3.6232,3.6232,3.6232,3.6172,3.5753,3.5245,3.5224,3.5272,3.534,3.5399,3.5491,3.5386,3.486,3.4239,3.3318,3.1927,2.8952,2.5752,2.2888,2.1337,1.9401,1.6667,1.6244,1.5292,1.3193,1.2062,1.1279,1.0959,0.932,0.7885,0.6872,0.6024,0.4399,0.1915,0.1888,0.0715,-0.1705,-0.2513,-0.3142,-0.3408,-0.4448,-0.523,-0.5855,-0.7386,-0.8281,-0.8448,-0.9932,-1.0534,-1.0524,-1.0453,-1.0371,-1.0448,-1.0809,-1.0569,-1.0076,-1.0101,-0.9113,-0.7552,0.0,0.0,0.0,0.0,0.0,0.0,0.0,0.0,0.0,0.0,0.0,0.0,0.0,0.0,0.0,0.0,0.0,0.0,0.0,0.0,0.0,3.6829,3.716,3.7536,3.7906,3.7209,3.6675,3.6335,3.5963,3.5412,3.4683,3.4279,3.4101,3.4101,3.4101,3.4101,3.4151,3.4897,3.5102,3.5008,0.0,0.0,0.0,0.0,0.0,0.0,0.0,0.0,0.0,0.0,3.6174,3.6301,3.6301,0.0,0.0,0.0,0.0,0.0,3.6087,3.6095,3.6019,3.5625,3.5385,3.5116,3.4757,3.4663,3.4755,3.5031,3.4893,3.4431,3.3575,3.2471,3.0437,2.6771,2.4701,2.2454,1.9474,1.8458,1.7172,1.5129,1.481,1.4134,1.2543,1.1502,1.0728,1.0242,0.8878,0.7622,0.6318,0.5677,0.4657,0.3133,0.1878,0.0806,-0.0179,-0.1974,-0.3054,-0.3595,-0.4113,-0.4823,-0.5549,-0.6453,-0.6887,-0.7034,-0.7826,-0.8165,-0.8154,-0.7998,-0.7994,-0.7983,-0.8082,-0.8185,-0.8281,-0.8317,-0.7169,-0.5427,0.0,0.0,0.0,0.0,0.0,0.0,0.0,0.0,0.0,0.0,0.0,0.0,0.0,0.0,0.0,0.0,0.0,0.0,0.0,0.0,3.6197,3.6197,3.6829,3.7401,3.7902,3.7673,3.7429,3.7069,3.6734,3.6157,3.5428,3.4878,3.4522,3.436,3.436,3.4262,3.4151,3.4802,3.4913,3.4787,0.0,0.0,0.0,0.0,0.0,0.0,0.0,0.0,0.0,0.0,0.0,0.0,0.0,0.0,0.0,3.6232,3.6172,3.6105,3.5987,3.5921,3.5779,3.5112,3.5138,3.5094,3.4244,3.4146,3.4258,3.4288,3.3901,3.3267,3.2528,3.0705,2.7681,2.2445,2.1023,1.9331,1.6071,1.5464,1.464,1.2865,1.2808,1.2448,1.1106,1.0285,0.9481,0.8979,0.7566,0.6245,0.502,0.43,0.3669,0.3133,0.1612,0.0717,0.0538,-0.1076,-0.2424,-0.3595,-0.3597,-0.4139,-0.5046,-0.531,-0.5382,-0.5351,-0.5625,-0.5714,-0.5703,-0.5536,-0.5442,-0.5432,-0.5265,-0.5612,-0.6304,-0.6192,-0.5144,-0.3655,0.0,0.0,0.0,0.0,0.0,0.0,0.0,0.0,0.0,0.0,0.0,0.0,0.0,0.0,0.0,0.0,0.0,0.0,0.0,0.0,3.5464,3.5464,3.6134,3.6508,3.6569,3.7722,3.7673,3.6368,3.695,3.6902,3.6222,3.6173,3.5785,3.5104,3.5104,3.4732,3.4151,3.4546,3.4739,3.4787,3.5515,0.0,0.0,0.0,0.0,0.0,0.0,0.0,0.0,0.0,0.0,0.0,0.0,0.0,3.6284,3.6232,3.6104,3.6019,3.5841,3.5819,3.5656,3.4981,3.5317,3.5345,3.3889,3.3952,3.406,3.3284,3.2708,3.2514,3.3017,3.0653,2.742,2.3856,2.111,1.828,1.4937,1.4323,1.2937,0.9359,0.9696,0.9482,0.7535,0.7262,0.717,0.6897,0.4556,0.2948,0.2502,0.1518,0.0447,-0.0628,0.1073,0.0983,-0.1166,-0.0269,-0.0718,-0.2604,-0.2873,-0.3054,-0.3144,-0.4022,-0.4385,-0.4405,-0.5282,-0.5725,-0.5641,-0.4919,-0.4648,-0.4645,-0.4011,-0.3827,-0.3826,-0.3556,-0.2945,-0.2153,0.0,0.0,0.0,0.0,0.0,0.0,0.0,0.0,0.0,0.0,0.0,0.0,0.0,0.0,0.0,0.0,0.0,0.0,0.0,0.0,3.4787,3.4787,3.54,3.5578,3.5154,3.6906,3.7334,3.6349,3.659,3.6758,3.6918,3.6513,3.6157,3.5849,3.538,3.5024,3.4799,3.4742,3.4546,3.4399,3.5131,3.5224,0.0,0.0,0.0,0.0,0.0,0.0,0.0,0.0,3.5941,3.6259,3.6027,3.614,3.6284,3.6121,3.6037,3.5973,3.5718,3.5673,3.5526,3.4953,3.5449,3.5629,3.3763,3.3248,3.3066,3.2781,3.2159,3.1104,2.9538,2.5349,2.1227,1.8443,1.5585,1.2372,0.8471,0.7382,0.5983,0.3257,0.3261,0.2933,0.1509,0.2399,0.2576,0.1331,0.089,0.0267,-0.0444,-0.1151,-0.1244,-0.0896,-0.1075,-0.1165,-0.1256,-0.1525,-0.1794,-0.2064,-0.1705,-0.1794,-0.2243,-0.2148,-0.2059,-0.2064,-0.2417,-0.2594,-0.2597,-0.2327,-0.2149,-0.2148,-0.1878,-0.1788,-0.1698,-0.0983,-0.0626,-0.0179,0.0,0.0,0.0,0.0,0.0,0.0,0.0,0.0,0.0,0.0,0.0,0.0,0.0,0.0,0.0,0.0,0.0,0.0,3.4414,3.4414,3.4414,3.4414,3.4839,3.4839,3.4414,3.5976,3.6523,3.6072,3.6466,3.6979,3.7647,3.7193,3.6837,3.6594,3.6092,3.5606,3.5188,3.4954,3.4561,3.4151,3.4818,3.4818,0.0,0.0,0.0,0.0,0.0,0.0,0.0,0.0,3.5605,3.6079,3.5837,3.5994,3.6232,3.5975,3.5795,3.5673,3.5639,3.556,3.5459,3.4936,3.5442,3.5542,3.3626,3.3096,3.278,3.2032,3.1382,2.9808,2.5995,2.1777,1.7771,1.4276,1.0555,0.708,0.4066,0.2042,0.0266,-0.141,-0.1585,-0.1943,-0.267,-0.1592,-0.1324,-0.2403,-0.2402,-0.2573,-0.3095,-0.353,-0.3184,-0.1961,-0.2509,-0.2334,-0.1345,-0.1705,-0.1794,-0.1794,-0.0628,-0.0538,-0.1436,-0.1166,-0.0718,-0.0269,-0.0538,-0.0358,0.0179,0.0089,0.0358,0.0895,0.0628,0.0718,0.0897,0.1345,0.1612,0.1965,0.0,0.0,0.0,0.0,0.0,0.0,0.0,0.0,0.0,0.0,0.0,0.0,0.0,0.0,0.0,0.0,0.0,0.0,3.4414,3.4414,3.4414,3.4414,3.4414,3.4414,3.4414,3.5023,3.54,3.54,3.6723,3.7727,3.8391,3.8391,3.8019,3.7268,3.7323,3.6529,3.5185,3.5185,3.4764,3.4151,3.4546,3.4448,3.4151,0.0,0.0,0.0,0.0,0.0,0.0,0.0,3.5429,3.5779,3.5651,3.5889,3.6138,3.5889,3.5419,3.5116,3.5509,3.556,3.5363,3.4919,3.515,3.5095,3.3565,3.3606,3.3316,3.082,3.0387,2.8635,2.2746,2.0885,1.8216,1.2405,0.7025,0.3309,0.25,-0.0798,-0.3424,-0.4207,-0.4282,-0.4323,-0.4246,-0.4255,-0.3976,-0.3359,-0.5046,-0.5843,-0.5396,-0.5574,-0.5396,-0.4592,-0.3034,-0.2064,-0.1794,-0.0359,-0.0359,-0.1794,0.0359,0.0628,-0.0718,-0.1436,-0.0897,0.0628,-0.0269,0.0358,0.2138,0.187,0.2764,0.42,0.3499,0.3687,0.4228,0.3506,0.3664,0.4345,0.0,0.0,0.0,0.0,0.0,0.0,0.0,0.0,0.0,0.0,0.0,0.0,0.0,0.0,0.0,0.0,0.0,0.0,3.4414,3.4414,3.4414,3.4414,3.4414,3.4414,3.4414,3.4601,3.5415,3.6784,3.6707,3.7266,3.8391,3.8391,3.8035,3.7393,3.7311,3.6571,3.5275,3.5223,3.4764,3.4101,3.3799,3.3697,3.3797,0.0,0.0,0.0,0.0,0.0,0.0,0.0,0.0,0.0,3.5009,3.5426,3.6019,3.5837,3.5892,3.5992,3.6071,3.6057,3.5932,3.5416,3.5667,3.5684,3.4121,3.401,3.3481,3.0596,2.8498,2.5689,2.0798,1.5408,1.0672,0.7118,0.1786,-0.2482,-0.4004,-0.5737,-0.7483,-0.9033,-0.9568,-1.0142,-1.0854,-0.9695,-0.9235,-1.0029,-0.9602,-0.9029,-0.8564,-0.8013,-0.6926,-0.5396,-0.4289,-0.3325,-0.2603,-0.1615,-0.1076,-0.0987,-0.0359,-0.0,0.009,0.0359,0.1076,0.2243,0.1974,0.2503,0.3641,0.3551,0.4275,0.528,0.5087,0.5468,0.6323,0.6732,0.6612,0.6416,0.0,0.0,0.0,0.0,0.0,0.0,0.0,0.0,0.0,0.0,0.0,0.0,0.0,0.0,0.0,0.0,0.0,0.0,0.0,3.3894,3.3894,3.3894,3.4264,3.4414,3.4414,3.4414,3.5103,3.66,3.6212,3.6707,3.8033,3.7711,3.7519,3.7401,3.7339,3.6589,3.53,3.5288,3.4679,3.3697,3.3108,3.3108,3.3455,0.0,0.0,0.0,0.0,0.0,0.0,0.0,0.0,0.0,3.5338,3.5808,3.6251,3.5599,3.556,3.5746,3.5719,3.5975,3.6093,3.5609,3.584,3.6027,3.5351,3.4379,3.2978,3.06,2.7446,2.3649,1.8871,1.2068,0.6088,0.3169,-0.237,-0.6592,-0.7532,-0.9298,-1.1022,-1.214,-1.2887,-1.3502,-1.4028,-1.2968,-1.2379,-1.2979,-1.1963,-1.0722,-0.9429,-0.8794,-0.7489,-0.5255,-0.4574,-0.3868,-0.2875,-0.1885,-0.1166,-0.0718,-0.009,0.0538,0.1436,0.1525,0.2424,0.4047,0.4844,0.545,0.5963,0.6413,0.6881,0.7347,0.7351,0.7746,0.8298,0.8815,0.8943,0.896,0.0,0.0,0.0,0.0,0.0,0.0,0.0,0.0,0.0,0.0,0.0,0.0,0.0,0.0,0.0,0.0,0.0,0.0,0.0,0.0,3.3073,3.3073,3.3879,3.4332,3.4414,3.4414,3.4721,3.5335,3.54,3.6024,3.7298,3.6707,3.6707,3.7222,3.7282,3.651,3.5147,3.5275,3.4455,3.3093,3.2532,3.2625,3.3093,3.3024,0.0,0.0,0.0,0.0,0.0,0.0,0.0,0.0,3.6289,3.6679,3.6723,3.5493,3.511,3.5064,3.5115,3.565,3.6096,3.5719,3.5877,3.6307,3.6864,3.4853,3.2498,3.1155,2.7633,2.3065,1.7456,1.0468,0.4255,0.0171,-0.5749,-0.9658,-0.9029,-1.1679,-1.3736,-1.3704,-1.4372,-1.4811,-1.4757,-1.4433,-1.3931,-1.3241,-1.2802,-1.146,-0.9021,-0.8632,-0.7252,-0.4681,-0.432,-0.3687,-0.2784,-0.1436,-0.0628,-0.0538,0.0897,0.2064,0.2964,0.2241,0.3321,0.5947,0.7886,0.8673,0.8765,0.9531,0.999,1.0045,1.0105,1.0159,1.0319,1.0373,1.0931,1.161,0.0,0.0,0.0,0.0,0.0,0.0,0.0,0.0,0.0,0.0,0.0,0.0,0.0,0.0,0.0,0.0,0.0,0.0,0.0,0.0,3.2362,3.2362,3.3087,3.3742,3.4414,3.4414,3.4481,3.4601,3.5154,3.5834,3.6631,3.6446,3.6197,3.5834,3.6399,3.5584,3.3849,3.4398,3.3785,3.2547,3.1936,3.1864,3.2145,3.1622,3.1849,0.0,0.0,0.0,0.0,0.0,0.0,0.0,3.6489,3.7099,3.7353,3.77,3.7349,3.6997,3.7686,3.7292,3.6683,3.6482,3.6444,3.6534,3.6911,3.6291,3.5329,3.4178,3.2115,2.7726,1.86,1.158,0.4676,-0.2843,-0.8994,-1.2711,-1.2607,-1.3266,-1.3737,-1.3738,-1.4745,-1.5479,-1.5487,-1.51,-1.4849,-1.4867,-1.3997,-1.2946,-1.1832,-0.9722,-0.7875,-0.6511,-0.432,-0.2784,-0.2064,-0.1166,-0.0448,0.0179,0.1794,0.3054,0.3957,0.3029,0.4271,0.7245,0.9087,1.0005,1.0115,0.9934,1.0455,1.1386,1.1884,1.2552,1.3182,1.3966,1.3946,1.3796,0.0,0.0,0.0,0.0,0.0,0.0,0.0,0.0,0.0,0.0,0.0,0.0,0.0,0.0,0.0,0.0,0.0,0.0,0.0,0.0,0.0,3.2074,3.2434,3.2875,3.3311,3.3673,3.3825,3.3825,3.4558,3.527,3.5882,3.5578,3.5464,3.54,3.577,3.4967,3.344,3.3804,3.3224,3.1936,3.1306,3.1321,3.1652,3.1364,3.1595,3.216,3.2407,0.0,0.0,0.0,0.0,0.0,0.0,0.0,3.7787,3.8119,3.7831,3.7373,3.7393,3.7265,3.7217,3.7306,3.737,3.7499,3.7906,3.8021,3.7868,3.7305,3.3629,2.8789,2.3134,1.1557,0.193,-0.058,-1.0015,-1.6653,-1.5568,-1.4914,-1.4965,-1.5726,-1.6055,-1.6055,-1.5763,-1.539,-1.5321,-1.5515,-1.4558,-1.3516,-1.2668,-1.0029,-0.7834,-0.6505,-0.4139,-0.2513,-0.1794,-0.1076,-0.009,0.1076,0.2334,0.3948,0.5827,0.5617,0.7267,1.0331,1.0756,1.1544,1.2431,1.2169,1.2342,1.2894,1.3658,1.4467,1.5191,1.5673,1.5967,1.6208,0.0,0.0,0.0,0.0,0.0,0.0,0.0,0.0,0.0,0.0,0.0,0.0,0.0,0.0,0.0,0.0,0.0,0.0,0.0,0.0,0.0,3.1623,3.1769,3.1928,3.2074,3.272,3.3073,3.3213,3.3894,3.4572,3.5219,3.4654,3.4721,3.5219,3.5219,3.449,3.3193,3.327,3.2436,3.1058,3.0673,3.0732,3.1058,3.119,3.1595,3.2104,3.2664,3.2749,3.3014,3.5683,0.0,0.0,0.0,0.0,3.8251,3.8254,3.8033,3.763,3.6807,3.7041,3.7605,3.8061,3.8293,3.8556,3.9107,3.9471,3.9671,3.9675,3.4718,2.988,2.8307,1.3969,0.3122,0.5403,-0.7284,-1.6676,-1.4775,-1.5151,-1.6108,-1.7631,-1.7032,-1.625,-1.5569,-1.5442,-1.5387,-1.5233,-1.4273,-1.3226,-1.2385,-0.9649,-0.7221,-0.5586,-0.3687,-0.2243,-0.1166,-0.0538,0.0538,0.2243,0.3409,0.5544,0.8556,0.9192,1.0819,1.3062,1.2487,1.318,1.459,1.462,1.4585,1.4585,1.5459,1.6148,1.6742,1.6838,1.7578,1.8559,0.0,0.0,0.0,0.0,0.0,0.0,0.0,0.0,0.0,0.0,0.0,0.0,0.0,0.0,0.0,0.0,0.0,0.0,2.8267,0.0,0.0,2.9923,3.0644,3.1415,3.2074,3.2218,3.2577,3.3213,3.3297,3.3742,3.4534,3.4414,3.4481,3.4534,3.4534,3.3754,3.2434,3.2434,3.1274,2.938,2.9946,2.9808,2.938,3.0068,3.0341,3.0507,3.1218,3.1644,3.2266,3.4975,3.5883,0.0,0.0,0.0,3.9177,3.9849,3.9738,3.9387,3.9319,3.8432,3.772,3.8636,3.8624,3.865,3.9586,3.9656,3.9532,3.9519,3.8625,3.627,3.0984,2.5341,2.002,1.551,0.4036,-0.4207,-0.3888,-1.0209,-1.5128,-1.5975,-1.5957,-1.5479,-1.4536,-1.5027,-1.4817,-1.3425,-1.2331,-1.1647,-1.1444,-0.805,-0.5631,-0.4768,-0.2964,-0.0897,0.1256,0.1436,0.2334,0.3957,0.6729,0.9634,1.257,1.3442,1.3326,1.2474,1.3954,1.4835,1.5276,1.5447,1.5981,1.6684,1.7188,1.7733,1.8371,1.9145,1.9813,2.0468,0.0,0.0,0.0,0.0,0.0,0.0,0.0,0.0,0.0,0.0,0.0,0.0,0.0,0.0,0.0,2.8676,2.7775,2.7209,2.7221,2.7302,2.7602,2.8152,2.9032,2.9743,3.005,3.0957,3.1549,3.1901,3.2777,3.3157,3.3101,3.352,3.3962,3.4414,3.4414,3.3422,3.1744,3.2177,3.0878,2.8556,2.9747,2.9484,2.8556,2.9713,2.9913,2.9808,3.0764,3.1379,3.214,3.4404,3.5311,3.5914,3.8023,0.0,0.0,0.0,3.9546,3.8512,3.799,3.7136,3.656,3.7379,3.783,3.8307,3.9242,3.9518,3.9616,3.9621,3.9455,3.8489,3.5772,2.8243,2.2216,2.1499,0.8136,-0.1823,-0.0871,-0.6035,-1.035,-1.1577,-1.233,-1.2304,-1.0958,-1.2668,-1.3231,-1.1573,-1.0103,-0.9294,-0.9226,-0.5717,-0.3354,-0.2603,-0.0897,0.1166,0.3595,0.3486,0.4823,0.7645,0.9989,1.2275,1.4309,1.568,1.5997,1.5495,1.5733,1.6413,1.7327,1.7474,1.7907,1.8619,1.9316,1.9963,2.0644,2.1318,2.1603,2.1883,0.0,0.0,0.0,0.0,0.0,0.0,0.0,0.0,0.0,0.0,0.0,0.0,0.0,0.0,0.0,0.0,2.6707,2.6058,2.6069,2.6224,2.6472,2.6741,2.7879,2.8462,2.8462,2.9922,3.0683,3.0895,3.206,0.0,3.2074,3.2648,3.3241,3.3825,3.3825,3.2826,3.1174,3.1613,3.0149,2.7723,2.903,2.8762,2.7723,2.8989,2.9282,2.9247,3.0276,3.1057,3.1875,3.3587,3.4546,3.5284,3.691,3.7544,0.0,0.0,0.0,3.7452,3.6929,3.6416,3.6185,3.673,3.7327,3.8013,3.8863,3.928,3.9526,3.9681,3.9514,3.9314,3.9138,3.1437,2.5883,2.8342,1.4752,0.4323,0.5544,0.0671,-0.3898,-0.6251,-0.6597,-0.6759,-0.6961,-0.8759,-0.945,-0.8247,-0.6833,-0.5686,-0.5032,-0.1882,0.0269,0.1254,0.2684,0.4391,0.6394,0.6672,0.8348,1.1319,1.3222,1.4832,1.6063,1.7995,1.8896,1.8929,1.7863,1.8138,1.9283,1.95,2.0003,2.0752,2.1293,2.2071,2.2821,2.3252,2.3282,2.3316,0.0,0.0,0.0,0.0,0.0,0.0,0.0,0.0,0.0,0.0,0.0,0.0,2.7232,2.6976,2.6894,2.6894,2.563,2.4638,2.4003,2.4723,2.5389,2.5819,2.7557,0.0,2.8462,2.9365,3.0203,3.0895,0.0,0.0,3.2074,3.2146,3.2146,3.2232,3.2232,3.1748,3.0879,3.0241,2.8599,2.6552,2.7351,2.7149,2.6595,2.7341,2.8036,2.8655,2.9462,3.0225,3.0988,3.2473,3.3434,3.4091,3.4852,3.6014,3.7068,0.0,0.0,0.0,3.7824,3.7759,3.7535,3.7853,3.7851,3.7981,3.874,3.8937,3.9088,3.9605,3.959,3.9426,3.9212,3.86,3.8183,3.8331,2.8629,2.1038,2.1116,1.226,0.4103,-0.0267,0.178,0.1583,-0.351,-0.3054,-0.2387,-0.2472,-0.178,-0.0357,0.2054,0.403,0.5841,0.7488,0.8432,0.9328,1.02,1.1927,1.3297,1.4354,1.6327,1.7749,1.8797,2.1263,2.2066,2.1565,2.0566,2.0267,2.0349,2.0992,2.1953,2.301,2.286,2.3498,2.458,2.4591,2.4802,2.516,0.0,0.0,0.0,0.0,0.0,0.0,0.0,0.0,0.0,0.0,0.0,0.0,0.0,2.64,2.5986,2.5986,2.4467,2.329,2.2765,2.3367,2.3983,2.4327,2.5902,2.673,2.673,2.8211,2.9106,0.0,0.0,3.0506,2.982,3.024,3.0139,2.9566,3.1154,3.1039,2.9495,2.9661,2.8169,2.5849,2.7287,2.6966,2.5861,2.7191,2.7494,2.7378,2.8048,2.8974,3.0047,3.094,3.202,3.3199,3.4248,3.4925,3.5368,3.5414,3.5948,3.6386,3.6021,3.6152,3.6427,3.6717,3.6943,3.7422,3.8607,3.8828,3.8918,3.9451,3.9471,3.9389,3.9444,3.9212,3.9045,3.9045,3.2502,2.7032,2.5786,1.9107,1.2988,0.919,0.8122,0.6863,0.4608,0.3188,0.288,0.3989,0.494,0.6334,0.8336,0.9155,1.0259,1.1875,1.2053,1.2977,1.4703,1.63,1.7596,1.8687,1.9771,2.0781,2.1805,2.3273,2.3784,2.3641,2.3824,2.3403,2.2617,2.3205,2.407,2.4905,2.4881,2.5107,2.5541,2.5884,2.589,2.5762,0.0,0.0,0.0,0.0,0.0,0.0,0.0,0.0,0.0,2.6648,0.0,0.0,0.0,0.0,2.4467,2.4018,2.2931,2.2069,2.1596,2.2138,2.2599,2.2872,2.4286,2.521,2.5473,2.6964,2.7787,0.0,0.0,0.0,2.8051,2.8548,2.8366,2.7797,2.9372,2.9151,2.7813,2.8031,2.6746,2.4684,2.6194,2.6045,2.5037,2.6496,2.7018,2.6897,2.7181,2.8085,2.9323,2.9477,3.0282,3.1401,3.2449,3.3237,3.3818,3.4412,3.5022,3.5386,3.5023,3.547,3.6052,3.62,3.6705,3.727,3.7767,3.8038,3.8282,3.8846,3.8879,3.8914,3.9369,3.9214,3.9031,3.9188,3.5401,3.1809,3.0027,2.5704,2.123,1.7312,1.528,1.3271,1.0811,0.9511,0.9065,0.9682,1.0611,1.2093,1.4273,1.433,1.511,1.6913,1.6709,1.7355,1.917,2.0178,2.1024,2.1709,2.2435,2.3143,2.385,2.485,2.5229,2.5073,2.6037,2.5669,2.4519,2.4862,2.5513,2.6144,2.6181,2.6391,2.6824,2.718,2.7074,2.693,0.0,0.0,0.0,0.0,0.0,0.0,0.0,0.0,2.5735,2.5735,0.0,0.0,0.0,0.0,0.0,2.1078,2.1069,2.1051,2.0593,2.0962,2.1418,2.1695,2.2969,2.3988,2.4702,0.0,0.0,0.0,0.0,0.0,0.0,2.7058,2.6987,2.6976,2.6565,2.6119,2.5727,2.5304,2.429,2.3094,2.3987,2.4284,2.4236,2.5228,2.6362,2.7397,2.6864,2.7589,2.8682,2.8136,2.8304,2.8816,2.9498,3.0922,3.2513,3.3663,3.4058,3.4228,0.0,0.0,0.0,3.6484,3.721,3.7556,3.6197,3.6453,3.7141,3.7701,3.7738,3.797,3.8906,3.8988,3.9026,3.9432,3.7926,3.6132,3.4449,3.2038,2.8479,2.3356,2.3169,2.0997,1.467,1.585,1.6221,1.4453,1.5087,1.6809,1.9907,1.9551,2.0322,2.2553,2.235,2.2611,2.348,2.3492,2.3511,2.3573,2.4329,2.4676,2.4767,2.613,2.6483,2.6025,2.7087,2.6956,2.6013,2.6,2.626,2.6732,2.6745,2.7523,2.8532,2.8559,2.8545,2.8652,0.0,0.0,0.0,0.0,0.0,0.0,2.5557,2.4999,2.4423,0.0,0.0,0.0,2.2492,2.1462,2.0369,1.9389,1.9115,1.8932,1.9031,1.9761,2.0692,2.1436,2.2296,2.2814,2.3086,0.0,0.0,0.0,0.0,0.0,2.5462,2.5462,2.4967,2.4221,2.4125,2.3426,2.2392,2.3924,2.3996,2.3007,2.3387,2.3838,2.4343,2.4826,2.5538,2.6297,2.6136,2.6693,2.7498,2.7359,2.7906,2.8879,2.94,3.011,3.0932,3.1789,3.2346,3.3031,3.4554,0.0,0.0,0.0,0.0,0.0,3.552,3.6033,3.6506,3.6195,3.6787,3.7221,3.6823,3.6723,3.6725,3.6825,3.6931,3.5864,3.2657,3.1591,2.9142,2.3827,2.4208,2.3279,1.9058,2.009,2.0805,2.0302,2.0103,2.0989,2.3187,2.3187,2.3394,2.4038,2.4408,2.482,2.5171,2.6077,2.6536,2.6496,2.6614,2.6956,2.743,2.7801,2.792,2.7801,2.8639,2.8786,2.8439,2.8013,2.7894,2.804,2.8532,2.8919,2.9199,2.9232,2.9231,2.9266,0.0,0.0,0.0,0.0,0.0,2.3917,2.3856,2.3627,2.3299,0.0,0.0,0.0,2.0935,1.9728,1.8624,1.7546,1.7267,1.7088,1.7001,1.774,1.8472,1.9039,1.9745,2.0468,2.1194,2.1799,2.2688,0.0,0.0,0.0,0.0,2.3587,2.3114,2.2543,2.2193,2.1451,2.0361,2.1675,2.191,2.1515,2.2083,2.2761,2.3537,2.446,2.5247,2.5881,2.6006,2.6209,2.6452,2.6321,2.6659,2.713,2.7459,2.7939,2.8524,2.9254,2.9836,3.0532,3.1803,3.2279,3.2617,3.3826,0.0,0.0,3.4155,3.4598,3.4845,3.4621,3.5052,3.5463,3.5232,3.5411,3.5232,3.4146,3.4645,3.4358,3.2127,3.0843,2.8927,2.5615,2.467,2.3682,2.1998,2.2418,2.2877,2.3089,2.3134,2.3858,2.5495,2.5984,2.6245,2.6286,2.693,2.7289,2.7413,2.8356,2.8812,2.8799,2.878,2.8876,2.9281,2.904,2.8926,2.8919,2.9303,2.9512,2.9512,2.9394,2.9156,2.8983,2.938,2.9659,2.9953,2.9942,2.9929,2.9959,0.0,0.0,2.296,2.2148,2.2687,2.296,2.2148,2.2138,2.2217,0.0,2.1943,2.1105,1.9182,1.8072,1.6879,1.5501,1.5216,1.5032,1.4752,1.5222,1.5596,1.5785,1.6525,1.7632,1.9182,1.9472,2.0305,0.0,0.0,0.0,0.0,2.14,2.1212,2.1207,0.0,1.9929,1.9178,1.9073,1.9019,1.9275,2.0489,2.1366,2.2153,2.4057,2.5111,2.5635,2.5859,2.5834,2.5554,2.5302,2.4915,2.4536,2.4788,2.535,2.5973,2.652,2.7043,2.765,2.827,2.8684,2.9388,3.1231,3.1918,0.0,3.2154,3.2551,3.2855,3.2792,3.2958,3.3291,3.3771,3.438,3.4051,3.1777,3.1605,3.1827,3.193,2.9861,2.8076,2.7452,2.4745,2.3145,2.3647,2.35,2.3525,2.3986,2.4816,2.5791,2.6943,2.7921,2.861,2.8862,2.9383,2.9715,2.9697,3.0312,3.0615,3.0628,3.0557,3.0584,3.0647,3.0121,2.9841,2.9842,2.9929,2.9944,2.9973,3.06,3.0352,2.9595,2.9697,3.0104,3.0717,3.0629,3.0629,3.0776,2.1123,2.1212,2.14,2.1427,2.1606,2.1704,2.1731,2.1624,2.1338,2.0817,1.9139,1.7468,1.6069,1.4423,1.3262,1.2989,1.1833,1.1444,1.2195,1.3262,1.441,1.5347,1.6317,1.7181,1.7747,1.7554,1.791,1.8824,0.0,0.0,0.0,1.8433,1.8417,1.8378,1.87,1.8289,1.747,1.7867,1.8229,1.862,1.9529,2.043,2.1431,2.2682,2.3709,2.4405,2.4498,2.4498,2.4491,2.4873,2.4419,2.3802,2.4267,2.4732,2.5142,2.5283,2.6086,2.7228,2.8162,2.8419,2.8622,2.8787,3.0112,0.0,2.9317,3.1011,3.2391,3.0574,3.1456,3.2294,3.1422,3.1333,3.1452,3.1471,2.9349,2.8056,2.9091,2.8412,2.7155,2.5385,2.5213,2.473,2.3315,2.4478,2.5419,2.5455,2.6421,2.718,2.7536,2.814,2.8993,3.0042,3.0703,3.097,3.0878,3.1516,3.1883,3.2021,3.1457,3.1542,3.2139,3.208,3.2019,3.2013,3.2443,3.2622,3.2622,3.2755,3.185,3.0352,3.0893,3.1467,3.1983,3.1467,3.1599,3.1983,1.9604,1.9968,2.0331,2.0076,2.0051,1.9951,1.9704,1.9231,1.8756,1.8411,1.6518,1.4905,1.4154,1.2318,1.1058,1.0965,1.0288,0.9989,1.056,1.1146,1.1818,1.2383,1.3064,1.3736,1.4392,1.4386,1.4842,1.5671,0.0,0.0,0.0,1.6591,1.7008,1.7621,1.7023,1.6686,1.6577,1.6171,1.5921,1.608,1.8258,1.9998,2.139,2.2453,2.3163,2.3587,2.4002,2.3883,2.3464,2.2832,2.2008,2.1312,2.1886,2.1906,2.1588,2.1647,2.225,2.3008,2.3514,2.3628,2.3964,2.5434,2.6185,0.0,0.0,2.7617,2.8309,2.7626,2.8148,2.8627,2.8539,2.8214,2.8298,2.9324,2.7242,2.6019,2.778,2.6339,2.5097,2.4798,2.4618,2.4212,2.3643,2.4737,2.5709,2.6268,2.7382,2.8292,2.9026,2.9629,3.0498,3.1747,3.2214,3.2363,3.2316,3.2951,3.3342,3.3401,3.328,3.3452,3.3825,3.3761,3.3614,3.3383,3.3662,3.3686,3.3525,3.3525,3.2929,3.2076,3.2344,3.2591,3.2764,3.2439,3.2523,3.274,1.8071,1.8619,1.9072,1.8535,1.8311,1.8018,1.7584,1.6828,1.6156,1.5772,1.4321,1.3075,1.249,1.076,0.9505,0.9308,0.911,0.9015,0.9019,0.9221,0.9316,0.9008,0.9604,1.028,1.1021,1.1206,1.1773,1.2715,0.0,0.0,0.0,1.4423,1.514,1.6042,1.5,1.4848,1.513,1.4496,1.4092,1.4189,1.6936,1.9066,2.0559,2.1807,2.2345,2.256,2.334,2.3308,2.2463,2.0665,1.944,1.8729,1.9104,1.8653,1.805,1.8018,1.8403,1.8744,1.8833,1.8633,1.9153,2.2152,2.241,2.2466,0.0,0.0,0.0,2.4656,2.4888,2.5228,2.5827,2.5593,2.5686,2.6901,2.5374,2.4728,2.6676,2.4422,2.327,2.5265,2.3845,2.3218,2.4415,2.517,2.5951,2.6953,2.8172,2.9333,3.0397,3.1087,3.2013,3.3228,3.3478,3.3676,3.3867,3.4405,3.4731,3.4844,3.5215,3.5423,3.5429,3.5292,3.5019,3.4712,3.4678,3.4514,3.4192,3.4126,3.4068,3.3993,3.3583,3.3377,3.3388,3.324,3.3275,3.3346,1.7138,1.6943,1.6749,1.703,1.6546,1.6257,1.6539,1.617,1.5114,1.308,1.2598,1.1828,1.0186,0.8909,0.8219,0.8219,0.7329,0.6739,0.6756,0.7955,0.8134,0.6807,0.8616,0.9604,0.9367,0.9379,0.978,1.0378,1.028,0.0,0.0,1.0284,1.0373,1.0538,1.2004,1.24,1.2128,1.3564,1.4747,1.5734,1.6137,1.6453,1.6835,1.8852,2.0031,2.0655,2.17,2.2022,2.169,1.9936,1.8596,1.7568,1.6907,1.6804,1.696,1.7124,1.7691,1.8352,1.8573,1.8167,1.8117,1.9793,2.1238,2.2086,2.1643,0.0,2.4343,2.2515,0.0,2.5226,2.4117,0.0,0.0,2.5574,2.4016,2.3351,2.4881,2.3548,2.3622,2.6892,2.4158,2.29,2.5443,2.6753,2.7732,2.8279,2.9536,3.0437,3.0749,3.1285,3.2176,3.3535,3.4021,3.4695,3.5599,3.5695,3.596,3.6452,3.648,3.6596,3.67,3.6682,3.663,3.6577,3.6464,3.6367,3.6305,3.5943,3.5774,3.5498,3.4003,3.3697,3.4007,3.3435,3.3566,3.3844,1.5906,1.5812,1.5622,1.5805,1.5235,1.4752,1.4937,1.3968,1.2807,1.1745,1.0565,0.9596,0.9031,0.7842,0.7048,0.7048,0.6656,0.6361,0.6364,0.5842,0.5229,0.452,0.5422,0.5819,0.571,0.6933,0.765,0.7952,0.7819,0.7707,0.0,0.9004,1.0015,1.0721,1.1419,1.1793,1.2073,1.2725,1.3059,1.3238,1.3247,1.3738,1.4867,1.8052,1.9562,2.0061,2.0549,2.0675,2.0549,1.945,1.7519,1.5749,1.6942,1.584,1.4324,1.5346,1.5606,1.5716,1.6238,1.6286,1.6347,1.6835,1.7636,1.7882,1.6469,1.68,1.7288,1.6635,0.0,0.0,0.0,0.0,0.0,0.0,2.1134,2.0139,2.4114,2.1734,2.1202,2.5512,2.4374,2.4067,2.6045,2.6618,2.7112,2.7842,2.9477,3.0519,3.0689,3.162,3.2798,3.4068,3.4422,3.5036,3.6017,3.6099,3.638,3.6826,3.7058,3.7182,3.7244,3.7546,3.7494,3.7228,3.7198,3.7041,3.6808,3.6629,3.6394,3.6067,3.5266,3.4905,3.4769,3.4409,3.4442,3.4539,1.4484,1.4669,1.4765,1.4765,1.4094,1.3522,1.3221,1.1755,1.0681,1.0382,0.911,0.8137,0.7955,0.6653,0.5751,0.555,0.6065,0.6372,0.6372,0.4947,0.353,0.2418,0.1208,0.1107,0.2317,0.3831,0.4947,0.5557,0.5529,0.5819,0.0,0.8024,0.9236,1.0156,1.0263,1.0712,1.1453,1.1563,1.1635,1.1618,1.1601,1.2487,1.4268,1.7598,1.929,1.9879,1.9879,1.9879,1.9763,1.8861,1.6774,1.4914,1.6426,1.4885,1.29,1.4186,1.4237,1.4004,1.4448,1.445,1.4331,1.4248,1.4281,1.388,1.2427,1.2188,1.2156,1.2101,1.2215,0.0,0.0,0.0,1.4986,1.9747,0.0,1.7758,2.2019,1.9967,1.9795,2.4494,2.488,2.5051,2.5781,2.6581,2.7249,2.7751,2.9568,3.0689,3.0659,3.1769,3.2961,3.4281,3.4568,3.5183,3.6163,3.6355,3.6672,3.7081,3.7476,3.769,3.769,3.8047,3.8029,3.769,3.769,3.7546,3.7244,3.7136,3.6841,3.6446,3.6256,3.5824,3.5365,3.5185,3.4944,3.4605,1.2856,1.3431,1.3908,1.3908,1.3335,1.2462,1.1468,1.0391,0.9312,0.8219,0.834,0.8058,0.6662,0.524,0.4128,0.3324,0.5244,0.6372,0.639,0.629,0.4452,0.0303,-0.3841,-0.4144,-0.0,0.0201,0.1207,0.3324,0.3324,0.4336,0.0,0.6467,0.6553,0.6637,0.7659,0.8396,0.9107,1.0126,1.1262,1.2388,1.2382,1.3436,1.5206,1.7017,1.8646,1.9938,1.9938,1.9938,1.9641,1.7917,1.6669,1.5636,1.4469,1.3931,1.3787,1.4302,1.4396,1.4396,1.4409,1.33,1.2188,1.2516,1.1971,1.1288,1.0975,1.1849,1.2189,1.0689,1.1969,1.2841,1.1644,1.2793,1.3866,1.3652,1.5597,0.0,0.0,1.8584,2.0912,2.4995,2.5769,2.5407,2.4233,2.7313,2.9151,2.85,3.0277,3.1183,3.0792,3.1475,3.2453,3.3795,3.4479,3.5296,3.6265,3.6695,3.7099,3.7476,3.7941,3.8174,3.8174,3.8174,3.8174,3.8174,3.8174,3.8156,3.8119,3.7672,3.7262,3.6825,3.6446,3.6034,3.556,3.5217,3.4585,3.3742,1.1765,1.137,1.1268,1.195,1.1272,1.0592,1.0194,0.9209,0.8418,0.8021,0.7534,0.6439,0.4533,0.3828,0.4033,0.5258,0.3432,0.3332,0.6186,0.1109,-0.1412,-0.0101,-0.2724,-0.4241,-0.4244,-0.2821,-0.1107,0.1108,0.1107,0.1409,0.0,0.0,0.5039,0.6453,0.6751,0.7434,0.8463,0.9899,1.0982,1.1727,1.2204,1.2589,1.3124,1.632,1.7836,1.8253,1.8547,1.8449,1.8236,1.7853,1.6468,1.4918,1.5553,1.449,1.3175,1.4132,1.4075,1.388,1.4271,1.4443,1.3946,1.1849,1.1599,1.1041,0.7987,0.7682,0.7698,0.6874,0.6684,0.7104,0.8528,0.8189,0.8774,1.2475,1.27,1.3334,0.0,1.7167,1.8438,1.9869,2.1845,2.3183,2.3311,2.4877,2.6132,2.6749,2.8221,2.917,2.9398,3.0616,3.1819,3.3122,3.3892,3.4936,3.6282,3.6705,3.7091,3.7494,3.7959,3.8192,3.8192,3.8192,3.8192,3.8192,3.8192,3.8029,3.7708,3.7582,3.7117,3.6484,3.636,3.6,3.5481,3.5308,3.4731,3.3837,1.0583,0.9801,0.9406,1.0485,0.9698,0.9015,0.9015,0.812,0.7428,0.7428,0.6839,0.5844,0.4537,0.4338,0.4241,0.4145,0.3031,0.2829,0.4046,-0.1009,-0.3539,-0.2326,-0.2117,-0.343,-0.6292,-0.5054,-0.3632,-0.2322,-0.0705,-0.0,0.0,0.0,0.282,0.4131,0.5236,0.6345,0.7518,0.9264,1.0245,1.089,1.2008,1.2186,1.2199,1.5343,1.6539,1.6581,1.7154,1.7162,1.7082,1.7408,1.6393,1.5234,1.6371,1.5465,1.4185,1.4657,1.4469,1.4185,1.4372,1.4544,1.4183,1.1777,1.147,1.0778,0.7134,0.6348,0.6203,0.5506,0.4536,0.4628,0.7362,0.6492,0.6731,1.0992,1.0923,1.1565,0.0,1.5734,1.6312,1.6713,1.9619,2.1861,2.2412,2.4072,2.5352,2.588,2.7281,2.8261,2.8612,2.9834,3.1117,3.2428,3.3421,3.4499,3.574,3.6395,3.6869,3.728,3.7727,3.8047,3.8192,3.8192,3.8192,3.8192,3.8192,3.7923,3.7496,3.7523,3.7031,3.6292,3.6303,3.6,3.5543,3.5371,3.4635,3.3416,0.9509,0.8616,0.8219,0.9308,0.8616,0.7922,0.7922,0.7033,0.6437,0.6437,0.6353,0.6366,0.6374,0.6377,0.4647,0.0404,0.374,0.4349,0.0303,-0.0,-0.1819,-0.5891,-0.2322,-0.2018,-0.5992,-0.6181,-0.6282,-0.6404,-0.2322,-0.0202,0.0,0.0,-0.0,0.0101,0.3126,0.5037,0.6299,0.805,0.9243,1.0149,1.1727,1.2296,1.251,1.4317,1.4949,1.497,1.5809,1.6202,1.6377,1.6617,1.6492,1.6283,1.6565,1.6617,1.6422,1.5627,1.5431,1.5242,1.4657,1.3811,1.2964,1.2314,1.1499,1.0443,0.8384,0.7959,0.7805,0.691,0.5761,0.5664,0.802,0.7761,0.7604,0.8916,1.0293,1.195,1.4004,1.4298,1.4682,1.5635,1.9143,2.1369,2.1401,2.4615,2.6509,2.568,2.7358,2.837,2.8371,2.9281,3.0411,3.1713,3.3064,3.4084,3.479,3.574,3.6451,3.6874,3.7316,3.7708,3.8156,3.8174,3.8192,3.8192,3.8174,3.7905,3.7446,3.7443,3.6973,3.6265,3.6265,3.5983,3.5526,3.5268,3.4139,3.2479,0.8418,0.7524,0.6933,0.7129,0.7033,0.6833,0.6833,0.6534,0.6437,0.6437,0.6353,0.6366,0.6374,0.6382,0.4653,0.0404,0.101,0.1212,0.0101,-0.0,-0.0504,-0.1617,-0.2117,-0.2116,-0.1614,-0.3226,-0.4849,-0.6396,-0.5264,-0.3131,-0.0,0.0,-0.0,0.0202,0.3945,0.577,0.6229,0.7513,0.9178,1.0982,1.1446,1.1165,1.0712,1.2458,1.3162,1.3487,1.5708,1.6085,1.5507,1.5796,1.5354,1.4757,1.5322,1.5546,1.5529,1.5431,1.5431,1.534,1.5151,1.4956,1.4573,1.3901,1.3646,1.2991,1.1076,1.0669,1.0445,0.9377,0.8521,0.8067,0.8514,0.7967,0.7674,0.852,1.0096,1.195,1.4004,1.4298,1.4682,1.5635,1.7377,1.8394,1.8411,2.065,2.2061,2.2254,2.4495,2.5919,2.6215,2.8559,3.0291,3.1036,3.247,3.3725,3.4807,3.538,3.5956,3.6471,3.7166,3.7564,3.769,3.8047,3.8192,3.8174,3.7832,3.744,3.7052,3.6745,3.6265,3.5802,3.5802,3.5442,3.4858,3.4071,3.3406,3.2622,0.7428,0.6833,0.6437,0.6437,0.6437,0.6437,0.6437,0.6442,0.6448,0.6448,0.6361,0.6372,0.6382,0.6388,0.4655,0.0404,-0.0,-0.0,-0.0,-0.0,-0.0,-0.0,-0.111,-0.121,-0.0,-0.1209,-0.2421,-0.3639,-0.5471,-0.4248,-0.0,0.0,-0.0,0.0101,0.334,0.4859,0.502,0.7207,0.9148,1.0702,1.1165,1.0982,0.0,1.1916,1.2472,1.2759,1.4613,1.5177,1.5184,1.5426,1.505,1.4636,1.5311,1.5521,1.5529,1.5431,1.5431,1.5431,1.5431,1.5431,1.5333,1.4859,1.4825,1.4413,1.2575,1.2203,1.2008,1.1018,1.0122,0.9808,1.0891,0.9715,0.8777,0.9489,1.0877,1.2441,1.41,1.4298,1.4682,1.5635,1.67,1.7348,1.7348,1.9188,2.0792,2.1842,2.3771,2.4993,2.5323,2.8023,2.9614,2.9769,3.1637,3.3049,3.3778,3.4509,3.52,3.5966,3.64,3.6841,3.7244,3.7494,3.7636,3.7618,3.735,3.7006,3.6584,3.6131,3.5673,3.5217,3.4987,3.4678,3.43,3.3427,3.2892,3.2432,0.6634,0.6437,0.6437,0.6437,0.6437,0.6437,0.6437,0.645,0.6358,0.6358,0.6165,0.5969,0.5977,0.5775,0.4046,0.0303,-0.0,-0.0,-0.0,-0.0,-0.0,-0.0,-0.0,-0.0,-0.0,-0.0,-0.0,-0.0,-0.374,-0.3639,0.0,0.0,-0.0,0.0101,0.2224,0.3436,0.4109,0.7309,0.9234,1.0149,1.0982,1.1262,1.1354,1.2014,1.2296,1.2451,1.3037,1.3941,1.4901,1.512,1.5033,1.5026,1.5634,1.5893,1.5823,1.5529,1.5431,1.5431,1.5529,1.556,1.5591,1.5869,1.594,1.5521,1.4009,1.3682,1.3424,1.2723,1.186,1.1882,1.4122,1.2396,1.0891,1.1701,1.2619,1.359,1.4848,1.4879,1.5089,1.5953,1.6918,0.0,1.745,1.9327,2.1035,2.256,2.398,2.4836,2.4952,2.7573,2.8879,2.8436,3.0827,3.2191,3.2398,3.3339,3.428,3.5195,3.534,3.5801,3.6594,3.6683,3.6701,3.6701,3.6612,3.6426,3.6034,3.5459,3.498,3.4572,3.3988,3.3772,3.3696,3.2767,3.2278,3.1834,0.6634,0.6437,0.6437,0.6437,0.6437,0.6437,0.6437,0.6439,0.6442,0.6442,0.4834,0.3729,0.3731,0.222,0.0808,0.0101,-0.0,-0.0,-0.0,-0.0,-0.0,-0.0,-0.0,-0.0,-0.0,-0.0,-0.0,-0.0,-0.0707,-0.0707,-0.0,-0.0,-0.0,0.0101,0.2022,0.4758,0.7972,0.834,0.9506,1.1073,1.1257,1.1262,1.1354,1.1446,1.183,1.2388,1.2519,1.3093,1.3721,1.3781,1.371,1.3807,1.4475,1.4713,1.4761,1.5242,1.5431,1.5536,1.6308,1.6451,1.6814,1.8267,1.861,1.8529,1.8264,1.8127,1.789,1.7057,1.7004,1.6875,1.6238,1.5363,1.4857,1.5181,1.5347,1.6209,1.828,1.7702,1.7165,1.7355,1.8233,1.8676,1.8576,1.9619,2.0295,2.027,2.3085,2.454,2.3832,2.7182,2.9035,2.8677,3.0244,3.1353,3.194,3.2509,3.3081,3.3672,3.4459,3.4935,3.5121,3.5403,3.5566,3.5548,3.5206,3.505,3.4919,3.4058,3.3632,3.3524,3.2964,3.2752,3.2549,3.0722,3.0305,3.0545,0.6634,0.6437,0.6437,0.6437,0.6437,0.6437,0.6437,0.6437,0.6439,0.6448,0.5452,0.4038,0.1813,0.0605,-0.0,-0.0,-0.0,-0.0,-0.0,-0.0,-0.0,-0.0,-0.0,-0.0,-0.0,-0.0,-0.0,-0.0,-0.0,-0.0,-0.0,-0.0,-0.0,0.0101,0.2018,0.5072,0.8737,0.8663,0.9389,1.0611,1.1079,1.1262,1.1262,1.1262,1.1543,1.1824,1.1824,1.2301,1.2905,1.3297,1.3625,1.3998,1.4282,1.4664,1.4956,1.5333,1.5431,1.5529,1.5921,1.6013,1.6237,1.7096,1.7307,1.7392,1.7863,1.7933,1.7968,1.7978,1.8143,1.7913,1.673,1.6675,1.6791,1.6733,1.6922,1.7673,1.9244,1.8991,1.8629,1.8658,1.9486,2.0077,1.9928,2.0722,2.1024,2.0632,2.2706,2.376,2.3307,2.6566,2.8265,2.7939,2.9247,3.0287,3.1043,3.1486,3.1968,3.2514,3.2986,3.3349,3.3643,3.3822,3.3887,3.3871,3.3691,3.3627,3.3526,3.2814,3.2377,3.2078,3.1807,3.1705,3.1604,3.0406,2.9917,2.9729,0.6933,0.6534,0.6437,0.6437,0.6437,0.6437,0.6437,0.6437,0.6442,0.6356,0.6372,0.4954,0.1309,0.0403,-0.0,-0.0,-0.0,-0.0,-0.0,-0.0,-0.0,-0.0,-0.0,-0.0,-0.0,-0.0,-0.0,-0.0,-0.0,-0.0,-0.0,-0.0,0.0403,0.1305,0.28,0.5448,0.8766,0.8919,0.9469,1.024,1.0982,1.1262,1.1262,1.1262,1.1262,1.1262,1.1262,1.164,1.2261,1.2777,1.3536,1.4189,1.4393,1.4761,1.5235,1.534,1.5431,1.5506,1.5831,1.5963,1.5997,1.6413,1.6533,1.6677,1.7363,1.7505,1.77,1.8431,1.8522,1.829,1.726,1.7908,1.841,1.8057,1.8344,1.8991,2.0129,2.007,1.9837,1.9909,2.0755,2.1292,2.115,2.1765,2.2008,2.1667,2.26,2.3227,2.3178,2.579,2.7224,2.7024,2.8234,2.9205,2.9896,3.0253,3.0681,3.1249,3.1381,3.1558,3.1823,3.197,3.1955,3.1823,3.1807,3.1764,3.1629,3.1304,3.0913,3.0425,3.0383,3.0376,3.0355,3.0053,2.9504,2.8847,0.7822,0.703,0.6437,0.6437,0.6437,0.6437,0.6437,0.6437,0.6437,0.6439,0.6356,0.5754,0.4126,0.1611,-0.0,-0.0,-0.0,-0.0,-0.0,-0.0,-0.0,-0.0,-0.0,-0.0,-0.0,-0.0,-0.0,-0.0,-0.0,-0.0,-0.0,-0.0,0.1801,0.513,0.5366,0.6893,0.9426,0.9716,1.0361,1.117,1.1262,1.1262,1.1262,1.1262,1.1262,1.1262,1.1262,1.1354,1.1446,1.151,1.2353,1.363,1.4196,1.4469,1.4573,1.5235,1.5431,1.5748,1.7359,1.7743,1.8153,1.9681,2.0125,2.015,2.0216,2.0197,2.0226,2.0353,2.0372,2.0119,1.9275,2.0094,2.0731,2.0446,2.0381,2.102,2.2561,2.1788,2.113,2.1103,2.2054,2.2356,2.1489,2.203,2.2397,2.26,2.2736,2.3105,2.3749,2.5146,2.6049,2.6437,2.7274,2.7988,2.8629,2.8498,2.8768,2.9439,2.9941,2.9822,2.9279,2.9941,2.9913,2.9274,2.9268,2.8998,2.8635,2.905,2.8903,2.8475,2.8451,2.8465,2.8478,2.8319,2.8014,2.771,0.911,0.812,0.7329,0.7329,0.6833,0.6437,0.6437,0.6437,0.6437,0.6437,0.6353,0.6158,0.5648,0.4539,0.3327,0.2015,0.0706,-0.0,-0.0,-0.0,-0.0,-0.0,-0.0,-0.0,-0.0,-0.0,0.1212,0.3843,0.1212,0.1308,0.3801,0.3828,0.3901,0.4114,0.6018,0.7787,0.9527,0.9749,1.0428,1.1262,1.1262,1.1262,1.1262,1.1262,1.1262,1.1262,1.1262,1.1262,1.1262,1.1262,1.2204,1.3484,1.373,1.4372,1.5047,1.5333,1.5431,1.559,1.6229,1.6846,1.7374,1.806,1.8629,1.9163,1.9715,1.9854,1.9932,2.0489,2.1011,2.1211,2.0891,2.1359,2.1889,2.2352,2.2169,2.2527,2.4025,2.384,2.3673,2.3994,2.4092,2.3974,2.3622,2.368,2.3822,2.407,2.3577,2.3165,2.3041,2.4445,2.5336,2.5657,2.6458,2.7188,2.7904,2.7828,2.7934,2.817,2.841,2.8317,2.8063,2.789,2.7623,2.7372,2.7369,2.7244,2.7076,2.7259,2.7245,2.71,2.7621,2.7795,2.7767,2.7465,2.7268,2.7043,1.0194,0.9209,0.8418,0.8021,0.7329,0.6734,0.6437,0.6437,0.6437,0.6437,0.6448,0.6356,0.6356,0.6366,0.5758,0.4234,0.272,0.1612,0.1007,0.0303,-0.0,-0.0,0.1212,0.1919,0.1919,0.1312,0.2423,0.5464,0.303,0.3122,0.552,0.5996,0.5608,0.4416,0.7028,0.8663,0.9647,1.0071,1.0702,1.1262,1.1262,1.1262,1.1262,1.1262,1.1262,1.1262,1.1262,1.1262,1.1262,1.1262,1.2238,1.3363,1.3413,1.4018,1.4894,1.5249,1.5431,1.5431,1.5748,1.6221,1.6854,1.735,1.7917,1.8647,1.945,1.9696,1.9932,2.0789,2.1242,2.1538,2.1766,2.1891,2.2251,2.314,2.3091,2.3477,2.463,2.48,2.4999,2.552,2.5232,2.5041,2.5222,2.5068,2.4971,2.5059,2.419,2.3619,2.3406,2.4276,2.492,2.537,2.5883,2.6494,2.7289,2.7011,2.6929,2.718,2.718,2.7059,2.6856,2.5991,2.5627,2.5624,2.5424,2.5343,2.5335,2.5336,2.5338,2.5397,2.6198,2.6534,2.6521,2.6671,2.6676,2.6676,1.117,1.0293,0.9213,0.8219,0.8021,0.7627,0.6534,0.6437,0.6437,0.6437,0.6437,0.6437,0.6437,0.6353,0.6364,0.6364,0.6369,0.5457,0.3324,0.1209,-0.0,-0.0,0.4043,0.6287,0.6287,0.4239,0.3224,0.3224,0.5354,0.5302,0.3329,0.52,0.6608,0.7566,0.8939,0.9634,0.9951,1.0911,1.1262,1.1262,1.1262,1.1262,1.1262,1.1262,1.1262,1.1262,1.1262,1.1262,1.1262,1.1262,1.2202,1.3432,1.3432,1.3407,1.3652,1.4985,1.5431,1.559,1.646,1.6698,1.7107,1.8816,1.9301,1.9539,2.0411,2.0566,2.0789,2.1614,2.1165,2.0867,2.169,2.1809,2.1913,2.2312,2.3097,2.3731,2.412,2.421,2.4392,2.496,2.4999,2.5204,2.5828,2.5543,2.526,2.5338,2.4591,2.4692,2.5777,2.4917,2.4859,2.5877,2.5703,2.599,2.671,2.5764,2.5657,2.6374,2.6374,2.6015,2.5277,2.4472,2.4147,2.4123,2.3337,2.3068,2.3043,2.3032,2.3032,2.3106,2.3829,2.412,2.4337,2.5615,2.6264,2.6483,1.2268,1.1473,1.0583,1.0284,0.9008,0.7922,0.7528,0.6833,0.6437,0.6437,0.6437,0.6437,0.6437,0.6442,0.6445,0.6445,0.6358,0.606,0.5448,0.4742,0.3731,0.2216,0.353,0.4949,0.638,0.5763,0.5352,0.5347,0.6067,0.6006,0.5291,0.6628,0.7336,0.7444,0.9046,0.9842,0.9946,1.0911,1.1262,1.1262,1.1262,1.1262,1.1262,1.1262,1.1262,1.1262,1.1262,1.1635,1.2089,1.2083,1.2644,1.3484,1.3941,1.44,1.4894,1.5257,1.5431,1.5431,1.5748,1.6706,1.7755,1.8238,1.9283,2.0245,2.0566,2.0566,2.0634,2.0944,2.169,2.2317,2.2595,2.3472,2.4242,2.4363,2.4568,2.4915,2.5419,2.5535,2.5692,2.6272,2.6069,2.6225,2.6884,2.6892,2.6932,2.6912,2.67,2.608,2.4816,2.4615,2.4767,2.5099,2.556,2.5914,2.6177,2.5749,2.5596,2.5871,2.5147,2.4429,2.3694,2.3497,2.3337,2.3287,2.251,2.2187,2.2209,2.2209,2.2209,2.2285,2.3599,2.4108,2.4192,2.5075,2.5394,2.5407,1.2764,1.2262,1.1668,1.1272,1.0087,0.9106,0.8616,0.8021,0.7428,0.7033,0.7033,0.6833,0.6437,0.6437,0.6437,0.6437,0.6448,0.6353,0.6353,0.6364,0.5758,0.4435,0.4435,0.5044,0.6372,0.6364,0.6358,0.6353,0.6711,0.7015,0.7254,0.7861,0.8154,0.8341,0.9385,1.012,1.0472,1.1084,1.1262,1.1262,1.1262,1.1262,1.1262,1.1262,1.1451,1.1727,1.1635,1.2129,1.2772,1.2681,1.3121,1.386,1.4253,1.4873,1.5431,1.5347,1.5347,1.5347,1.5347,1.6386,1.7594,1.7917,1.9045,2.0177,2.0566,2.0566,2.0722,2.1011,2.1614,2.2166,2.2509,2.357,2.4422,2.442,2.4933,2.5431,2.5764,2.5788,2.6029,2.6565,2.6451,2.6578,2.7092,2.7341,2.7457,2.7653,2.7399,2.6729,2.5505,2.5314,2.53,2.5358,2.5828,2.5992,2.5865,2.5394,2.5111,2.5004,2.4143,2.3463,2.2957,2.266,2.2585,2.251,2.169,2.1308,2.1385,2.169,2.1832,2.1983,2.3526,2.4108,2.4192,2.4754,2.5064,2.5135,1.2856,1.2861,1.2462,1.1473,1.1268,1.0877,0.9899,0.9608,0.9213,0.8219,0.812,0.7726,0.6734,0.6634,0.6634,0.6634,0.6534,0.6437,0.6437,0.6353,0.6361,0.6361,0.6461,0.6461,0.6461,0.6545,0.6631,0.6623,0.7384,0.82,0.9051,0.8877,0.9153,0.9946,0.9946,1.0472,1.1262,1.1262,1.1262,1.1262,1.1354,1.1359,1.1359,1.1446,1.1824,1.2388,1.2175,1.265,1.3342,1.3156,1.3721,1.4483,1.4461,1.4915,1.5347,1.5173,1.5257,1.5347,1.5257,1.5974,1.7025,1.7836,1.8727,1.9618,2.0411,2.0566,2.0867,2.1614,2.1242,2.1021,2.1797,2.2637,2.315,2.3158,2.4348,2.5312,2.5312,2.5312,2.5481,2.6009,2.6272,2.6518,2.6674,2.6921,2.7173,2.7552,2.6989,2.6863,2.7471,2.6714,2.6339,2.6533,2.6339,2.6131,2.598,2.4933,2.4264,2.3891,2.3243,2.2957,2.2883,2.2059,2.1756,2.1766,2.0944,2.0566,2.0644,2.1385,2.169,2.1832,2.3379,2.3963,2.4047,2.455,2.5064,2.5465,1.3619,1.3147,1.2764,1.2462,1.1765,1.1072,1.0877,1.0096,0.9509,0.9209,0.9209,0.911,0.8913,0.8814,0.8814,0.8814,0.7329,0.6437,0.6437,0.6439,0.6442,0.6442,0.7138,0.7633,0.7633,0.8421,0.875,0.8519,0.8771,0.8792,0.877,0.9448,0.978,0.9946,1.0646,1.1084,1.1262,1.1262,1.1262,1.1354,1.1916,1.2112,1.2204,1.2677,1.2677,1.2457,1.2693,1.3033,1.3445,1.371,1.4441,1.5151,1.5166,1.5257,1.5431,1.5347,1.5347,1.5506,1.6139,1.7025,1.7917,1.8807,1.9608,2.0333,2.0566,2.0566,2.0867,2.1614,2.2134,2.2671,2.3448,2.418,2.4755,2.4791,2.5087,2.5312,2.5312,2.5431,2.561,2.5685,2.6029,2.6445,2.7009,2.7246,2.7611,2.8211,2.8118,2.7881,2.7512,2.7311,2.6973,2.6533,2.6465,2.6396,2.6396,2.5229,2.3829,2.2349,2.2134,2.2145,2.2317,2.1318,2.1328,2.1949,2.1021,2.0566,2.0644,2.0789,2.0867,2.1011,2.1983,2.2723,2.3327,2.3728,2.4334,2.4992,1.4453,1.3811,1.3335,1.3335,1.2554,1.1965,1.1965,1.1477,1.0886,1.0391,1.0293,1.0096,0.9608,0.9608,0.9608,0.9608,0.8517,0.7826,0.7826,0.7826,0.7826,0.7826,0.8418,0.8715,0.8715,0.9312,0.9714,0.9901,0.9729,0.9723,1.0064,1.0509,1.0582,1.0559,1.1089,1.1262,1.1262,1.1262,1.1262,1.1354,1.2106,1.2404,1.2468,1.313,1.3326,1.33,1.349,1.3824,1.4323,1.4538,1.4908,1.5431,1.5431,1.5431,1.5431,1.5431,1.5431,1.5506,1.6214,1.718,1.8318,1.9608,2.0245,2.0566,2.0566,2.0566,2.0867,2.1614,2.2134,2.2724,2.3477,2.4219,2.4731,2.4766,2.504,2.53,2.5441,2.5513,2.5608,2.57,2.6017,2.6357,2.671,2.7203,2.7615,2.8048,2.8039,2.7908,2.7538,2.7204,2.6905,2.6533,2.6533,2.6465,2.6339,2.4921,2.3452,2.2059,2.1624,2.1492,2.1655,2.1041,2.1051,2.1502,2.0964,2.0654,2.0644,2.1021,2.1395,2.1766,2.2574,2.3316,2.4059,2.4238,2.455,2.4921,1.5119,1.4512,1.4052,1.4088,1.3431,1.2953,1.2953,1.2856,1.2462,1.1565,1.1468,1.1077,1.0199,1.01,1.01,1.01,1.01,0.9903,0.9608,0.9608,0.9608,0.9608,0.9805,0.9801,0.9801,0.9972,1.0338,1.0966,1.051,1.0771,1.1639,1.1445,1.1262,1.1262,1.1435,1.1435,1.1435,1.1607,1.1607,1.1699,1.2382,1.2699,1.281,1.3445,1.3998,1.4379,1.4212,1.4622,1.5209,1.5075,1.5159,1.5347,1.5431,1.5431,1.5431,1.5506,1.559,1.5665,1.6206,1.7342,1.8718,2.0235,2.0566,2.0566,2.0566,2.0722,2.1021,2.1842,2.2059,2.2424,2.318,2.3829,2.4288,2.4296,2.4838,2.537,2.5569,2.563,2.5712,2.5906,2.6094,2.6245,2.6227,2.6921,2.7417,2.7484,2.7484,2.7484,2.7484,2.6973,2.6589,2.6533,2.6533,2.6327,2.598,2.4492,2.3305,2.2585,2.1711,2.1425,2.1568,2.1272,2.1128,2.1128,2.0984,2.0819,2.0722,2.1538,2.2209,2.2957,2.3672,2.448,2.5087,2.4957,2.504,2.5052,1.5562,1.4968,1.4584,1.4816,1.4286,1.3715,1.3715,1.3238,1.2759,1.2565,1.2565,1.2462,1.2365,1.2268,1.2268,1.2268,1.2268,1.158,0.9706,0.9608,0.9608,0.9608,1.0489,1.0974,1.0974,1.1596,1.1874,1.1531,1.1463,1.1414,1.1402,1.1283,1.1262,1.1348,1.194,1.2192,1.2283,1.2796,1.3052,1.3155,1.378,1.4104,1.4193,1.4817,1.4768,1.4393,1.4587,1.4496,1.435,1.4699,1.4894,1.5173,1.5347,1.5431,1.5506,1.6072,1.6386,1.6706,1.7504,1.8957,2.0245,2.0557,2.0566,2.0566,2.0566,2.1165,2.1832,2.266,2.3316,2.3963,2.4791,2.5016,2.5087,2.5111,2.5241,2.5382,2.5594,2.5721,2.5931,2.6119,2.6327,2.6452,2.644,2.6589,2.6905,2.7484,2.7484,2.7484,2.7484,2.7417,2.7095,2.6521,2.6533,2.6094,2.5158,2.4933,2.4264,2.3305,2.3158,2.3231,2.3379,2.2499,2.2295,2.236,2.1349,2.0984,2.1118,2.1756,2.2059,2.2317,2.3243,2.3891,2.4264,2.4264,2.4576,2.5052,1.5984,1.5493,1.5041,1.5332,1.4822,1.4306,1.4555,1.3908,1.3431,1.3431,1.305,1.2764,1.2764,1.2764,1.2764,1.2764,1.2764,1.2365,1.138,1.1282,1.1282,1.1282,1.177,1.2012,1.1889,1.2292,1.2451,1.2215,1.2522,1.2573,1.246,1.246,1.246,1.246,1.2796,1.2966,1.2966,1.3307,1.3398,1.3496,1.415,1.4419,1.4436,1.5118,1.5235,1.4956,1.5027,1.4922,1.4713,1.4977,1.5075,1.5173,1.5347,1.5431,1.559,1.6304,1.7188,1.8069,1.8567,1.9608,2.0566,2.0566,2.0944,2.1242,2.1242,2.1538,2.2134,2.3316,2.3537,2.3902,2.5087,2.5312,2.5312,2.5312,2.5312,2.5382,2.5688,2.5849,2.6045,2.6327,2.6465,2.6533,2.6533,2.7162,2.7417,2.6973,2.7604,2.7736,2.6973,2.6973,2.685,2.6533,2.6533,2.6314,2.5804,2.537,2.4933,2.448,2.3891,2.3745,2.3963,2.3379,2.3021,2.266,2.208,2.1645,2.1282,2.1918,2.2499,2.2957,2.3829,2.4492,2.5087,2.5087,2.5241,2.5477,1.6374,1.5898,1.5459,1.5763,1.5264,1.481,1.5194,1.4576,1.4124,1.4184,1.3721,1.3335,1.3335,1.3335,1.3335,1.3335,1.3335,1.3335,1.3335,1.3284,1.3064,1.2684,1.263,1.2579,1.2434,1.2586,1.2709,1.2826,1.3236,1.3398,1.3398,1.3398,1.3398,1.3398,1.3561,1.3646,1.3646,1.3822,1.3822,1.3906,1.4396,1.467,1.4663,1.5202,1.5431,1.5431,1.5347,1.5333,1.5401,1.5582,1.5499,1.5416,1.5665,1.5665,1.5906,1.678,1.8149,1.9441,1.9529,2.0089,2.0566,2.0566,2.1165,2.1832,2.1832,2.2059,2.2638,2.3891,2.3829,2.3913,2.5087,2.5312,2.5312,2.5312,2.5312,2.5465,2.5828,2.5931,2.6057,2.6452,2.6533,2.6533,2.6533,2.7537,2.7802,2.6589,2.7604,2.7736,2.6589,2.6533,2.6533,2.6533,2.6533,2.6533,2.6533,2.5886,2.5594,2.5594,2.4779,2.448,2.4624,2.4337,2.3829,2.3316,2.3021,2.251,2.1939,2.266,2.3316,2.3963,2.4779,2.5453,2.591,2.598,2.591,2.584,1.6483,1.6208,1.5951,1.6264,1.5679,1.5237,1.5633,1.5034,1.4665,1.5019,1.4956,1.4956,1.4956,1.4956,1.4956,1.4956,1.4956,1.4956,1.4956,1.4622,1.383,1.2536,1.2221,1.2348,1.2715,1.2668,1.2883,1.3338,1.3404,1.3398,1.3398,1.3398,1.3398,1.3398,1.4062,1.4314,1.4398,1.4999,1.5257,1.5264,1.5347,1.5354,1.5354,1.5347,1.5431,1.5347,1.5173,1.5636,1.6332,1.6296,1.6312,1.6312,1.6542,1.6617,1.678,1.7674,1.9116,2.0489,2.0489,2.0566,2.0566,2.0566,2.1165,2.1832,2.1832,2.2936,2.3963,2.4047,2.4636,2.5158,2.53,2.5312,2.5312,2.5312,2.5312,2.5465,2.5828,2.5898,2.6037,2.6465,2.6533,2.6533,2.6533,2.7162,2.7297,2.6521,2.7162,2.7297,2.6521,2.6533,2.6533,2.6533,2.6533,2.6533,2.6533,2.6452,2.6383,2.6383,2.6314,2.6302,2.6314,2.5523,2.5158,2.5087,2.412,2.3745,2.3891,2.4564,2.4862,2.5004,2.5955,2.6176,2.591,2.6131,2.6062,2.591,1.6255,1.595,1.5716,1.603,1.5821,1.5746,1.6045,1.5458,1.504,1.5153,1.4806,1.4438,1.4438,1.4438,1.4438,1.4438,1.4438,1.4438,1.4438,1.4337,1.4006,1.3463,1.3207,1.32,1.3354,1.362,1.3822,1.4062,1.4412,1.4664,1.4664,1.4664,1.4664,1.4664,1.4915,1.4999,1.4999,1.5257,1.5431,1.5431,1.5431,1.5725,1.6171,1.6186,1.6533,1.7025,1.696,1.7041,1.7245,1.735,1.7269,1.7269,1.7432,1.7513,1.7674,1.8567,1.9687,2.0566,2.0566,2.0566,2.0712,2.1242,2.1983,2.2649,2.3084,2.3672,2.4264,2.4707,2.4707,2.4707,2.5229,2.5312,2.5312,2.5312,2.5312,2.5465,2.5828,2.591,2.605,2.6465,2.6533,2.6533,2.6533,2.7095,2.7417,2.7162,2.7351,2.7417,2.7095,2.6714,2.6533,2.6533,2.6533,2.6533,2.6533,2.6533,2.6533,2.6533,2.6533,2.6533,2.6465,2.6176,2.5746,2.53,2.4933,2.4492,2.4192,2.4862,2.5158,2.53,2.6176,2.6452,2.6383,2.6396,2.6396,2.6383,1.6656,1.6087,1.5664,1.5723,1.576,1.587,1.6177,1.5775,1.545,1.5541,1.5102,1.484,1.484,1.484,1.484,1.484,1.484,1.484,1.484,1.4754,1.4441,1.3989,1.373,1.3665,1.3924,1.4247,1.4482,1.4741,1.5173,1.5431,1.5431,1.5431,1.5431,1.5431,1.5431,1.559,1.5824,1.5824,1.5989,1.6245,1.6262,1.6604,1.7119,1.7104,1.7456,1.8002,1.8037,1.8089,1.823,1.8318,1.8318,1.823,1.8318,1.8407,1.8567,1.945,2.0167,2.0566,2.0566,2.0566,2.0712,2.1318,2.2209,2.3095,2.361,2.412,2.4636,2.5158,2.4862,2.4636,2.5229,2.5312,2.5312,2.5312,2.5312,2.5382,2.5758,2.584,2.605,2.6396,2.6465,2.6589,2.6782,2.7417,2.7802,2.7802,2.7802,2.7604,2.7229,2.6782,2.6533,2.6533,2.6533,2.6533,2.6533,2.6533,2.6533,2.6533,2.6533,2.6533,2.6533,2.6533,2.6176,2.5676,2.5676,2.537,2.4921,2.5441,2.5676,2.5734,2.6314,2.6589,2.6726,2.6671,2.6739,2.6726,1.7772,1.6812,1.5922,1.5514,1.5431,1.554,1.5862,1.5913,1.6023,1.6323,1.636,1.636,1.636,1.636,1.636,1.636,1.636,1.636,1.636,1.6082,1.521,1.3792,1.3538,1.373,1.4391,1.4398,1.4741,1.5431,1.5431,1.5431,1.5431,1.5431,1.5431,1.5431,1.5431,1.5906,1.6698,1.6698,1.718,1.8031,1.8036,1.8012,1.802,1.7987,1.8038,1.8004,1.8037,1.8567,1.9301,1.9301,1.9301,1.9301,1.9301,1.9301,1.946,2.0333,2.0566,2.0566,2.0566,2.0566,2.0566,2.0644,2.1832,2.3032,2.3032,2.4204,2.5312,2.5312,2.5312,2.5312,2.5312,2.5312,2.5312,2.5312,2.5312,2.5382,2.5535,2.5758,2.598,2.6213,2.6396,2.6782,2.7417,2.8117,2.8492,2.8492,2.8492,2.792,2.6589,2.6533,2.6533,2.6533,2.6533,2.6533,2.6533,2.6533,2.6533,2.6533,2.6533,2.6533,2.6533,2.6533,2.6533,2.6533,2.6533,2.6533,2.6533,2.6533,2.6533,2.6533,2.6658,2.6714,2.6726,2.6943,2.7024,2.7024,1.8868,1.7925,1.7041,1.6617,1.6147,1.5793,1.5555,1.5577,1.5606,1.5701,1.5709,1.5709,1.5709,1.5709,1.5709,1.5709,1.5709,1.5709,1.5709,1.5621,1.5639,1.5762,1.5202,1.4915,1.5082,1.5082,1.5492,1.6304,1.6304,1.6624,1.7196,1.7196,1.7196,1.7196,1.7196,1.7359,1.7594,1.7594,1.7755,1.8006,1.8027,1.8383,1.8931,1.8943,1.9319,1.9849,1.9797,2.0001,2.0245,2.0245,2.0245,2.0245,2.0245,2.0245,2.0245,2.0489,2.0566,2.0566,2.0566,2.0566,2.0722,2.1308,2.2209,2.3169,2.3672,2.4564,2.5312,2.5312,2.5312,2.5312,2.5312,2.5312,2.5312,2.5312,2.5312,2.5382,2.5535,2.5758,2.598,2.6213,2.6396,2.6589,2.6782,2.6973,2.7284,2.7736,2.7802,2.7417,2.6521,2.6533,2.6533,2.6533,2.6533,2.6533,2.6533,2.6533,2.6533,2.6533,2.6533,2.6533,2.6533,2.6533,2.6533,2.6533,2.6533,2.6533,2.6533,2.6589,2.6658,2.6658,2.6875,2.7011,2.7134,2.7011,2.7079,2.7214,1.965,1.8877,1.8078,1.7568,1.6862,1.6229,1.5989,1.5582,1.5431,1.5431,1.5431,1.5431,1.5431,1.5431,1.5431,1.5431,1.5748,1.6072,1.6394,1.6394,1.6632,1.7188,1.6706,1.6394,1.6394,1.6394,1.6714,1.718,1.718,1.7513,1.7997,1.7997,1.7997,1.7997,1.7997,1.8158,1.8487,1.8487,1.8727,1.9045,1.9045,1.9347,1.9827,1.9837,2.0139,2.0566,2.0566,2.0566,2.0566,2.0566,2.0566,2.0566,2.0566,2.0566,2.0566,2.0566,2.0566,2.0566,2.0566,2.0566,2.0712,2.1165,2.1907,2.2649,2.3084,2.4047,2.4862,2.4862,2.5087,2.5312,2.5312,2.5312,2.5312,2.5312,2.5312,2.5312,2.5453,2.5676,2.584,2.598,2.6188,2.6465,2.6782,2.685,2.704,2.7484,2.7484,2.7229,2.6521,2.6533,2.6533,2.6533,2.6533,2.6533,2.6533,2.6533,2.6533,2.6533,2.6533,2.6533,2.6533,2.6533,2.6533,2.6533,2.6533,2.6533,2.6533,2.6658,2.6714,2.6726,2.6998,2.7214,2.7268,2.7214,2.7268,2.7335,2.044,1.9737,1.9036,1.8541,1.7577,1.6862,1.6862,1.6147,1.5673,1.5673,1.5673,1.5673,1.5673,1.5673,1.5673,1.5673,1.6386,1.718,1.7917,1.7997,1.7997,1.8078,1.8078,1.8158,1.8238,1.8078,1.8078,1.8078,1.8078,1.8158,1.8238,1.8238,1.8238,1.8238,1.8238,1.8647,1.9381,1.9381,1.9854,2.0566,2.0566,2.0566,2.0566,2.0566,2.0566,2.0566,2.0566,2.0566,2.0566,2.0566,2.0566,2.0566,2.0566,2.0566,2.0566,2.0566,2.0566,2.0566,2.0566,2.0566,2.0566,2.0566,2.1165,2.169,2.1756,2.301,2.4108,2.4108,2.4707,2.5312,2.5312,2.5312,2.5312,2.5312,2.5312,2.5312,2.5312,2.5453,2.5606,2.5606,2.598,2.6465,2.704,2.7284,2.7417,2.7417,2.7417,2.7162,2.6521,2.6533,2.6533,2.6533,2.6533,2.6533,2.6533,2.6533,2.6533,2.6533,2.6533,2.6533,2.6533,2.6533,2.6533,2.6533,2.6533,2.6533,2.6521,2.6658,2.6726,2.6782,2.7201,2.7335,2.7335,2.7469,2.7523,2.7523,2.1482,2.0934,2.0304,1.9659,1.8948,1.8318,1.7836,1.7594,1.744,1.744,1.744,1.744,1.744,1.744,1.744,1.744,1.7594,1.7836,1.7997,1.7997,1.8318,1.8975,1.9054,1.9371,2.0001,1.8718,1.8327,1.9054,1.9054,1.9371,2.0001,2.0001,2.0001,2.0001,2.0001,2.0157,2.0323,2.0323,2.0411,2.0566,2.0566,2.0566,2.0566,2.0566,2.0566,2.0566,2.0566,2.0566,2.0566,2.0566,2.0566,2.0566,2.0566,2.0566,2.0566,2.0566,2.0566,2.0566,2.0566,2.0566,2.0566,2.0566,2.0712,2.1021,2.169,2.301,2.4108,2.4108,2.4707,2.5312,2.5312,2.5312,2.5312,2.5312,2.5312,2.5312,2.5312,2.5453,2.5606,2.5606,2.598,2.627,2.6396,2.6589,2.6714,2.6714,2.6714,2.6658,2.6533,2.6533,2.6533,2.6533,2.6533,2.6533,2.6533,2.6533,2.6533,2.6533,2.6533,2.6533,2.6533,2.6533,2.6533,2.6533,2.6533,2.6589,2.6658,2.6875,2.7011,2.7201,2.7403,2.7469,2.7469,2.7456,2.7523,2.7523,2.1807,2.1415,2.0954,2.0547,1.9766,1.9045,1.8647,1.8247,1.7997,1.7997,1.7997,1.7997,1.7997,1.7997,1.8158,1.8567,1.8647,1.8807,1.9195,1.9283,1.9441,1.9932,1.9932,2.0167,2.0566,1.9687,1.9441,1.9932,1.9932,2.0167,2.0566,2.0566,2.0566,2.0566,2.0566,2.0566,2.0566,2.0566,2.0566,2.0566,2.0566,2.0566,2.0566,2.0566,2.0566,2.0566,2.0566,2.0566,2.0566,2.0566,2.0566,2.0566,2.0566,2.0566,2.0566,2.0566,2.0566,2.0566,2.0566,2.0566,2.0566,2.0566,2.0566,2.0722,2.1165,2.2424,2.361,2.361,2.4492,2.5312,2.5312,2.5016,2.4862,2.5229,2.5004,2.4862,2.5241,2.5382,2.5465,2.5465,2.5758,2.598,2.6201,2.627,2.6396,2.6465,2.6533,2.6533,2.6533,2.6533,2.6533,2.6533,2.6533,2.6533,2.6533,2.6533,2.6533,2.6533,2.6533,2.6533,2.6533,2.6533,2.6533,2.6533,2.6533,2.6589,2.6726,2.6943,2.7146,2.7335,2.7469,2.7523,2.7523,2.7523,2.7523,2.7536,2.1807,2.1502,2.1282,2.1205,2.0333,1.9618,1.9539,1.8886,1.8479,1.8479,1.8479,1.8479,1.8479,1.8479,1.8727,1.946,1.9539,1.9854,2.0566,2.0566,2.0566,2.0566,2.0566,2.0566,2.0566,2.0566,2.0566,2.0566,2.0566,2.0566,2.0566,2.0566,2.0566,2.0566,2.0566,2.0566,2.0566,2.0566,2.0566,2.0566,2.0566,2.0566,2.0566,2.0566,2.0566,2.0566,2.0566,2.0566,2.0566,2.0566,2.0566,2.0566,2.0566,2.0566,2.0566,2.0566,2.0566,2.0566,2.0566,2.0566,2.0644,2.0789,2.0789,2.0789,2.0789,2.1842,2.2809,2.2957,2.3986,2.4945,2.5087,2.442,2.412,2.4791,2.442,2.4337,2.5004,2.5229,2.5312,2.5312,2.5465,2.5758,2.6131,2.6213,2.627,2.6465,2.6533,2.6533,2.6533,2.6533,2.6533,2.6533,2.6533,2.6589,2.6658,2.6589,2.6589,2.6658,2.6521,2.6533,2.6533,2.6533,2.6533,2.6533,2.6533,2.6589,2.6794,2.6943,2.7146,2.7335,2.7469,2.7523,2.7523,2.7523,2.7523,2.7536,2.1807,2.1731,2.1578,2.1282,2.1051,2.0809,2.0489,2.0323,2.0245,2.0245,2.0245,2.0245,2.0245,2.0245,2.0323,2.0401,2.0401,2.0489,2.0566,2.0566,2.0566,2.0566,2.0566,2.0566,2.0566,2.0566,2.0566,2.0566,2.0566,2.0566,2.0566,2.0566,2.0566,2.0566,2.0566,2.0566,2.0566,2.0566,2.0566,2.0566,2.0566,2.0566,2.0566,2.0566,2.0566,2.0566,2.0566,2.0566,2.0566,2.0566,2.0566,2.0566,2.0566,2.0566,2.0566,2.0566,2.0566,2.0566,2.0566,2.0566,2.0789,2.1461,2.1614,2.1614,2.1614,2.1842,2.2134,2.2883,2.318,2.3537,2.412,2.3683,2.3169,2.3327,2.3756,2.4108,2.4264,2.4862,2.5312,2.5312,2.5465,2.5758,2.6131,2.6213,2.627,2.6465,2.6533,2.6533,2.6533,2.6533,2.6533,2.6533,2.6533,2.6782,2.7351,2.6782,2.6782,2.7351,2.6782,2.6533,2.6533,2.6533,2.6533,2.6533,2.6533,2.6671,2.6943,2.7024,2.7214,2.7469,2.7456,2.7523,2.7523,2.7523,2.7523,2.7536,2.1655,2.1655,2.1512,2.1128,2.1061,2.0896,2.0644,2.0566,2.0566,2.0566,2.0566,2.0566,2.0566,2.0566,2.0566,2.0566,2.0566,2.0566,2.0566,2.0566,2.0566,2.0566,2.0566,2.0566,2.0566,2.0566,2.0789,2.1242,2.0789,2.0566,2.0566,2.0566,2.0566,2.0566,2.0566,2.0566,2.0566,2.0566,2.0566,2.0566,2.0566,2.0566,2.0566,2.0566,2.0566,2.0566,2.0566,2.0867,2.1242,2.1242,2.1242,2.1308,2.1832,2.1318,2.0722,2.1165,2.0944,2.0566,2.0566,2.0566,2.0722,2.1011,2.1461,2.169,2.1242,2.1461,2.1907,2.2285,2.266,2.3106,2.3463,2.2872,2.251,2.2957,2.3243,2.361,2.4036,2.4791,2.5312,2.5312,2.5382,2.5535,2.5828,2.5828,2.598,2.6339,2.6339,2.6396,2.6465,2.6533,2.6658,2.704,2.704,2.7351,2.8051,2.7802,2.7604,2.7484,2.7604,2.7229,2.6533,2.6533,2.6533,2.6533,2.6533,2.6671,2.7024,2.7024,2.7214,2.7523,2.7523,2.7523,2.7523,2.7523,2.7669,2.7868]},{"header":{"parameterUnit":"m.s-1","parameterCategory":1,"la1":30.6,"la2":28.766,"lo1":-90.7593,"lo2":-88.6598,"dy":0.0162,"dx":0.0183,"nx":116,"ny":114,"refTime":"2023-08-24T00:00:00:Z","depth":0,"parameterNumber":3,"parameterNumberName":"V-component_of_WINDS"},"data":[0.0,0.0,0.0,0.0,0.0,0.0,0.0,0.0,0.0,0.0,0.0,0.0,0.0,0.0,0.0,0.0,0.0,0.0,0.0,0.0,0.0,0.0,0.0,0.0,0.0,0.0,0.0,0.0,0.0,0.0,0.0,0.0,0.0,0.0,0.0,0.0,0.0,0.0,0.0,0.0,0.0,0.0,0.0,0.0,0.0,0.0,0.0,0.0,0.0,0.0,0.0,0.0,0.0,0.0,0.0,0.0,0.0,0.0,0.0,0.0,0.0,0.0,0.0,0.0,0.0,0.0,0.0,0.0,0.0,0.0,0.0,0.0,0.0,0.0,0.0,0.0,0.0,0.0,0.0,0.0,0.0,0.0,0.0,0.0,0.0,0.0,0.0,0.0,0.0,0.0,0.0,0.0,0.0,0.0,0.0,0.0,0.0,0.0,0.0,0.0,0.0,0.0,0.0,0.0,0.0,0.0,0.0,0.0,0.0,0.0,0.0,0.0,0.0,0.0,0.0,0.0,0.0,0.0,0.0,0.0,0.0,0.0,0.0,0.0,0.0,0.0,0.0,0.0,0.0,0.0,0.0,0.0,0.0,0.0,0.0,0.0,0.0,0.0,0.0,0.0,0.0,0.0,0.0,0.0,0.0,0.0,0.0,0.0,0.0,0.0,0.0,0.0,0.0,0.0,0.0,0.0,0.0,0.0,0.0,0.0,0.0,0.0,0.0,0.0,0.0,0.0,0.0,0.0,0.0,0.0,0.0,0.0,0.0,0.0,0.0,0.0,0.0,0.0,0.0,0.0,0.0,0.0,0.0,0.0,0.0,0.0,0.0,0.0,0.0,0.0,0.0,0.0,0.0,0.0,0.0,0.0,0.0,0.0,0.0,0.0,0.0,0.0,0.0,0.0,0.0,0.0,0.0,0.0,0.0,0.0,0.0,0.0,0.0,0.0,0.0,0.0,0.0,0.0,0.0,0.0,0.0,0.0,0.0,0.0,0.0,0.0,0.0,0.0,0.0,0.0,0.0,0.0,0.0,0.0,0.0,0.0,0.0,0.0,0.0,0.0,0.0,0.0,0.0,0.0,0.0,0.0,0.0,0.0,0.0,0.0,0.0,0.0,0.0,0.0,0.0,0.0,0.0,0.0,0.0,0.0,0.0,0.0,0.0,0.0,0.0,0.0,0.0,0.0,0.0,0.0,0.0,0.0,0.0,0.0,0.0,0.0,0.0,0.0,0.0,0.0,0.0,0.0,0.0,0.0,0.0,0.0,0.0,0.0,0.0,0.0,0.0,0.0,0.0,0.0,0.0,0.0,0.0,0.0,0.0,0.0,0.0,0.0,0.0,0.0,0.0,0.0,0.0,0.0,0.0,0.0,0.0,0.0,0.0,0.0,0.0,0.0,0.0,0.0,0.0,0.0,0.0,0.0,0.0,0.0,0.0,0.0,0.0,0.0,0.0,0.0,0.0,0.0,0.0,0.0,0.0,0.0,0.0,0.0,0.0,0.0,0.0,0.0,0.0,0.0,0.0,0.0,0.0,0.0,0.0,0.0,0.0,0.0,0.0,0.0,0.0,0.0,0.0,0.0,0.0,0.0,0.0,0.0,0.0,0.0,0.0,0.0,0.0,0.0,0.0,0.0,0.0,0.0,0.0,0.0,0.0,0.0,0.0,0.0,0.0,0.0,0.0,0.0,0.0,0.0,0.0,0.0,0.0,0.0,0.0,0.0,0.0,0.0,0.0,0.0,0.0,0.0,0.0,0.0,0.0,0.0,0.0,0.0,0.0,0.0,0.0,0.0,0.0,0.0,0.0,0.0,0.0,0.0,0.0,0.0,0.0,0.0,0.0,0.0,0.0,0.0,0.0,0.0,0.0,0.0,0.0,0.0,0.0,0.0,0.0,0.0,0.0,0.0,0.0,0.0,0.0,0.0,0.0,0.0,0.0,0.0,0.0,0.0,0.0,0.0,0.0,0.0,0.0,0.0,0.0,0.0,0.0,0.0,0.0,0.0,0.0,0.0,0.0,0.0,0.0,0.0,0.0,0.0,0.0,0.0,0.0,0.0,0.0,0.0,0.0,0.0,0.0,0.0,0.0,0.0,0.0,0.0,0.0,0.0,0.0,0.0,0.0,0.0,0.0,0.0,0.0,0.0,0.0,0.0,0.0,0.0,0.0,0.0,0.0,0.0,0.0,0.0,0.0,0.0,0.0,0.0,0.0,0.0,0.0,0.0,0.0,0.0,0.0,0.0,0.0,0.0,0.0,0.0,0.0,0.0,0.0,0.0,0.0,0.0,0.0,0.0,0.0,0.0,0.0,0.0,0.0,0.0,0.0,0.0,0.0,0.0,0.0,0.0,0.0,0.0,0.0,0.0,0.0,0.0,0.0,0.0,0.0,0.0,0.0,0.0,0.0,0.0,0.0,0.0,0.0,0.0,0.0,0.0,0.0,0.0,0.0,0.0,0.0,0.0,0.0,0.0,0.0,0.0,0.0,0.0,0.0,0.0,0.0,0.0,0.0,0.0,0.0,0.0,0.0,0.0,0.0,0.0,0.0,0.0,0.0,0.0,0.0,0.0,0.0,0.0,0.0,0.0,0.0,0.0,0.0,0.0,0.0,0.0,0.0,0.0,0.0,0.0,0.0,0.0,0.0,0.0,0.0,0.0,0.0,0.0,0.0,0.0,0.0,0.0,0.0,0.0,0.0,0.0,0.0,0.0,0.0,0.0,0.0,0.0,0.0,0.0,0.0,0.0,0.0,0.0,0.0,0.0,0.0,0.0,0.0,0.0,0.0,0.0,0.0,0.0,0.0,0.0,0.0,0.0,0.0,0.0,0.0,0.0,0.0,0.0,0.0,0.0,0.0,0.0,0.0,0.0,0.0,0.0,0.0,0.0,0.0,0.0,0.0,0.0,0.0,0.0,0.0,0.0,0.0,0.0,0.0,0.0,0.0,0.0,0.0,0.0,0.0,0.0,0.0,0.0,0.0,0.0,0.0,0.0,0.0,0.0,0.0,0.0,0.0,0.0,0.0,0.0,0.0,0.0,0.0,0.0,0.0,0.0,0.0,0.0,0.0,0.0,0.0,0.0,0.0,0.0,0.0,0.0,0.0,0.0,0.0,0.0,0.0,0.0,0.0,0.0,0.0,0.0,0.0,0.0,0.0,0.0,0.0,0.0,0.0,0.0,0.0,0.0,0.0,0.0,0.0,0.0,0.0,0.0,0.0,0.0,0.0,0.0,0.0,0.0,0.0,0.0,0.0,0.0,0.0,0.0,0.0,0.0,0.0,0.0,0.0,0.0,0.0,0.0,0.0,0.0,0.0,0.0,0.0,0.0,0.0,0.0,0.0,0.0,0.0,0.0,0.0,0.0,0.0,0.0,0.0,0.0,0.0,0.0,0.0,0.0,0.0,0.0,0.0,0.0,0.0,0.0,0.0,0.0,0.0,0.0,0.0,0.0,0.0,0.0,0.0,0.0,0.0,0.0,0.0,0.0,0.0,0.0,0.0,0.0,0.0,0.0,0.0,0.0,0.0,0.0,0.0,0.0,0.0,0.0,0.0,0.0,0.0,0.0,0.0,0.0,0.0,0.0,0.0,0.0,0.0,0.0,0.0,0.0,0.0,0.0,0.0,0.0,0.0,0.0,0.0,0.0,0.0,0.0,0.0,0.0,0.0,0.0,0.0,0.0,0.0,0.0,0.0,0.0,0.0,0.0,0.0,0.0,0.0,0.0,0.0,0.0,0.0,0.0,0.0,0.0,0.0,0.0,0.0,0.0,0.0,0.0,0.0,0.0,0.0,0.0,0.0,0.0,0.0,0.0,0.0,0.0,0.0,0.0,0.0,0.0,0.0,0.0,0.0,0.0,0.0,0.0,0.0,0.0,0.0,0.0,0.0,0.0,0.0,0.0,0.0,0.0,0.0,0.0,0.0,0.0,0.0,0.0,0.0,0.0,0.0,0.0,0.0,0.0,0.0,0.0,0.0,0.0,0.0,0.0,0.0,0.0,0.0,0.0,0.0,0.0,0.0,0.0,0.0,0.0,0.0,0.0,0.0,0.0,0.0,0.0,0.0,0.0,0.0,0.0,0.0,0.0,0.0,0.0,0.0,0.0,0.0,0.0,0.0,0.0,0.0,0.0,0.0,0.0,0.0,0.0,0.0,0.0,0.0,0.0,0.0,0.0,0.0,0.0,0.0,0.0,0.0,0.0,0.0,0.0,0.0,0.0,0.0,0.0,0.0,0.0,0.0,0.0,0.0,0.0,0.0,0.0,0.0,0.0,0.0,0.0,0.0,0.0,0.0,0.0,0.0,0.0,0.0,0.0,0.0,0.0,0.0,0.0,0.0,0.0,0.0,0.0,0.0,0.0,0.0,0.0,0.0,0.0,0.0,0.0,0.0,0.0,0.0,0.0,0.0,0.0,0.0,0.0,0.0,0.0,0.0,0.0,0.0,0.0,0.0,0.0,0.0,0.0,0.0,0.0,0.0,0.0,0.0,0.0,0.0,0.0,0.0,0.0,0.0,0.0,0.0,0.0,0.0,0.0,0.0,0.0,0.0,0.0,0.0,0.0,0.0,0.0,0.0,0.0,0.0,0.0,0.0,0.0,0.0,0.0,0.0,0.0,0.0,0.0,0.0,0.0,0.0,0.0,0.0,0.0,0.0,0.0,0.0,0.0,0.0,0.0,0.0,0.0,0.0,0.0,0.0,0.0,0.0,0.0,0.0,0.0,0.0,0.0,0.0,0.0,0.0,0.0,0.0,0.0,0.0,0.0,0.0,0.0,0.0,0.0,0.0,0.0,0.0,0.0,0.0,0.0,0.0,0.0,0.0,0.0,0.0,0.0,0.0,0.0,0.0,0.0,0.0,0.0,0.0,0.0,0.0,0.0,0.0,0.0,0.0,0.0,0.0,0.0,0.0,0.0,0.0,0.0,0.0,0.0,0.0,0.0,0.0,0.0,0.0,0.0,0.0,0.0,0.0,0.0,0.0,0.0,0.0,0.0,0.0,0.0,0.0,0.0,0.0,0.0,0.0,0.0,0.0,0.0,0.0,0.0,0.0,0.0,0.0,0.0,0.0,0.0,0.0,0.0,0.0,0.0,0.0,0.0,0.0,0.0,0.0,0.0,0.0,0.0,0.0,0.0,0.0,0.0,0.0,0.0,0.0,0.0,0.0,0.0,0.0,0.0,0.0,0.0,0.0,0.0,0.0,0.0,0.0,0.0,0.0,0.0,0.0,0.0,0.0,0.0,0.0,0.0,0.0,0.0,0.0,0.0,0.0,0.0,0.0,0.0,0.0,0.0,0.0,0.0,0.0,0.0,0.0,0.0,0.0,0.0,0.0,0.0,0.0,0.0,0.0,0.0,0.0,0.0,0.0,0.0,0.0,0.0,0.0,0.0,0.0,0.0,0.0,0.0,0.0,0.0,0.0,0.0,0.0,0.0,0.0,0.0,0.0,0.0,0.0,0.0,0.0,0.0,0.0,0.0,0.0,0.0,0.0,0.0,0.0,0.0,0.0,0.0,0.0,0.0,0.0,0.0,0.0,0.0,0.0,0.0,0.0,0.0,0.0,0.0,0.0,0.0,0.0,0.0,0.0,0.0,0.0,0.0,0.0,0.0,0.0,0.0,0.0,0.0,0.0,0.0,0.0,0.0,0.0,0.0,0.0,0.0,0.0,0.0,0.0,0.0,0.0,0.0,0.0,0.0,0.0,0.0,0.0,0.0,0.0,0.0,0.0,0.0,0.0,0.0,0.0,0.0,0.0,0.0,0.0,0.0,0.0,0.0,0.0,0.0,0.0,0.0,0.0,0.0,0.0,0.0,0.0,0.0,0.0,0.0,0.0,0.0,0.0,0.0,0.0,0.0,0.0,0.0,0.0,0.0,0.0,0.0,0.0,0.0,0.0,0.0,0.0,0.0,0.0,0.0,0.0,0.0,0.0,0.0,0.0,0.0,0.0,0.0,0.0,0.0,0.0,0.0,0.0,0.0,0.0,0.0,0.0,0.0,0.0,0.0,0.0,0.0,0.0,0.0,0.0,0.0,0.0,0.0,0.0,0.0,0.0,0.0,0.0,0.0,0.0,0.0,0.0,0.0,-4.1984,-4.1831,0.0,0.0,0.0,0.0,0.0,0.0,0.0,0.0,0.0,0.0,0.0,0.0,0.0,0.0,0.0,0.0,0.0,0.0,0.0,0.0,0.0,0.0,0.0,0.0,0.0,0.0,0.0,0.0,0.0,0.0,0.0,0.0,0.0,0.0,0.0,0.0,0.0,0.0,0.0,0.0,0.0,0.0,0.0,0.0,0.0,0.0,0.0,0.0,0.0,0.0,0.0,0.0,0.0,0.0,0.0,0.0,0.0,0.0,0.0,0.0,0.0,0.0,0.0,0.0,0.0,0.0,0.0,0.0,0.0,0.0,0.0,0.0,0.0,0.0,0.0,0.0,0.0,0.0,0.0,0.0,0.0,0.0,0.0,0.0,0.0,0.0,0.0,0.0,0.0,0.0,0.0,0.0,0.0,0.0,0.0,0.0,0.0,0.0,0.0,0.0,0.0,0.0,0.0,0.0,0.0,0.0,0.0,0.0,0.0,0.0,0.0,0.0,0.0,0.0,-4.1613,-4.1453,0.0,0.0,0.0,0.0,0.0,0.0,0.0,0.0,0.0,0.0,0.0,0.0,0.0,0.0,0.0,0.0,0.0,0.0,0.0,0.0,0.0,0.0,0.0,0.0,0.0,0.0,0.0,0.0,0.0,0.0,0.0,0.0,0.0,0.0,0.0,0.0,0.0,0.0,0.0,0.0,0.0,0.0,0.0,0.0,0.0,0.0,0.0,0.0,0.0,0.0,0.0,0.0,0.0,0.0,0.0,0.0,0.0,0.0,0.0,0.0,0.0,0.0,0.0,0.0,0.0,0.0,0.0,0.0,0.0,0.0,0.0,0.0,0.0,0.0,0.0,0.0,0.0,0.0,0.0,0.0,0.0,0.0,0.0,0.0,0.0,0.0,0.0,0.0,0.0,0.0,0.0,0.0,0.0,0.0,0.0,0.0,0.0,0.0,0.0,0.0,0.0,0.0,0.0,0.0,0.0,0.0,0.0,0.0,-4.3304,-4.2995,-4.2351,-4.2396,-4.211,-4.1604,-4.1272,-4.1041,-4.0888,-4.0453,0.0,0.0,0.0,0.0,0.0,0.0,0.0,0.0,0.0,0.0,0.0,0.0,0.0,0.0,0.0,0.0,0.0,0.0,0.0,0.0,0.0,0.0,0.0,0.0,0.0,0.0,0.0,0.0,0.0,0.0,0.0,0.0,0.0,0.0,0.0,0.0,0.0,0.0,-2.5312,-2.5499,-2.5812,-2.6314,-2.6769,0.0,0.0,0.0,0.0,0.0,0.0,0.0,0.0,0.0,0.0,0.0,0.0,0.0,0.0,0.0,0.0,0.0,0.0,0.0,0.0,0.0,0.0,0.0,0.0,0.0,0.0,0.0,0.0,0.0,0.0,0.0,0.0,0.0,0.0,0.0,0.0,0.0,0.0,0.0,0.0,0.0,0.0,0.0,-4.4738,-4.4106,0.0,0.0,0.0,0.0,0.0,0.0,0.0,0.0,0.0,0.0,0.0,0.0,0.0,-4.386,-4.3579,-4.3828,-4.3697,-4.3214,-4.3664,-4.3477,-4.2634,-4.2559,-4.2157,-4.156,-4.1152,0.0,-4.0888,-4.0453,0.0,0.0,0.0,0.0,0.0,0.0,0.0,0.0,0.0,0.0,0.0,0.0,0.0,0.0,0.0,0.0,0.0,0.0,0.0,0.0,0.0,0.0,0.0,0.0,0.0,0.0,0.0,0.0,0.0,0.0,0.0,0.0,0.0,0.0,0.0,0.0,-2.3338,-2.4348,-2.5499,-2.6208,-2.6934,-2.7577,-2.7762,-2.8634,-2.9879,-3.0453,0.0,0.0,0.0,0.0,0.0,0.0,0.0,0.0,0.0,0.0,0.0,0.0,0.0,0.0,0.0,0.0,0.0,0.0,0.0,0.0,0.0,0.0,0.0,0.0,0.0,0.0,0.0,0.0,0.0,0.0,0.0,0.0,0.0,0.0,0.0,0.0,0.0,0.0,0.0,-4.4521,-4.4035,-4.3912,-4.4346,-4.461,0.0,0.0,0.0,0.0,0.0,0.0,0.0,0.0,0.0,-4.4467,-4.417,-4.4017,-4.4053,-4.4017,-4.3873,-4.3656,-4.3873,-4.3526,-4.2711,-4.2541,-4.2157,-4.156,-4.1105,-4.0776,-4.0534,-4.0104,-3.9782,-3.9558,0.0,0.0,0.0,0.0,-3.8391,-3.8391,0.0,0.0,0.0,0.0,0.0,0.0,0.0,0.0,0.0,0.0,0.0,0.0,0.0,0.0,0.0,-2.1282,0.0,0.0,0.0,0.0,0.0,0.0,0.0,0.0,0.0,0.0,0.0,-2.3001,-2.3779,-2.4636,-2.5627,-2.6564,-2.7564,-2.8546,-2.8725,-2.9662,-3.1187,-3.1345,-3.2447,0.0,0.0,0.0,0.0,0.0,0.0,0.0,0.0,0.0,0.0,0.0,0.0,0.0,0.0,0.0,0.0,0.0,0.0,0.0,0.0,0.0,0.0,0.0,0.0,0.0,0.0,0.0,0.0,0.0,0.0,0.0,0.0,0.0,0.0,0.0,0.0,0.0,0.0,-4.413,-4.3799,-4.3881,-4.427,-4.453,0.0,0.0,0.0,0.0,0.0,0.0,-4.5175,-4.4957,-4.4751,-4.4565,-4.421,-4.4121,-4.4402,-4.4121,-4.4011,-4.4106,-4.403,-4.356,-4.2732,-4.258,-4.2139,-4.1453,-4.1059,-4.068,-4.0238,-3.9782,-3.9558,-3.9365,-3.8639,-3.8391,-3.8391,-3.8391,-3.8391,-3.8391,0.0,0.0,0.0,0.0,0.0,0.0,0.0,0.0,0.0,0.0,0.0,0.0,0.0,0.0,-2.1502,-2.1502,-2.1655,-2.1807,0.0,0.0,0.0,0.0,0.0,0.0,0.0,0.0,0.0,-2.3001,-2.3224,-2.4143,-2.5627,-2.5975,-2.7245,-2.9233,-2.9393,-3.0151,-3.1432,-3.1896,-3.2945,-3.4284,0.0,0.0,0.0,0.0,0.0,0.0,0.0,0.0,0.0,0.0,0.0,0.0,0.0,0.0,0.0,0.0,0.0,0.0,0.0,0.0,0.0,0.0,0.0,0.0,0.0,0.0,0.0,0.0,0.0,0.0,0.0,0.0,0.0,0.0,0.0,0.0,0.0,0.0,0.0,-4.3974,-4.4476,0.0,0.0,0.0,0.0,-4.5361,-4.54,-4.5362,-4.5285,-4.4924,-4.4624,-4.443,-4.4151,-4.4121,-4.4402,-4.4121,-4.4121,-4.4383,-4.4121,-4.3594,-4.281,-4.26,-4.2038,-4.1209,-4.1012,-4.068,-4.0238,-3.9782,-3.9348,-3.8969,-3.856,-3.8391,-3.8391,-3.8391,-3.8391,-3.8391,0.0,0.0,0.0,0.0,0.0,0.0,0.0,0.0,0.0,0.0,0.0,0.0,0.0,-2.1502,-2.1655,-2.1655,-2.1731,-2.1807,-2.1807,0.0,0.0,0.0,0.0,0.0,0.0,0.0,-2.2101,-2.2402,-2.3768,-2.4696,-2.5252,-2.6471,-2.7617,-2.8803,-2.8853,-2.9785,-3.1489,-3.2439,-3.3411,-3.4464,-3.5691,-3.6364,0.0,0.0,0.0,0.0,0.0,0.0,0.0,0.0,0.0,0.0,0.0,0.0,0.0,0.0,0.0,0.0,0.0,0.0,0.0,0.0,0.0,0.0,0.0,0.0,0.0,0.0,0.0,0.0,0.0,0.0,0.0,0.0,0.0,0.0,0.0,0.0,0.0,-4.3943,-4.4591,0.0,-4.477,-4.5113,-4.5341,-4.54,-4.5495,-4.5513,-4.5438,-4.5033,-4.4776,-4.465,-4.4402,-4.4289,-4.4383,-4.4289,-4.4289,-4.4383,-4.3949,-4.3406,-4.281,-4.2364,-4.1803,-4.1209,-4.1012,-4.068,-4.0238,-3.9782,-3.9348,-3.8969,-3.856,-3.8391,-3.8391,-3.8391,-3.8391,-3.8391,0.0,0.0,0.0,0.0,0.0,0.0,0.0,0.0,0.0,0.0,0.0,-2.1195,-2.1512,-2.1655,-2.1807,-2.1807,-2.1807,-2.1807,-2.1807,0.0,0.0,0.0,0.0,0.0,0.0,-2.1949,-2.2035,-2.2035,-2.339,-2.4253,-2.4529,-2.5742,-2.6989,-2.8117,-2.8117,-2.9213,-3.1159,-3.218,-3.3308,-3.4512,-3.5839,-3.6522,-3.6799,0.0,0.0,0.0,0.0,0.0,0.0,0.0,0.0,0.0,0.0,0.0,0.0,0.0,0.0,0.0,0.0,0.0,0.0,0.0,0.0,0.0,0.0,0.0,0.0,0.0,0.0,0.0,0.0,0.0,0.0,0.0,0.0,0.0,0.0,-4.4657,-4.4612,-4.4271,-4.4849,-4.5175,-4.4919,-4.5243,-4.5476,-4.5438,-4.5566,-4.562,-4.5568,-4.5222,-4.4943,-4.48,-4.4624,-4.4493,-4.4383,-4.4383,-4.4383,-4.4383,-4.3855,-4.332,-4.2754,-4.2244,-4.1692,-4.1209,-4.1012,-4.068,-4.0238,-3.9782,-3.9348,-3.8969,-3.856,-3.8391,-3.8391,-3.8391,-3.8391,-3.8391,0.0,0.0,0.0,0.0,0.0,0.0,0.0,0.0,0.0,0.0,-2.007,-2.0557,-2.1425,-2.1655,-2.1807,-2.1807,-2.1807,-2.1807,-2.1731,-2.1807,0.0,0.0,0.0,0.0,-2.1721,-2.1731,-2.1731,-2.1721,-2.2176,-2.2745,-2.3441,-2.3891,-2.5274,-2.7313,-2.7326,-2.8488,-3.045,-3.1042,-3.2462,-3.4415,-3.5582,-3.6139,-3.6367,0.0,0.0,0.0,0.0,0.0,0.0,0.0,0.0,0.0,0.0,0.0,0.0,0.0,0.0,0.0,0.0,0.0,0.0,0.0,0.0,0.0,0.0,0.0,0.0,0.0,0.0,0.0,0.0,0.0,0.0,0.0,0.0,0.0,-4.4998,-4.5184,-4.5283,-4.4957,-4.5204,-4.5381,-4.5323,-4.5494,-4.5586,-4.5531,-4.5632,-4.57,-4.569,-4.5457,-4.514,-4.4825,-4.48,-4.4676,-4.4383,-4.443,-4.4383,-4.4383,-4.3836,-4.332,-4.2754,-4.2262,-4.1692,-4.1209,-4.0995,-4.068,-4.0288,-3.9833,-3.9365,-3.8969,-3.856,-3.8391,-3.8391,-3.8391,-3.8391,-3.8391,0.0,0.0,0.0,0.0,0.0,0.0,0.0,0.0,0.0,0.0,-2.0313,-2.0779,-2.1655,-2.1807,-2.1807,-2.1807,-2.1807,-2.1568,-2.0934,0.0,0.0,0.0,0.0,0.0,-1.9972,-2.0138,-2.0382,-2.0682,-2.1941,-2.2606,-2.2669,-2.4253,-2.504,-2.5262,-2.566,-2.6735,-2.8282,-2.9108,-3.0646,-3.2701,-3.4589,-3.5504,-3.583,0.0,0.0,0.0,0.0,0.0,0.0,0.0,0.0,0.0,0.0,0.0,0.0,0.0,0.0,0.0,0.0,0.0,0.0,0.0,0.0,0.0,0.0,0.0,0.0,0.0,0.0,0.0,0.0,0.0,0.0,0.0,-4.5847,-4.5654,-4.5323,-4.5303,-4.5323,-4.5341,-4.5418,-4.5526,-4.5645,-4.5769,-4.5848,-4.5933,-4.5975,-4.5922,-4.578,-4.5533,-4.5285,-4.5096,-4.5096,-4.4872,-4.4383,-4.4599,-4.4493,-4.4091,-4.3563,-4.3124,-4.2772,-4.2198,-4.164,-4.1209,-4.1117,-4.0948,-4.068,-4.0271,-3.985,-3.9365,-3.8655,-3.8391,-3.8391,-3.8391,-3.8391,-3.8391,0.0,0.0,0.0,0.0,0.0,0.0,0.0,0.0,0.0,0.0,-1.9668,-2.0294,-2.1175,-2.1252,-2.1252,-2.1252,-2.0934,-2.0537,-2.006,0.0,0.0,0.0,0.0,-1.9816,-1.9335,-1.9423,-1.959,-1.9806,-2.1008,-2.1542,-2.1466,-2.2914,-2.3672,-2.394,-2.4253,-2.5356,-2.6966,-2.7799,-2.9108,-3.0734,-3.2576,-3.3941,-3.4938,-3.5691,-3.6138,-3.6323,-3.6441,-3.6646,-3.6938,-3.7056,0.0,0.0,0.0,0.0,0.0,0.0,0.0,0.0,0.0,0.0,0.0,0.0,0.0,0.0,0.0,0.0,0.0,0.0,0.0,0.0,0.0,0.0,0.0,0.0,-4.5993,-4.5877,-4.5719,-4.5613,-4.5587,-4.5731,-4.5756,-4.5783,-4.5878,-4.5917,-4.5947,-4.6008,-4.6027,-4.5958,-4.5802,-4.566,-4.5449,-4.5222,-4.5322,-4.5074,-4.443,-4.4676,-4.4519,-4.3986,-4.3563,-4.325,-4.2958,-4.2378,-4.1831,-4.1363,-4.1255,-4.1088,-4.0823,-4.0254,-3.9833,-3.9558,0.0,0.0,0.0,0.0,-3.8391,-3.8391,0.0,0.0,0.0,0.0,0.0,0.0,0.0,0.0,0.0,0.0,0.0,-1.9502,-2.0304,-2.0382,-2.0382,-2.0382,-1.9737,-1.9335,0.0,0.0,0.0,-1.9177,-1.9097,-1.9018,-1.9027,-1.8859,-1.8859,-1.9027,-1.9571,-1.9797,-1.9797,-2.0682,-2.1669,-2.2691,-2.2925,-2.4039,-2.6002,-2.6684,-2.7683,-2.8892,-3.0096,-3.185,-3.3735,-3.4333,-3.4748,-3.5119,-3.5064,-3.5409,-3.5852,-3.5506,0.0,0.0,0.0,0.0,0.0,0.0,0.0,0.0,0.0,0.0,0.0,0.0,0.0,0.0,0.0,0.0,0.0,0.0,0.0,0.0,0.0,0.0,0.0,0.0,-4.6135,-4.61,-4.6088,-4.5999,-4.5975,-4.6093,-4.6093,-4.6065,-4.6046,-4.6017,-4.5988,-4.592,-4.592,-4.5886,-4.5794,-4.58,0.0,0.0,0.0,-4.5262,-4.453,-4.472,-4.4546,-4.4011,-4.3744,-4.3461,-4.316,-4.2673,-4.211,-4.1604,-4.1363,-4.1134,-4.0823,-4.0037,-3.961,-3.9506,-3.9061,-3.8711,-3.8391,-3.8391,-3.8391,-3.8391,0.0,0.0,0.0,0.0,0.0,0.0,0.0,0.0,0.0,-1.7917,-1.8158,-1.855,-1.9423,-1.9502,-1.9502,-1.9502,-1.9423,-1.9335,0.0,0.0,-1.823,-1.823,-1.773,-1.7334,-1.7212,-1.6386,-1.6304,-1.7204,-1.7496,-1.7568,-1.7415,-1.9307,-2.0022,-1.9788,-2.1048,-2.2403,-2.3845,-2.4482,-2.6046,-2.8139,-2.8856,-3.017,-3.1936,-3.3003,-3.3129,-3.2804,-3.332,-3.3272,-3.3057,-3.3795,-3.3746,-3.3616,-3.5121,-3.5237,0.0,0.0,0.0,0.0,0.0,0.0,0.0,0.0,0.0,0.0,0.0,0.0,0.0,0.0,0.0,0.0,0.0,0.0,0.0,-4.6126,-4.6059,-4.6041,-4.6093,-4.6084,-4.6091,-4.6164,-4.6035,-4.6016,-4.6211,-4.6138,-4.6084,-4.6057,-4.6057,-4.5988,-4.5814,-4.58,-4.5712,-4.5531,-4.5568,-4.5515,-4.5379,-4.4986,-4.453,-4.4008,-4.373,0.0,-4.3214,-4.2788,-4.2274,-4.1604,-4.156,-4.129,-4.0871,-4.0387,-3.9747,-3.9077,-3.8655,-3.8448,-3.8391,-3.8391,-3.8391,-3.8391,0.0,0.0,0.0,0.0,0.0,0.0,0.0,0.0,0.0,0.0,-1.7764,-1.8158,-1.863,-1.863,-1.863,-1.863,-1.8238,0.0,0.0,-1.7602,-1.7196,-1.6862,-1.6535,-1.6131,-1.5733,-1.5159,-1.5159,-1.5733,-1.6116,-1.6273,-1.6198,-1.7641,-1.8284,-1.8284,-1.9492,-2.0575,-2.1618,-2.304,-2.4459,-2.5758,-2.6752,-2.7787,-2.9039,-3.1055,-3.1769,-3.1723,-3.1769,-3.1769,-3.1764,-3.2011,-3.187,-3.1784,-3.295,-3.3073,-3.301,0.0,0.0,0.0,0.0,0.0,0.0,0.0,0.0,0.0,0.0,0.0,0.0,0.0,0.0,-4.5815,-4.6072,0.0,-4.612,-4.619,-4.6179,-4.6167,-4.6195,-4.6189,-4.6215,-4.6255,-4.6164,-4.6144,-4.6296,-4.6181,-4.6098,-4.6098,-4.6041,-4.5929,-4.5814,-4.58,-4.5727,-4.5603,-4.5586,-4.5611,-4.5582,-4.5157,-4.4636,-4.3994,-4.3754,-4.3529,-4.3391,-4.2902,-4.2418,-4.2002,-4.1831,-4.1498,-4.0995,-4.0237,-3.9358,-3.841,-3.8007,-3.8084,-3.8359,-3.8003,-3.7857,-3.7809,0.0,0.0,0.0,0.0,0.0,0.0,0.0,0.0,0.0,0.0,-1.7335,-1.7764,-1.7764,-1.7764,-1.7764,0.0,0.0,0.0,0.0,-1.6566,-1.6229,-1.5733,-1.5484,-1.5151,-1.4734,-1.4482,-1.4482,-1.4566,-1.5047,-1.5289,-1.5289,-1.6124,-1.669,-1.7236,-1.8292,-1.9088,-1.9856,-2.1855,-2.3051,-2.3616,-2.4791,-2.566,-2.6501,-2.8757,-2.9911,-3.029,-3.0015,-3.0033,-3.0216,-3.0165,-2.9875,-2.9771,-3.0749,-3.091,-3.0881,-3.1678,-3.2315,0.0,0.0,0.0,0.0,0.0,0.0,0.0,0.0,-4.3452,-4.4037,-4.4931,-4.5323,-4.5611,-4.593,-4.6069,-4.6147,-4.6251,-4.628,-4.63,-4.63,-4.63,-4.63,-4.63,-4.63,-4.63,-4.63,-4.6206,-4.6131,-4.6076,-4.5949,-4.5863,-4.5771,-4.5757,-4.5696,-4.5603,-4.5589,-4.559,-4.5603,-4.5236,-4.4708,-4.4004,-4.3791,-4.3627,-4.3523,-4.305,-4.2691,-4.2378,-4.1995,-4.1577,-4.1088,-4.0001,-3.8955,-3.7975,-3.7507,-3.7617,-3.8017,-3.7339,-3.7128,-3.7048,0.0,0.0,0.0,0.0,0.0,0.0,0.0,0.0,0.0,0.0,0.0,0.0,0.0,0.0,0.0,0.0,0.0,0.0,-1.673,-1.6147,-1.5816,-1.5733,-1.4573,-1.4153,-1.465,-1.3815,-1.3561,-1.4139,-1.3977,-1.3899,-1.3984,-1.5061,-1.5553,-1.5718,-1.7342,-1.847,-1.9088,-2.0508,-2.2006,-2.3543,-2.4062,-2.4862,-2.5881,-2.6214,-2.6599,-2.6992,-2.7486,-2.7087,-2.6655,-2.8206,-2.7683,-2.679,-2.9482,-2.951,-2.8906,-3.0602,-3.1327,-3.157,-3.198,-3.3625,-3.5498,-3.6818,-3.8816,-4.0707,0.0,-4.3063,-4.4205,-4.4754,-4.5227,-4.5592,-4.5647,-4.5949,-4.6191,-4.6209,-4.6261,-4.63,-4.63,-4.63,-4.63,-4.63,-4.63,-4.63,-4.63,-4.6296,-4.6181,-4.593,-4.591,-4.5815,-4.5618,-4.562,-4.562,-4.5586,-4.5592,-4.5606,-4.56,-4.5079,-4.4542,-4.398,-4.3967,-4.3717,-4.3251,-4.3359,-4.2991,-4.2284,-4.1816,-4.1389,-4.0844,-3.9856,-3.9024,-3.8354,-3.767,-3.7218,-3.6908,-3.6523,-3.6416,-3.6416,0.0,0.0,0.0,0.0,0.0,0.0,0.0,0.0,0.0,0.0,0.0,0.0,0.0,0.0,0.0,0.0,0.0,0.0,-1.673,-1.6064,-1.5567,-1.5151,-1.4237,-1.3646,-1.3555,-1.313,-1.296,-1.3294,-1.3307,-1.3398,-1.3561,-1.4153,-1.4489,-1.4657,-1.5966,-1.6935,-1.7738,-1.9088,-2.042,-2.1638,-2.2178,-2.3073,-2.3975,-2.3756,-2.412,-2.4909,-2.6052,-2.6133,0.0,-2.668,-2.642,-2.6008,-2.7246,-2.7246,-2.7059,-2.8241,-2.8927,-2.9718,-3.1483,-3.2617,-3.3752,-3.5792,-3.7602,-3.9303,-4.0856,-4.2268,-4.3494,-4.4388,-4.4748,-4.5034,-4.551,-4.5744,-4.5923,-4.6161,-4.6229,-4.6268,-4.6287,-4.63,-4.63,-4.63,-4.63,-4.63,-4.63,-4.617,-4.6013,-4.591,-4.579,-4.5692,-4.5603,-4.5586,-4.5586,-4.5586,-4.5591,-4.529,-4.4676,-4.444,-4.4224,-4.4002,-4.3998,-4.3869,-4.3666,-4.3433,-4.2928,-4.2239,-4.1261,-4.063,-4.0197,-3.9247,-3.837,-3.7554,-3.7278,-3.6618,-3.5859,-3.5907,-3.5831,-3.559,0.0,0.0,0.0,0.0,0.0,0.0,0.0,0.0,0.0,0.0,0.0,0.0,0.0,0.0,0.0,0.0,0.0,0.0,0.0,-1.5899,-1.5235,-1.4734,-1.3899,-1.3222,-1.2705,-1.2705,-1.2705,-1.2705,-1.2966,-1.3143,-1.3313,-1.3568,-1.3822,-1.3997,-1.4985,-1.5884,-1.678,-1.806,-1.9265,-2.0235,-2.0702,-2.1471,-2.2241,-2.1939,-2.2392,-2.3361,-2.4707,-2.5122,0.0,-2.5405,-2.5264,-2.511,-2.5603,-2.5603,-2.5533,-2.6296,-2.7018,-2.8074,-3.0261,-3.1113,-3.1972,-3.433,-3.6025,-3.7623,-3.9538,-4.1159,-4.2596,-4.3788,-4.4215,-4.46,-4.5263,-4.551,-4.5704,-4.5982,-4.6103,-4.6195,-4.6265,-4.6278,-4.6273,-4.6303,-4.63,-4.63,-4.63,-4.6112,-4.5996,-4.593,-4.5783,-4.5688,-4.5594,-4.5613,-4.5599,-4.5586,-4.5591,-4.5094,-4.4013,-4.4003,-4.4007,-4.4005,-4.3994,-4.3994,-4.3974,-4.3251,-4.2724,-4.2246,-4.1266,-4.0104,-3.8807,-3.8156,-3.7632,-3.7154,-3.691,-3.6207,-3.5367,-3.5621,-3.5481,-3.5135,0.0,0.0,0.0,0.0,0.0,0.0,0.0,0.0,0.0,0.0,0.0,0.0,0.0,0.0,0.0,0.0,0.0,0.0,0.0,-1.5484,-1.4734,-1.4734,-1.3464,-1.2705,-1.2705,-1.2705,-1.2705,-1.2705,-1.2966,-1.3137,-1.3137,-1.3476,-1.3737,-1.3737,-1.4901,-1.5884,-1.678,-1.7674,-1.8877,-2.0167,-2.0245,-2.0624,-2.1242,-2.1242,-2.1634,-2.2252,-2.3298,0.0,0.0,-2.436,-2.3998,-2.335,-2.5028,-2.504,-2.4624,-2.531,-2.6089,-2.6921,-2.7775,-2.8913,-3.0247,-3.1728,-3.3834,-3.5922,-3.7499,-3.9775,-4.1814,-4.2832,-4.3763,-4.4497,-4.4781,-4.5246,-4.5601,-4.5615,-4.5901,-4.6125,-4.6192,-4.6207,-4.623,-4.6287,-4.63,-4.63,-4.63,-4.63,-4.6201,-4.6001,-4.5994,-4.5881,-4.562,-4.5606,-4.5592,-4.5603,-4.5591,-4.5094,-4.4013,-4.4003,-4.4007,-4.4005,-4.4005,-4.4005,-4.3955,-4.2844,-4.2314,-4.2294,-4.2268,-4.0026,-3.6423,-3.6353,-3.6947,-3.7785,-3.6732,-3.6105,-3.5766,-3.58,-3.5532,-3.5211,0.0,0.0,0.0,0.0,0.0,0.0,0.0,0.0,0.0,0.0,0.0,0.0,0.0,0.0,0.0,0.0,0.0,0.0,0.0,-1.4566,-1.4068,-1.4068,-1.3215,-1.2705,-1.2705,-1.2705,-1.2705,-1.2705,-1.279,-1.2966,-1.3052,-1.2619,-1.279,-1.3476,-1.336,-1.4518,-1.6527,-1.6935,-1.8078,-1.9618,-1.9618,-2.0001,-2.0547,-2.0547,-2.0934,-2.1548,0.0,0.0,0.0,-2.236,-2.2134,-2.1993,-2.2957,-2.3106,-2.3117,-2.4253,-2.5122,-2.5963,-2.6739,-2.763,-2.8647,-3.0129,-3.2109,-3.4186,-3.595,-3.8034,-4.0053,-4.1757,-4.2722,-4.3476,-4.4371,-4.4832,-4.5189,-4.5539,-4.5841,-4.6065,-4.6172,-4.6192,-4.621,-4.6287,-4.6258,-4.6243,-4.6303,-4.6177,-4.6125,-4.6203,-4.6033,-4.5831,-4.562,-4.5606,-4.5592,-4.5603,-4.5591,-4.544,-4.5066,-4.4369,-4.4007,-4.4005,-4.4005,-4.4016,-4.3966,-4.2829,-4.2301,-4.2149,-3.95,-3.7557,-3.631,-3.6285,-3.65,-3.6809,-3.6422,-3.6216,-3.6131,-3.6131,-3.6045,-3.581,0.0,0.0,0.0,0.0,0.0,0.0,0.0,0.0,0.0,0.0,0.0,0.0,0.0,0.0,0.0,0.0,0.0,-1.4734,0.0,0.0,-1.3737,-1.3737,-1.3045,-1.2705,-1.2705,-1.2357,-1.2186,-1.2186,-1.2186,-1.21,-1.1923,-1.1757,-1.2106,-1.279,-1.2345,-1.351,-1.5779,-1.6034,-1.7017,-1.8487,-1.8727,-1.9143,-1.9706,-1.9854,-2.0313,0.0,0.0,0.0,0.0,-2.1242,-2.1165,-2.1242,-2.1634,-2.1949,-2.2317,-2.3401,-2.4276,-2.4981,-2.5517,-2.6208,-2.7087,-2.8248,-2.9911,-3.1824,-3.3717,-3.5873,-3.8066,-4.0273,-4.1364,-4.2345,-4.3664,-4.4168,-4.4573,-4.5093,-4.5488,-4.5791,-4.5959,-4.5962,-4.6045,-4.6268,-4.6269,-4.625,-4.63,-4.6183,-4.6158,-4.6293,-4.6137,-4.5988,-4.5854,-4.5686,-4.5592,-4.5603,-4.5611,-4.5602,-4.5607,-4.4549,-4.398,-4.4005,-4.3992,-4.3994,-4.3962,-4.3228,-4.2668,-4.2088,-3.8046,-3.6295,-3.6308,-3.6284,-3.6301,-3.6301,-3.6301,-3.6301,-3.6301,-3.6301,-3.6301,-3.6216,0.0,0.0,0.0,0.0,0.0,0.0,0.0,0.0,0.0,0.0,0.0,0.0,0.0,0.0,0.0,0.0,0.0,0.0,0.0,0.0,0.0,-1.3652,-1.3045,-1.2705,-1.2705,-1.1843,-1.1413,-1.1413,-1.1413,-1.0885,-1.0009,-1.1058,-1.1671,-1.1671,-1.1843,-1.2936,-1.4699,-1.4873,-1.5786,-1.7033,-1.7674,-1.8264,-1.87,-1.9073,0.0,0.0,0.0,0.0,-2.0245,-2.0857,-2.1088,-2.1165,-2.1242,-2.1634,-2.2176,-2.2777,-2.3486,-2.4047,-2.4047,-2.4564,-2.5417,-2.6183,-2.7341,-2.8889,-3.0984,-3.3408,-3.5932,-3.8264,-3.9705,-4.1034,-4.2611,-4.3314,-4.3826,-4.4307,-4.4858,-4.5304,-4.5563,-4.5551,-4.572,-4.6247,-4.6296,-4.6286,-4.6289,-4.6289,-4.6287,-4.6303,-4.63,-4.6298,-4.6309,-4.5841,-4.5589,-4.5603,-4.5586,-4.5591,-4.5607,-4.4543,-4.4014,-4.4005,-4.4016,-4.398,-4.3959,-4.3986,-4.3324,-4.1908,-3.7998,-3.6284,-3.6301,-3.6301,-3.6301,-3.6301,-3.6301,-3.6301,-3.6301,-3.6301,-3.6301,-3.6301,0.0,0.0,0.0,0.0,0.0,0.0,0.0,0.0,0.0,0.0,0.0,0.0,0.0,0.0,0.0,0.0,0.0,0.0,0.0,0.0,0.0,0.0,0.0,0.0,0.0,0.0,0.0,0.0,-1.2357,-1.1837,-1.0885,-1.0534,-1.0712,-1.1413,-1.0966,-1.2151,-1.4531,-1.4699,-1.5621,-1.7033,0.0,-1.761,-1.8201,0.0,0.0,0.0,0.0,-1.9152,-1.9539,-1.9766,-2.0079,-2.0624,-2.1558,-2.1949,-2.2101,-2.2252,-2.2767,-2.3202,-2.2756,-2.3475,-2.448,-2.4648,-2.5946,-2.7667,-2.9578,-3.1403,-3.3577,-3.6637,-3.8014,-3.9323,-4.1369,-4.2485,-4.341,-4.4344,-4.4877,-4.5285,-4.549,-4.5641,-4.5867,-4.6261,-4.6267,-4.6182,-4.6091,-4.6087,-4.6131,-4.6287,-4.63,-4.6298,-4.6309,-4.5841,-4.5589,-4.5603,-4.5586,-4.5591,-4.5607,-4.4533,-4.4009,-4.4005,-4.3992,-4.3862,-4.3658,-4.3897,-4.2396,-3.948,-3.7264,-3.6305,-3.6301,-3.6301,-3.6301,-3.6301,-3.6301,-3.6301,-3.6301,-3.6301,-3.6301,-3.6301,0.0,0.0,0.0,0.0,0.0,0.0,0.0,0.0,0.0,0.0,0.0,0.0,0.0,0.0,0.0,0.0,0.0,0.0,0.0,0.0,0.0,0.0,0.0,0.0,0.0,0.0,0.0,0.0,0.0,0.0,-1.0707,-1.0534,-1.0799,-1.1322,-1.0885,-1.1821,-1.3698,-1.3873,0.0,0.0,0.0,0.0,0.0,0.0,0.0,0.0,-1.87,-1.8922,-1.9301,-1.9618,-1.9766,-2.0001,-2.1318,-2.1482,-2.1405,-2.1949,-2.2166,-2.2166,-2.2101,-2.2681,-2.3254,-2.3548,-2.4838,-2.6395,-2.7678,-2.963,-3.1946,-3.4487,-3.6024,-3.7711,-4.0306,-4.1611,-4.2685,-4.3942,-4.4568,-4.4931,-4.5054,-4.5156,-4.5438,-4.6016,-4.6056,-4.6033,-4.5991,-4.608,-4.6186,-4.6284,-4.6309,-4.6298,-4.6309,-4.5841,-4.5589,-4.5603,-4.5586,-4.538,-4.4895,-4.4299,-4.3979,-4.4005,-4.4011,-4.3893,-4.3676,-4.2404,-4.0306,-3.7596,-3.6677,-3.6304,-3.6284,-3.6295,-3.6288,-3.6301,-3.6301,-3.6301,-3.6301,-3.6301,-3.6301,-3.6301,0.0,0.0,0.0,0.0,0.0,0.0,0.0,0.0,0.0,0.0,0.0,0.0,0.0,0.0,0.0,0.0,0.0,0.0,0.0,0.0,0.0,0.0,0.0,0.0,0.0,0.0,0.0,0.0,0.0,0.0,0.0,0.0,0.0,0.0,0.0,0.0,0.0,0.0,0.0,0.0,0.0,0.0,0.0,0.0,0.0,0.0,-1.862,-1.8843,-1.9301,-1.9854,-1.9696,-1.9529,-2.0779,-2.0702,-2.0391,-2.1558,-2.1558,-2.1318,-2.1711,-2.1949,-2.2262,-2.2777,-2.4009,-2.529,-2.5937,-2.8081,-3.0487,-3.2362,-3.3914,-3.5845,-3.9024,-4.0556,-4.1861,-4.3543,-4.4202,-4.4505,-4.4499,-4.4505,-4.4825,-4.5695,-4.5795,-4.5852,-4.5955,-4.6146,-4.6254,-4.6268,-4.6282,-4.6309,-4.6309,-4.5852,-4.5589,-4.5603,-4.5608,-4.5148,-4.4202,-4.407,-4.4015,-4.4005,-4.4016,-4.3992,-4.3904,-4.0603,-3.8198,-3.6666,-3.6393,-3.6432,-3.6599,-3.6394,-3.6313,-3.6301,-3.6301,-3.6301,-3.6301,-3.6301,-3.6301,-3.6301,0.0,0.0,0.0,0.0,0.0,0.0,0.0,0.0,0.0,0.0,-1.8827,-1.8804,0.0,0.0,0.0,0.0,0.0,0.0,0.0,0.0,0.0,0.0,0.0,0.0,0.0,-1.279,-1.2448,-1.2448,-1.2448,0.0,0.0,0.0,0.0,0.0,0.0,0.0,0.0,0.0,0.0,0.0,0.0,0.0,0.0,0.0,0.0,0.0,-1.7959,-1.8442,-1.8851,-1.8931,-1.9082,-1.9529,-2.0779,-2.0702,-2.0235,-2.0479,-2.0857,-2.1088,-2.0624,-2.1328,-2.2101,-2.2252,-2.3254,-2.4609,-2.5853,-2.6966,-2.8582,-3.1323,-3.1861,-3.2889,-3.6444,-3.8891,-4.1235,-4.3906,-4.4441,-4.4519,-4.4512,-4.4507,-4.4827,-4.5703,-4.5806,-4.58,-4.5832,-4.5963,-4.606,-4.6053,-4.621,-4.6293,-4.6305,-4.5852,-4.5589,-4.5603,-4.5602,-4.5508,-4.5318,-4.4449,-4.4011,-4.4005,-4.3992,-4.3992,-4.389,-4.0607,-3.8922,-3.852,-3.6968,-3.7031,-3.817,-3.6863,-3.6291,-3.6301,-3.6301,-3.6301,-3.6301,-3.6301,-3.6301,-3.6301,0.0,0.0,0.0,0.0,0.0,0.0,0.0,-1.8827,-1.9004,-1.9538,-1.9538,-1.9363,-1.8827,-1.8676,-1.843,0.0,0.0,0.0,0.0,0.0,0.0,0.0,0.0,0.0,0.0,-1.3392,-1.3052,-1.2705,0.0,-1.2448,-1.2015,-1.2015,-1.2015,-1.2015,-1.2015,-1.2272,-1.2705,0.0,0.0,-1.3222,-1.3899,-1.4566,0.0,0.0,0.0,0.0,0.0,-1.8121,-1.8371,-1.8371,-1.8603,-1.9152,-2.0313,-2.0235,-1.9775,-2.0089,-2.0235,-2.0235,-2.0235,-2.0634,-2.1252,-2.1949,-2.2883,-2.3886,-2.4987,-2.6275,-2.7638,-2.9184,-3.0331,-3.2111,-3.583,-3.8476,-4.0551,-4.1998,-4.3486,-4.4508,-4.449,-4.4489,-4.4664,-4.5063,-4.5534,-4.5816,-4.5796,-4.5925,-4.5994,-4.5996,-4.6097,-4.6191,-4.6294,-4.5862,-4.5609,-4.56,-4.5611,-4.533,-4.4779,-4.4278,-4.3999,-4.4005,-4.3998,-4.3998,-4.3882,-4.0621,-3.9085,-3.9035,-3.7594,-3.7148,-3.7403,-3.6622,-3.6295,-3.6291,-3.6284,-3.6313,-3.629,-3.6316,-3.6301,-3.6343,0.0,0.0,0.0,0.0,0.0,0.0,0.0,-1.9271,-1.972,-2.0529,-2.061,-2.0257,-1.9546,-1.9279,-1.8859,0.0,0.0,0.0,0.0,0.0,0.0,0.0,0.0,0.0,0.0,0.0,0.0,-1.313,-1.296,0.0,0.0,0.0,0.0,0.0,-1.2705,-1.279,-1.2875,-1.279,-1.279,0.0,0.0,-1.4237,0.0,0.0,0.0,0.0,0.0,-1.7708,-1.7708,-1.7789,-1.8121,-1.8674,-1.9539,-1.9618,-1.9381,-1.9844,-1.9687,-1.9381,-1.9854,-2.0079,-2.0469,-2.1634,-2.2446,-2.3202,-2.4253,-2.5451,-2.6504,-2.7336,-2.9378,-3.1926,-3.4994,-3.761,-3.9475,-4.001,-4.2038,-4.3779,-4.442,-4.4501,-4.4485,-4.4486,-4.5104,-4.5591,-4.5774,-4.5907,-4.5975,-4.5995,-4.6045,-4.613,-4.6299,-4.5949,-4.5711,-4.5602,-4.5599,-4.5189,-4.4338,-4.4345,-4.4216,-4.3987,-4.4017,-4.3621,-4.2855,-4.029,-3.9084,-3.9056,-3.8265,-3.7494,-3.6809,-3.6818,-3.679,-3.6785,-3.6408,-3.6304,-3.6289,-3.6281,-3.6301,-3.6385,0.0,0.0,0.0,0.0,0.0,0.0,0.0,-2.0889,-2.1427,-2.1606,-2.1606,-2.1516,-2.1427,-2.0709,-1.9661,0.0,0.0,0.0,0.0,0.0,0.0,0.0,0.0,0.0,0.0,0.0,0.0,-1.4482,-1.3899,0.0,0.0,0.0,0.0,0.0,0.0,-1.3045,-1.3561,-1.296,0.0,0.0,0.0,0.0,0.0,0.0,0.0,0.0,0.0,-1.673,-1.664,-1.7221,-1.761,-1.7908,-1.8603,-1.9082,-1.9301,-1.9381,-1.9301,-1.9301,-1.9381,-1.9766,-2.0391,-2.1088,-2.1787,-2.2628,-2.4116,-2.3938,-2.4137,-2.6902,-2.9407,-3.1303,-3.2373,-3.4949,-3.7568,-3.9729,-4.0324,-4.1454,-4.412,-4.4484,-4.4519,-4.4493,-4.4578,-4.4916,-4.5725,-4.5806,-4.5868,-4.599,-4.6164,-4.6289,-4.6309,-4.626,-4.6035,-4.5601,-4.5611,-4.5548,-4.5451,-4.5437,-4.4971,-4.4001,-4.3992,-4.2441,-3.9541,-3.925,-3.9087,-3.9098,-3.9013,-3.8765,-3.8504,-3.8473,-3.8472,-3.8341,-3.6865,-3.6301,-3.6291,-3.6284,-3.6301,-3.6385,0.0,0.0,0.0,0.0,0.0,0.0,-2.115,-2.1427,-2.1863,-2.2482,-2.257,-2.257,-2.257,-2.2208,-2.1346,-1.9692,0.0,0.0,0.0,0.0,0.0,0.0,0.0,0.0,0.0,0.0,-1.5068,-1.4734,-1.4405,0.0,0.0,0.0,0.0,0.0,0.0,-1.3646,-1.4314,-1.4062,0.0,0.0,0.0,0.0,0.0,0.0,0.0,0.0,0.0,0.0,-1.6648,-1.7229,-1.7627,-1.8014,-1.8531,-1.8594,-1.8647,-1.9143,-1.9301,-1.9301,-1.9301,-1.946,-1.9854,-2.0673,-2.1001,-2.1589,-2.3242,-2.3306,-2.3656,-2.6071,-2.8925,-3.1262,-3.2041,-3.4589,-3.6817,-3.776,-3.914,-4.0504,-4.167,-4.3359,-4.4521,-4.4505,-4.4504,-4.464,-4.4968,-4.5302,-4.5626,-4.5964,-4.6192,-4.6307,-4.6306,-4.6026,-4.5778,-4.5622,-4.5599,-4.5592,-4.5592,-4.5602,-4.5398,-4.4957,-4.4959,-4.2886,-3.9107,-3.91,-3.9091,-3.91,-3.9116,-3.9038,-3.894,-3.8776,-3.8704,-3.8525,-3.6929,-3.63,-3.6296,-3.6298,-3.6301,-3.6367,0.0,0.0,0.0,0.0,0.0,-2.2129,-2.2129,-2.2315,-2.2755,-2.3454,-2.3541,-2.3541,-2.3541,-2.328,-2.2561,-2.123,-2.0527,0.0,0.0,0.0,0.0,0.0,0.0,0.0,0.0,0.0,-1.5816,-1.5484,-1.5318,-1.5235,0.0,0.0,-1.4398,-1.4657,0.0,0.0,0.0,0.0,0.0,0.0,0.0,0.0,0.0,0.0,0.0,0.0,0.0,0.0,0.0,0.0,0.0,-1.8023,-1.8531,-1.8514,-1.8487,-1.9134,-1.9134,-1.8975,-1.9222,-1.9301,-1.9469,-2.04,-2.0634,-2.0984,-2.2611,-2.2981,-2.3587,-2.547,-2.8642,-3.1222,-3.2024,-3.3887,-3.5494,-3.6383,-3.7952,-3.9274,-3.9997,-4.2347,-4.4016,-4.4017,-4.4314,-4.4557,-4.473,-4.5074,-4.5501,-4.5969,-4.6138,-4.6249,-4.6297,-4.5988,-4.5734,-4.5608,-4.5597,-4.5594,-4.5594,-4.5591,-4.5591,-4.5592,-4.457,-4.2337,-3.911,-3.91,-3.908,-3.9099,-3.9091,-3.9118,-3.9068,-3.8578,-3.8347,-3.8205,-3.6849,-3.6287,-3.6284,-3.6281,-3.6385,-3.6557,0.0,0.0,0.0,0.0,0.0,0.0,-2.3096,-2.3907,-2.4454,-2.4454,-2.4454,-2.4454,-2.4454,-2.3637,-2.3096,-2.3096,-2.1929,0.0,0.0,0.0,0.0,0.0,0.0,0.0,0.0,0.0,-1.6902,-1.7392,-1.673,-1.6394,-1.6394,-1.5726,-1.5144,-1.4734,0.0,0.0,0.0,0.0,0.0,0.0,0.0,0.0,0.0,0.0,0.0,0.0,0.0,0.0,0.0,0.0,0.0,0.0,0.0,-1.9002,-1.9301,-1.9301,-1.8727,-1.8158,-1.9054,-1.9301,-1.9469,-2.04,-2.0576,-2.0987,-2.2642,-2.2987,-2.3578,-2.5461,-2.8648,-3.1241,-3.2064,-3.2249,-3.3149,-3.6043,-3.6531,-3.7373,-3.9756,-4.1725,-4.2921,-4.2923,-4.3844,-4.4711,-4.5254,-4.5302,-4.549,-4.5969,-4.601,-4.6099,-4.6289,-4.6297,-4.6078,-4.5618,-4.5609,-4.5606,-4.5606,-4.5607,-4.5601,-4.5563,-4.2182,-4.0024,-3.9109,-3.9104,-3.9102,-3.9096,-3.9099,-3.9082,-3.9016,-3.801,-3.757,-3.7435,-3.6604,-3.63,-3.6301,-3.6301,-3.6557,-3.6939,0.0,0.0,0.0,0.0,0.0,0.0,0.0,-2.4272,-2.454,-2.454,-2.454,-2.454,-2.454,-2.4272,-2.4176,-2.4327,-2.3238,0.0,0.0,0.0,0.0,0.0,0.0,0.0,0.0,0.0,-1.8798,-1.8487,-1.8238,-1.7764,-1.7057,-1.6394,-1.6064,-1.6064,-1.5733,-1.5982,0.0,0.0,0.0,0.0,0.0,0.0,-1.6902,0.0,0.0,0.0,0.0,0.0,0.0,0.0,0.0,0.0,0.0,0.0,0.0,-1.9134,-1.9134,-1.8975,-1.9222,-1.9301,-1.9381,-1.9636,-1.9722,-1.9801,-2.037,-2.1805,-2.3587,-2.5501,-2.8617,-3.1224,-3.209,-3.2166,-3.3121,-3.6013,-3.6518,-3.7332,-3.978,-4.0617,-4.1001,-4.0998,-4.3083,-4.4723,-4.5247,-4.5302,-4.5497,-4.5969,-4.5986,-4.6027,-4.6097,-4.623,-4.6225,-4.6088,-4.6085,-4.5925,-4.5606,-4.5597,-4.4427,-4.2093,-4.1016,-4.0348,-4.0053,-4.0071,-3.9708,-3.9107,-3.9091,-3.911,-3.9084,-3.8762,-3.8482,-3.8167,-3.6827,-3.6509,-3.6829,-3.6837,-3.6893,-3.7017,0.0,0.0,0.0,0.0,0.0,0.0,0.0,-2.454,-2.454,-2.4625,-2.454,-2.454,-2.47,-2.4711,-2.4786,-2.5031,-2.4327,0.0,0.0,0.0,0.0,0.0,0.0,0.0,0.0,-1.9904,-1.9816,-1.958,-1.958,-1.9186,-1.8559,-1.7917,-1.7602,-1.7529,-1.7041,-1.7057,0.0,0.0,0.0,0.0,0.0,0.0,-1.7473,0.0,0.0,0.0,0.0,0.0,0.0,0.0,0.0,0.0,0.0,0.0,0.0,0.0,-1.9301,-1.9301,-1.9301,-1.9301,-1.9301,-1.9301,-1.9275,-1.9561,-2.0498,-2.188,-2.3919,-2.7128,-2.9758,-3.1596,-3.2078,-3.2219,-3.3132,-3.603,-3.6538,-3.7359,-3.974,-4.0089,-4.0516,-4.163,-4.3386,-4.4716,-4.5266,-4.5292,-4.5419,-4.5714,-4.5893,-4.6008,-4.5994,-4.6192,-4.6308,-4.6308,-4.6298,-4.6163,-4.5875,-4.4568,-4.2763,-4.05,-4.0499,-4.0496,-4.0482,-4.0125,-3.966,-3.9132,-3.9471,-3.9425,0.0,-3.9098,-3.9007,-3.8725,-3.7482,-3.713,-3.7279,-3.7253,-3.7345,-3.7578,0.0,0.0,0.0,0.0,0.0,0.0,0.0,-2.454,-2.4615,-2.4861,-2.47,-2.4711,-2.5115,-2.5031,-2.5031,-2.52,0.0,0.0,0.0,0.0,0.0,0.0,0.0,0.0,0.0,-2.0148,-2.0275,-2.0575,-2.0575,-2.0575,-2.0498,-1.9894,-1.9441,-1.9036,-1.8834,-1.8772,0.0,0.0,0.0,0.0,0.0,0.0,0.0,0.0,0.0,0.0,0.0,0.0,0.0,0.0,0.0,0.0,0.0,0.0,0.0,0.0,0.0,0.0,0.0,-1.9301,-1.9301,-1.9301,-1.934,-1.9927,-2.2463,-2.3062,0.0,-2.9786,-3.1553,-3.222,-3.2233,-3.2225,-3.3057,-3.5744,-3.6492,-3.7559,-3.9782,-4.0226,-4.1313,-4.4082,-4.4428,-4.4619,-4.5111,-4.5257,-4.5297,-4.5304,-4.5712,-4.5963,-4.5998,-4.6189,-4.6293,-4.6308,-4.6308,-4.6307,-4.6293,-4.2849,-4.0904,-4.0494,-4.0494,-4.0505,-4.0473,-3.9544,-3.9147,-3.9185,-4.0032,-3.9924,-3.9157,-3.9151,-3.911,-3.9034,-3.8405,-3.7967,-3.7721,-3.7632,-3.7993,-3.8499,0.0,0.0,0.0,0.0,0.0,0.0,0.0,0.0,0.0,0.0,-2.4946,-2.5115,-2.52,-2.52,-2.52,0.0,0.0,0.0,0.0,0.0,0.0,0.0,0.0,0.0,0.0,-2.2486,-2.208,-2.17,-2.17,-2.1298,-2.0498,-2.0353,-2.0041,-1.9668,-1.9678,-1.9599,0.0,0.0,0.0,0.0,0.0,0.0,0.0,0.0,0.0,0.0,-1.8451,-1.8692,0.0,0.0,0.0,0.0,0.0,0.0,0.0,0.0,-1.9301,-1.9301,-1.9301,0.0,-1.9301,-1.9301,-1.9269,-1.9984,0.0,-2.3928,-2.5553,-2.8487,-3.0773,-3.2206,-3.2233,-3.2169,-3.2401,-3.3082,-3.6639,-3.9461,-4.0034,-4.1332,-4.2483,-4.319,-4.3572,-4.3767,-4.3895,-4.4764,-4.5308,-4.5295,-4.5399,-4.5626,-4.5988,-4.6035,-4.6137,-4.6308,-4.6306,-4.6303,-4.63,-4.2847,-4.0906,-4.0514,-4.0496,-4.046,-4.0405,-3.977,-3.9475,-3.947,-3.9373,-3.9461,-3.961,-3.9518,-3.9287,-3.8942,-3.8755,-3.8762,-3.881,-3.8799,-3.8652,-3.847,0.0,0.0,0.0,0.0,0.0,0.0,0.0,0.0,0.0,0.0,0.0,0.0,0.0,0.0,0.0,0.0,0.0,0.0,0.0,0.0,0.0,0.0,0.0,0.0,-2.4082,-2.3591,-2.3178,-2.2809,-2.2584,-2.2231,-2.1669,-2.1375,-2.1145,-2.0924,-2.0605,-2.0527,0.0,0.0,0.0,0.0,-1.9371,0.0,0.0,0.0,0.0,0.0,-1.8843,-1.9002,0.0,-1.9231,-1.9301,-1.9301,0.0,0.0,0.0,0.0,-1.9301,-1.9301,-1.9301,-1.9301,-1.9292,-1.9283,-1.9288,-2.0168,-2.3297,-2.472,-2.5925,-2.8038,-2.9555,-3.047,-3.0524,-3.1414,-3.2194,-3.2203,-3.57,-3.883,-3.9943,-4.0989,-4.1984,-4.3041,-4.3359,-4.3509,-4.3509,-4.4102,-4.4682,-4.5247,-4.5302,-4.5404,-4.5667,-4.588,-4.6045,-4.6167,-4.4704,-4.3919,-4.3919,-4.2032,-4.0902,-4.049,-4.0694,-4.0626,-4.0329,-4.0043,-3.9787,-3.9561,-3.9584,-3.9651,-3.9764,-3.9768,-3.9588,-3.9271,-3.9242,-3.9147,-3.9026,-3.9275,-3.9141,-3.895,0.0,0.0,0.0,0.0,0.0,0.0,0.0,0.0,0.0,0.0,0.0,0.0,0.0,0.0,0.0,0.0,0.0,0.0,0.0,0.0,0.0,0.0,0.0,-2.4989,-2.4607,-2.4104,-2.3809,-2.3733,-2.3307,-2.3078,-2.3001,-2.2478,-2.2252,-2.2252,-2.1711,-2.1471,0.0,0.0,-2.0313,-2.0313,-1.9608,0.0,0.0,0.0,0.0,0.0,0.0,0.0,0.0,-1.9301,-1.9301,-1.9301,-1.9301,0.0,0.0,0.0,0.0,0.0,-1.9292,-1.9292,-1.9292,-1.9265,-1.9381,-2.0382,-2.3787,-2.517,-2.6267,-2.8157,-2.8521,-2.861,-2.9038,-3.0745,-3.2319,-3.2758,-3.5232,-3.7762,-3.9918,-4.02,-4.0943,-4.2858,-4.3355,-4.3524,-4.3509,-4.3502,-4.3992,-4.5198,-4.53,-4.5297,-4.5295,-4.5743,-4.5763,-4.5241,-4.2522,-4.1073,-4.1104,-4.1097,-4.0928,-4.0587,-4.0859,-4.0745,-4.0312,-4.03,-4.0055,-3.9655,-4.004,-3.9985,-3.9699,-3.9889,-3.9848,-3.9692,-3.9618,-3.9383,-3.9055,-3.9408,-3.9566,-3.9645,0.0,0.0,0.0,0.0,0.0,0.0,0.0,0.0,0.0,0.0,0.0,0.0,0.0,0.0,0.0,0.0,0.0,0.0,0.0,0.0,0.0,0.0,-2.5791,-2.5142,-2.5065,-2.4607,-2.4159,-2.3733,-2.3656,-2.3405,-2.3001,-2.2927,-2.2852,-2.2852,-2.2777,-2.2692,-2.2617,-2.1548,-2.1088,-2.0934,-1.9766,0.0,0.0,0.0,0.0,0.0,0.0,0.0,0.0,-1.9301,-1.9301,-1.9301,-1.9301,0.0,0.0,0.0,0.0,0.0,-1.9265,-1.9265,-1.9265,-1.9335,-1.9818,-2.0554,-2.1165,-2.4812,-2.811,-2.8411,-2.8484,-2.917,-3.125,-3.1929,-3.3028,-3.5459,-3.7902,-3.9844,-4.0661,-4.077,-4.0905,-4.1252,-4.2594,-4.3483,-4.3492,-4.3495,-4.4007,-4.5214,-4.5301,-4.5295,-4.5302,-4.5757,-4.4667,-4.1772,-4.1187,-4.099,-4.1097,-4.1095,-4.1071,-4.1011,-4.0616,-4.0405,-4.0378,-4.0345,-4.0251,-4.0176,-3.9835,-3.966,-3.9622,-3.9702,-3.9743,-3.9683,-3.9647,-3.9792,-4.0041,-3.9772,-3.987,-4.0255,0.0,0.0,0.0,0.0,0.0,0.0,0.0,0.0,0.0,0.0,0.0,0.0,0.0,0.0,0.0,0.0,0.0,0.0,0.0,0.0,0.0,-2.7879,-2.6874,-2.6039,-2.5568,-2.5098,-2.4738,-2.4508,-2.4257,-2.3886,-2.3394,-2.3121,-2.3001,-2.3001,-2.3001,-2.3001,-2.2927,-2.17,-2.1405,-2.1558,0.0,0.0,0.0,0.0,0.0,0.0,0.0,0.0,0.0,0.0,-1.9539,-1.9301,-1.9301,0.0,0.0,0.0,0.0,0.0,-1.9901,-2.0008,-1.9863,-1.9444,-1.9918,-2.0582,-2.0576,-2.4725,-2.8523,-2.8494,-2.8509,-2.9277,-3.1723,-3.2189,-3.2639,-3.3959,-3.7497,-4.03,-4.0828,-4.1703,-4.1975,-4.1009,-4.301,-4.4488,-4.4476,-4.4474,-4.4687,-4.5262,-4.3637,-4.2684,-4.2916,-4.3124,-4.2519,-4.0954,-4.0972,-4.1047,-4.1093,-4.1105,-4.1098,-4.1093,-4.0848,-4.0751,-4.0776,-4.0742,-4.0611,-4.0408,-4.0262,-4.0135,-4.0077,-4.0208,-4.0189,-4.0132,-4.0172,-4.023,-4.0251,-3.9984,-4.0146,-4.0537,0.0,0.0,0.0,0.0,0.0,0.0,0.0,0.0,0.0,0.0,0.0,0.0,0.0,0.0,0.0,0.0,0.0,0.0,0.0,0.0,-2.8664,-2.8664,-2.7879,-2.7174,-2.6539,-2.5771,-2.5365,-2.5477,-2.4894,-2.4388,-2.3897,-2.3525,-2.3285,-2.3176,-2.3176,-2.311,-2.2927,-2.1852,-2.1711,-2.1949,0.0,0.0,0.0,0.0,0.0,0.0,0.0,0.0,0.0,0.0,0.0,0.0,0.0,0.0,0.0,-1.9265,-1.9335,-1.9502,-2.0361,-2.0635,-2.0449,-1.9765,-2.0698,-2.1717,-2.1711,-2.4809,-2.7742,-2.7766,-2.8573,-2.9954,-3.1826,-3.3217,-3.4031,-3.4072,-3.8123,-4.1456,-4.1865,-4.307,-4.3439,-4.2081,-4.324,-4.4137,-4.4132,-4.411,-4.413,-4.4135,-4.1841,-4.0577,-4.0884,-4.0907,-4.091,-4.0954,-4.1023,-4.1068,-4.109,-4.1099,-4.11,-4.1093,-4.1112,-4.1101,-4.1098,-4.1025,-4.0878,-4.0645,-4.0667,-4.0655,-4.0578,-4.068,-4.0653,-4.0575,-4.0676,-4.0571,-4.037,-4.0229,-4.0436,-4.0754,0.0,0.0,0.0,0.0,0.0,0.0,0.0,0.0,0.0,0.0,0.0,0.0,0.0,0.0,0.0,0.0,0.0,0.0,0.0,0.0,-2.9626,-2.9626,-2.8743,-2.8267,-2.8187,-2.6659,-2.6013,-2.6302,-2.5514,-2.4891,-2.4432,-2.4399,-2.4137,-2.3678,-2.3678,-2.3427,-2.2927,-2.2327,-2.2025,-2.1949,-2.0712,0.0,0.0,0.0,0.0,0.0,0.0,0.0,0.0,0.0,0.0,0.0,0.0,0.0,-1.9292,-1.9265,-1.9298,-1.9455,-2.0381,-2.0576,-2.0586,-2.0503,-2.2717,-2.498,-2.4962,-2.5238,-2.555,-2.5539,-2.8938,-3.1952,-3.2164,-3.6209,-3.9526,-3.9508,-4.2573,-4.4961,-4.4967,-4.5084,-4.5115,-4.4994,-4.2421,-4.0667,-4.0655,-4.0665,-4.0662,-4.0669,-4.0781,-4.087,-4.09,-4.0909,-4.0954,-4.1089,-4.0962,-4.0965,-4.1097,-4.1093,-4.1107,-4.1109,-4.1091,-4.1098,-4.1091,-4.0837,-4.0859,-4.1053,-4.0812,-4.0732,-4.0784,-4.0798,-4.0791,-4.0771,-4.0721,-4.068,-4.066,-4.0645,-4.0831,-4.1076,0.0,0.0,0.0,0.0,0.0,0.0,0.0,0.0,0.0,0.0,0.0,0.0,0.0,0.0,0.0,0.0,0.0,0.0,0.0,0.0,-3.0508,-3.0508,-2.9704,-2.9459,-3.0024,-2.781,-2.7,-2.764,-2.6462,-2.5619,-2.4902,-2.4628,-2.4388,-2.4181,-2.3864,-2.3624,-2.3362,-2.2454,-2.2327,-2.2553,-2.1318,-2.1165,0.0,0.0,0.0,0.0,0.0,0.0,0.0,0.0,-1.9923,-1.9381,-1.997,-1.9724,-1.9292,-1.9307,-1.9668,-2.0146,-2.0518,-2.0596,-2.0615,-2.0589,-2.1511,-2.2372,-2.2347,-2.494,-2.7379,-2.7385,-2.8703,-3.0433,-3.1954,-3.6541,-3.9922,-3.9328,-4.0336,-4.1434,-4.2105,-4.2409,-4.257,-4.2571,-4.1434,-4.0676,-4.0675,-4.0671,-4.0661,-4.0662,-4.0811,-4.0839,-4.0662,-4.057,-4.0704,-4.1084,-4.1041,-4.1058,-4.1094,-4.1104,-4.1094,-4.11,-4.1097,-4.1094,-4.1091,-4.0979,-4.1003,-4.11,-4.0983,-4.0953,-4.0992,-4.0989,-4.0998,-4.0979,-4.0953,-4.0957,-4.0941,-4.0945,-4.1011,-4.1093,0.0,0.0,0.0,0.0,0.0,0.0,0.0,0.0,0.0,0.0,0.0,0.0,0.0,0.0,0.0,0.0,0.0,0.0,-3.0986,-3.0986,-3.0986,-3.0986,-3.0419,-3.0419,-3.0986,-2.9003,-2.8279,-2.8821,-2.7355,-2.6255,-2.5393,-2.5087,-2.4847,-2.4683,-2.4344,-2.4017,-2.3623,-2.2917,-2.2767,-2.2927,-2.1863,-2.1863,0.0,0.0,0.0,0.0,0.0,0.0,0.0,0.0,-2.0557,-1.9794,-2.007,-1.9747,-1.9265,-1.933,-1.9944,-2.0596,-2.0576,-2.0634,-2.0575,-2.0579,-2.0566,-2.0314,-1.9219,-2.339,-2.775,-2.8464,-2.8631,-2.9549,-3.268,-3.7155,-4.0149,-3.9491,-3.9392,-3.9646,-4.0382,-4.0652,-4.0663,-4.0366,-4.034,-4.0442,-4.0733,-4.0516,-4.0447,-4.0749,-4.073,-4.0622,-4.0448,-4.0354,-4.0461,-4.0832,-4.1017,-4.1106,-4.1091,-4.1097,-4.1094,-4.1094,-4.1108,-4.109,-4.1108,-4.1097,-4.1107,-4.1093,-4.111,-4.1053,-4.1015,-4.1015,-4.1014,-4.1006,-4.1089,-4.1107,-4.1103,-4.1091,-4.1023,-4.091,0.0,0.0,0.0,0.0,0.0,0.0,0.0,0.0,0.0,0.0,0.0,0.0,0.0,0.0,0.0,0.0,0.0,0.0,-3.0986,-3.0986,-3.0986,-3.0986,-3.0986,-3.0986,-3.0986,-3.0177,-2.9704,-2.9704,-2.8051,-2.6787,-2.5895,-2.5895,-2.5644,-2.5256,-2.5175,-2.4639,-2.3733,-2.3733,-2.3449,-2.2927,-2.2327,-2.2478,-2.2927,0.0,0.0,0.0,0.0,0.0,0.0,0.0,-2.0974,-2.0449,-1.9559,-1.9284,-1.9316,-1.9284,-1.9937,-2.0582,-2.0605,-2.0634,-2.0623,-2.0569,-2.0602,-1.9755,-1.628,-2.0594,-2.5913,-2.8118,-2.8585,-3.0043,-3.4693,-3.8465,-4.0913,-4.0894,-4.0885,-4.0901,-4.0881,-4.0656,-4.0147,-3.9208,-3.9102,-3.9471,-4.0402,-3.9655,-3.9488,-4.0427,-4.0369,-4.0301,-4.0304,-4.03,-4.0304,-4.0306,-4.0825,-4.11,-4.1094,-4.1092,-4.1092,-4.1094,-4.1092,-4.1108,-4.1107,-4.1108,-4.1103,-4.1108,-4.1093,-4.0975,-4.0803,-4.0797,-4.0805,-4.082,-4.1023,-4.1104,-4.1092,-4.1101,-4.0852,-4.049,0.0,0.0,0.0,0.0,0.0,0.0,0.0,0.0,0.0,0.0,0.0,0.0,0.0,0.0,0.0,0.0,0.0,0.0,-3.0986,-3.0986,-3.0986,-3.0986,-3.0986,-3.0986,-3.0986,-3.0748,-2.9716,-2.7971,-2.8039,-2.7325,-2.5895,-2.5895,-2.6141,-2.6549,-2.5643,-2.5134,-2.5045,-2.4095,-2.3449,-2.3001,-2.3338,-2.3486,-2.3446,0.0,0.0,0.0,0.0,0.0,0.0,0.0,0.0,0.0,-2.0725,-2.0043,-1.9455,-2.007,-2.041,-2.1095,-2.3313,-2.2313,-2.002,-1.7561,-2.0489,-2.3619,-2.2584,-2.3925,-2.5924,-2.8159,-2.8623,-2.9037,-3.0403,-3.6299,-4.0896,-4.0889,-4.0898,-4.0588,-3.976,-3.9567,-3.9413,-3.9127,-3.91,-3.9217,-3.9472,-3.925,-3.922,-3.9488,-3.9996,-4.031,-4.0291,-4.0285,-4.0308,-4.0304,-4.081,-4.1096,-4.1089,-4.1101,-4.1099,-4.1101,-4.1092,-4.1094,-4.1094,-4.1092,-4.1099,-4.1091,-4.1105,-4.092,-4.0599,-4.0587,-4.0674,-4.0792,-4.0699,-4.0846,-4.1079,-4.0776,-4.0598,-4.0511,0.0,0.0,0.0,0.0,0.0,0.0,0.0,0.0,0.0,0.0,0.0,0.0,0.0,0.0,0.0,0.0,0.0,0.0,0.0,-3.1468,-3.1468,-3.1468,-3.1123,-3.0986,-3.0986,-3.0986,-3.0114,-2.8211,-2.8676,-2.8039,-2.6385,-2.6775,-2.701,-2.7174,-2.6389,-2.5859,-2.5647,-2.4824,-2.4058,-2.3486,-2.4276,-2.4276,-2.3863,0.0,0.0,0.0,0.0,0.0,0.0,0.0,0.0,0.0,-2.1655,-2.0674,-1.9888,-2.045,-2.0634,-2.0742,-2.1251,-1.9942,-1.839,-1.7657,-2.1429,-2.4993,-2.3732,-2.1275,-2.1009,-2.7311,-3.0084,-3.1384,-3.1407,-3.6597,-4.0739,-4.0266,-4.0184,-3.9928,-3.9205,-3.9105,-3.9081,-3.9096,-3.9082,-3.8936,-3.8542,-3.8479,-3.8672,-3.9073,-3.9436,-3.967,-3.9656,-4.0082,-4.0406,-4.0599,-4.0937,-4.1107,-4.111,-4.1109,-4.1097,-4.1107,-4.1094,-4.111,-4.1108,-4.1104,-4.11,-4.109,-4.0925,-4.0711,-4.0501,-4.0491,-4.0573,-4.063,-4.0153,-4.0317,-4.0785,-4.0177,-3.9929,-4.0005,0.0,0.0,0.0,0.0,0.0,0.0,0.0,0.0,0.0,0.0,0.0,0.0,0.0,0.0,0.0,0.0,0.0,0.0,0.0,0.0,-3.2218,-3.2218,-3.1455,-3.1048,-3.0986,-3.0986,-3.0583,-2.9781,-2.9704,-2.8912,-2.7348,-2.8039,-2.8039,-2.7418,-2.7336,-2.6771,-2.5889,-2.5747,-2.5148,-2.4264,-2.5075,-2.4921,-2.4264,-2.4325,0.0,0.0,0.0,0.0,0.0,0.0,0.0,0.0,-2.2457,-2.1391,-2.0566,-2.0595,-2.0785,-2.0244,-1.6843,-1.5872,-1.6545,-1.9394,-2.2527,-2.3917,-2.0434,-1.4615,-1.3461,-2.5797,-3.1929,-3.5347,-3.599,-3.8727,-4.048,-3.9179,-3.9052,-3.9098,-3.9108,-3.9114,-3.9061,-3.8969,-3.8957,-3.8583,-3.7703,-3.7598,-3.8016,-3.9005,-3.8823,-3.869,-3.8689,-3.9757,-4.0608,-4.1082,-4.1102,-4.1104,-4.1097,-4.1108,-4.1108,-4.111,-4.1103,-4.11,-4.1104,-4.1052,-4.1057,-4.1016,-4.0569,-4.0368,-4.0368,-4.0475,-4.0444,-4.029,-3.9429,-3.9637,-4.0261,-3.9399,-3.9086,-3.9195,0.0,0.0,0.0,0.0,0.0,0.0,0.0,0.0,0.0,0.0,0.0,0.0,0.0,0.0,0.0,0.0,0.0,0.0,0.0,0.0,-3.2932,-3.2932,-3.2232,-3.1603,-3.0986,-3.0986,-3.0911,-3.0748,-3.0024,-2.9147,-2.8108,-2.8347,-2.8664,-2.9147,-2.8438,-2.7927,-2.7533,-2.6875,-2.6041,-2.5087,-2.5861,-2.5918,-2.5569,-2.6183,-2.5906,0.0,0.0,0.0,0.0,0.0,0.0,0.0,-2.3924,-2.2291,-2.0599,-2.0576,-2.2331,-2.357,-2.0355,-1.9516,-1.8994,-1.7012,-1.9073,-1.994,-1.3709,-1.1095,-1.3033,-2.3821,-2.9044,-3.3336,-3.8778,-4.0384,-4.0257,-3.8254,-3.8575,-3.912,-3.9091,-3.9079,-3.8792,-3.8003,-3.7917,-3.7835,-3.7621,-3.7609,-3.794,-3.8729,-3.8719,-3.8692,-3.87,-4.0108,-4.0989,-4.1109,-4.1102,-4.1097,-4.11,-4.1097,-4.1091,-4.1093,-4.1094,-4.1098,-4.1099,-4.0766,-4.0635,-4.0569,-3.9756,-3.9394,-3.9467,-4.0217,-4.0065,-3.9383,-3.9175,-3.9212,-3.9396,-3.9166,-3.9111,-3.8958,0.0,0.0,0.0,0.0,0.0,0.0,0.0,0.0,0.0,0.0,0.0,0.0,0.0,0.0,0.0,0.0,0.0,0.0,0.0,0.0,0.0,-3.3213,-3.2861,-3.2448,-3.2028,-3.1676,-3.1542,-3.1542,-3.0709,-2.9858,-2.9057,-2.9459,-2.9626,-2.9704,-2.9225,-2.8696,-2.8059,-2.7619,-2.6784,-2.5861,-2.662,-2.6633,-2.6208,-2.6552,-2.6277,-2.5581,-2.5205,0.0,0.0,0.0,0.0,0.0,0.0,0.0,-2.1816,-2.1787,-2.1622,-2.1361,-2.0727,-1.9399,-1.7652,-1.5835,-1.5479,-1.4582,-1.0869,-1.001,-0.9179,-0.641,-1.4448,-2.3105,-2.6731,-3.4791,-4.0188,-3.7964,-3.804,-3.8528,-3.9021,-3.9108,-3.8733,-3.7733,-3.7594,-3.7594,-3.759,-3.7618,-3.792,-3.8642,-3.8679,-3.8704,-3.8702,-3.9488,-4.03,-4.107,-4.1101,-4.1095,-4.1094,-4.1099,-4.1094,-4.1099,-4.1106,-4.1002,-4.0817,-4.0609,-4.0188,-3.9592,-3.9114,-3.8971,-3.9127,-3.9496,-3.9442,-3.9101,-3.911,-3.8693,-3.8077,-3.8072,-3.8077,-3.7953,0.0,0.0,0.0,0.0,0.0,0.0,0.0,0.0,0.0,0.0,0.0,0.0,0.0,0.0,0.0,0.0,0.0,0.0,0.0,0.0,0.0,-3.3616,-3.3478,-3.3353,-3.3213,-3.2577,-3.2218,-3.2074,-3.1468,-3.0722,-2.9947,-3.0659,-3.0583,-2.9947,-2.9947,-2.9328,-2.835,-2.829,-2.7703,-2.6879,-2.7377,-2.731,-2.6879,-2.6756,-2.6277,-2.5652,-2.4838,-2.4791,-2.4991,-2.4182,0.0,0.0,0.0,0.0,-2.3555,-2.3213,-2.0329,-1.7647,-1.9263,-1.7568,-1.5576,-1.6156,-1.3092,-0.9971,-1.0023,-0.857,-0.3907,0.8072,-0.1819,-1.2683,-1.2677,-2.5463,-3.5684,-3.46,-3.6208,-3.79,-3.8743,-3.8219,-3.772,-3.7595,-3.7591,-3.7596,-3.7587,-3.7745,-3.8083,-3.867,-3.8431,-3.8412,-3.8691,-3.8698,-3.9442,-4.1047,-4.1104,-4.1091,-4.1097,-4.111,-4.111,-4.1091,-4.103,-4.0738,-4.0253,-4.0213,-3.9684,-3.8756,-3.8432,-3.8551,-3.9022,-3.8844,-3.8752,-3.8752,-3.8749,-3.8043,-3.695,-3.6735,-3.6647,-3.662,0.0,0.0,0.0,0.0,0.0,0.0,0.0,0.0,0.0,0.0,0.0,0.0,0.0,0.0,0.0,0.0,0.0,0.0,-3.6508,0.0,0.0,-3.5035,-3.4485,-3.3837,-3.3213,-3.3073,-3.272,-3.2074,-3.2015,-3.1603,-3.0823,-3.0986,-3.0911,-3.0823,-3.0823,-3.0259,-2.9332,-2.9332,-2.9037,-2.862,-2.817,-2.8287,-2.862,-2.8039,-2.7802,-2.759,-2.6663,-2.6553,-2.6598,-2.5062,-2.4893,0.0,0.0,0.0,-2.52,-2.359,-2.0357,-1.7126,-1.6286,-1.5723,-1.6108,-1.9158,-1.4923,-0.9996,-0.9962,-0.2947,0.1208,-0.7235,-1.0984,-1.2666,-1.2676,-1.4779,-1.7635,-2.1153,-3.0653,-3.7656,-3.7789,-3.4742,-3.3779,-3.7182,-3.7593,-3.7602,-3.7621,-3.8394,-3.8853,-3.8715,-3.7394,-3.7224,-3.8634,-3.8703,-3.9444,-4.1052,-4.1104,-4.1103,-4.1094,-4.1108,-4.1106,-4.1099,-4.0757,-4.0129,-3.9268,-3.9039,-3.8976,-3.897,-3.732,-3.7421,-3.8779,-3.8964,-3.8346,-3.7255,-3.7283,-3.7179,-3.6846,-3.5631,-3.5197,-3.5273,0.0,0.0,0.0,0.0,0.0,0.0,0.0,0.0,0.0,0.0,0.0,0.0,0.0,0.0,0.0,-3.6212,-3.6859,-3.7279,-3.7294,-3.7235,-3.6964,-3.6523,-3.5852,-3.529,-3.5029,-3.423,-3.3685,-3.3325,-3.2492,-3.216,-3.2245,-3.1809,-3.1394,-3.0986,-3.0986,-3.0626,-2.9992,-2.9614,-2.943,-2.9442,-2.8352,-2.8597,-2.9442,-2.8444,-2.8262,-2.8287,-2.6979,-2.6564,-2.626,-2.4314,-2.393,-2.4224,-2.4575,0.0,0.0,0.0,-2.1921,-1.9835,-1.6322,-1.5382,-1.6277,-1.977,-1.5284,-0.9996,-0.9966,-0.6436,-0.4601,-1.0062,-1.1969,-1.2692,-1.2668,-1.2723,-1.3349,-1.5265,-2.0137,-2.6911,-3.6279,-3.6061,-3.5799,-3.8165,-3.7949,-3.7588,-3.7596,-3.899,-3.9544,-3.8758,-3.8037,-3.8343,-3.9964,-4.0043,-4.0369,-4.1089,-4.1103,-4.1097,-4.1093,-4.0867,-4.0751,-4.0754,-4.0063,-3.8931,-3.752,-3.7392,-3.7916,-3.8839,-3.7984,-3.7524,-3.737,-3.7474,-3.7334,-3.694,-3.6138,-3.583,-3.5757,-3.5131,-3.4911,-3.4851,0.0,0.0,0.0,0.0,0.0,0.0,0.0,0.0,0.0,0.0,0.0,0.0,0.0,0.0,0.0,0.0,-3.7616,-3.8092,-3.8108,-3.7978,-3.7806,-3.7663,-3.6829,-3.643,-3.643,-3.519,-3.4528,-3.4312,-3.3199,0.0,-3.3213,-3.2648,-3.2101,-3.1542,-3.1542,-3.1151,-3.0501,-3.0131,-3.0149,-3.0254,-2.903,-2.9268,-3.0254,-2.8989,-2.8776,-2.8867,-2.738,-2.6761,-2.6275,-2.3847,-2.3632,-2.4591,-2.5605,-2.5924,0.0,0.0,0.0,-2.3176,-1.7024,-1.6596,-1.8338,-2.0151,-1.6619,-1.226,-1.0413,-0.9976,-1.0038,-0.9986,-1.1424,-1.2679,-1.2717,-1.2701,-1.2694,-1.2693,-1.2711,-1.8726,-3.6021,-3.8432,-3.871,-3.9469,-3.8898,-3.8334,-3.802,-3.9509,-4.0133,-3.922,-3.9253,-3.983,-4.0981,-4.1051,-4.1054,-4.1055,-4.0947,-4.0917,-4.0949,-4.041,-4.0137,-4.0134,-3.895,-3.7653,-3.6291,-3.6291,-3.6689,-3.7352,-3.7874,-3.7396,-3.6266,-3.5728,-3.5718,-3.5943,-3.4918,-3.4478,-3.4479,-3.4473,-3.4194,-3.3767,0.0,0.0,0.0,0.0,0.0,0.0,0.0,0.0,0.0,0.0,0.0,0.0,-3.731,-3.7472,-3.7531,-3.7531,-3.8358,-3.9049,-3.9556,-3.8995,-3.8541,-3.8278,-3.7071,0.0,-3.643,-3.5782,-3.5052,-3.4312,0.0,0.0,-3.3213,-3.3143,-3.3143,-3.3087,-3.3087,-3.2166,-3.0744,-3.1453,-3.1623,-3.1364,-3.0644,-3.0822,-3.1276,-3.0232,-2.9803,-2.9673,-2.8451,-2.8186,-2.7902,-2.4248,-2.5309,-2.7978,-2.6382,-2.5926,-2.6197,0.0,0.0,0.0,-1.7738,-1.9971,-2.4143,-2.1307,-2.0338,-1.832,-1.1567,-0.9979,-1.0018,-0.9966,-1.1446,-1.2715,-1.2741,-1.2728,-1.2683,-1.2733,-1.2672,-1.9278,-3.8094,-4.0734,-4.0751,-4.08,-4.0762,-4.0281,-3.914,-3.9922,-4.0476,-4.0413,-4.0762,-4.0955,-4.0905,-4.0915,-4.0913,-4.0902,-4.0539,-4.0402,-4.0533,-3.9631,-3.9172,-3.9171,-3.7327,-3.6391,-3.6301,-3.6279,-3.5313,-3.3689,-3.5622,-3.6376,-3.6151,-3.4255,-3.3484,-3.348,-3.3417,-3.3403,-3.337,-3.3385,-3.2323,-3.1071,0.0,0.0,0.0,0.0,0.0,0.0,0.0,0.0,0.0,0.0,0.0,0.0,0.0,-3.7879,-3.8165,-3.8165,-3.9156,-3.9935,-4.0237,-3.9868,-3.9523,-3.9312,-3.8222,-3.7648,-3.7648,-3.66,-3.5943,0.0,0.0,-3.4633,-3.5225,-3.4787,-3.4824,-3.5235,-3.3998,-3.2851,-3.2048,-3.1947,-3.198,-3.1921,-3.0438,-3.0749,-3.1936,-3.0733,-3.0804,-3.1219,-2.9172,-2.8225,-2.7775,-2.6896,-2.7468,-2.8733,-2.964,-2.9961,-3.0074,-3.065,-3.0838,-2.9861,-2.5105,-2.1401,-1.8162,-1.4649,-1.7227,-1.9897,-1.7391,-1.3275,-0.9974,-1.0019,-1.0484,-1.1295,-1.2531,-1.2741,-1.2687,-1.2687,-1.2721,-1.7723,-3.2272,-3.4294,-3.4282,-3.4298,-3.8209,-3.9942,-3.7531,-3.9402,-3.9935,-3.7955,-3.9517,-4.0563,-4.0519,-3.8878,-3.7954,-3.7951,-3.8816,-3.8785,-3.7808,-3.7488,-3.7309,-3.7277,-3.6603,-3.5633,-3.4393,-3.4341,-3.3344,-3.1659,-3.3555,-3.4371,-3.4333,-3.3607,-3.3282,-3.3201,-3.199,-3.1564,-3.1541,-3.1539,-3.1129,-3.0702,0.0,0.0,0.0,0.0,0.0,0.0,0.0,0.0,0.0,-3.7706,0.0,0.0,0.0,0.0,-3.9156,-3.9387,-4.012,-4.0645,-4.0832,-4.0563,-4.0353,-4.0221,-3.9246,-3.8635,-3.8486,-3.7456,-3.6874,0.0,0.0,0.0,-3.6723,-3.6213,-3.6307,-3.672,-3.5473,-3.4435,-3.3442,-3.3259,-3.3029,-3.2609,-3.1078,-3.1177,-3.2191,-3.1437,-3.1634,-3.2197,-3.0454,-2.9596,-2.9068,-2.8716,-2.8611,-2.89,-3.0525,-3.1541,-3.2233,-3.223,-3.2233,-3.1862,-3.0177,-2.4836,-1.8768,-1.4626,-1.5298,-1.7677,-2.0081,-1.5079,-1.0168,-1.0773,-1.0874,-1.125,-1.2508,-0.9596,-0.6269,-0.4032,-0.8744,-1.5514,-2.346,-2.8051,-3.0603,-3.0598,-3.578,-3.8541,-3.6499,-3.8148,-3.8498,-3.6451,-3.7939,-3.8947,-3.8951,-3.6612,-3.5598,-3.627,-3.6665,-3.6385,-3.5307,-3.5304,-3.499,-3.4407,-3.4382,-3.3673,-3.2379,-3.2385,-3.1717,-3.0688,-3.1868,-3.2415,-3.2391,-3.24,-3.2364,-3.2285,-3.1063,-3.0628,-3.0587,-3.0586,-3.0602,-3.0573,0.0,0.0,0.0,0.0,0.0,0.0,0.0,0.0,-3.8334,-3.8334,0.0,0.0,0.0,0.0,0.0,-4.1146,-4.1128,-4.1094,-4.1303,-4.1139,-4.0926,-4.0802,-3.9985,-3.9337,-3.8962,0.0,0.0,0.0,0.0,0.0,0.0,-3.7413,-3.7488,-3.7472,-3.7764,-3.6788,-3.4927,-3.5474,-3.4851,-3.3446,-3.2714,-3.2226,-3.2017,-3.229,-3.241,-3.2363,-3.23,-3.2302,-3.1995,-2.952,-2.8677,-2.8691,-2.861,-3.0255,-3.2231,-3.2226,-3.2179,-3.2198,0.0,0.0,0.0,-2.2139,-1.5508,-1.2022,-1.8743,-1.5193,-1.0913,-1.2706,-1.2902,-1.2705,-1.2735,-0.3668,0.592,1.2244,-0.1324,-1.2706,-1.2709,-2.2958,-3.054,-3.0576,-3.3869,-3.6185,-3.6309,-3.6236,-3.6221,-3.6227,-3.62,-3.6254,-3.6285,-3.4381,-3.4158,-3.6092,-3.4252,-3.3209,-3.3224,-3.324,-3.2361,-3.0583,-3.0586,-3.0608,-3.0585,-3.0594,-3.06,-3.0607,-3.0616,-3.0602,-3.0592,-3.0577,-3.0611,-3.0616,-3.0631,-3.0568,-3.0597,-3.0492,-3.0477,-3.0458,0.0,0.0,0.0,0.0,0.0,0.0,-3.843,-3.8865,-3.9276,0.0,0.0,0.0,-4.0368,-4.0792,-4.1305,-4.1817,-4.1943,-4.2026,-4.2003,-4.1664,-4.1276,-4.096,-4.0431,-4.0119,-3.9986,0.0,0.0,0.0,0.0,0.0,-3.8469,-3.8469,-3.8816,-3.9332,-3.9368,-3.8605,-3.7267,-3.6489,-3.5243,-3.379,-3.2787,-3.2363,-3.2304,-3.2354,-3.2394,-3.2186,-3.0332,-3.0572,-3.1633,-3.0924,-3.0722,-3.0432,-2.9018,-3.0242,-3.2171,-3.2208,-3.2205,-3.2177,-3.2222,0.0,0.0,0.0,0.0,0.0,-1.3635,-1.7187,-2.1183,-2.1748,-1.6959,-1.2725,-1.2679,-1.0098,-0.7388,-0.5586,-0.9465,-1.27,-1.2699,-2.1308,-2.8389,-3.036,-3.1548,-3.3246,-3.6032,-3.4972,-3.4118,-3.4124,-3.4129,-3.476,-3.6222,-3.4376,-3.295,-3.2191,-3.1665,-3.1343,-3.1363,-3.1354,-3.107,-3.0615,-3.0616,-3.0602,-3.0598,-3.0606,-3.0603,-3.0606,-3.0577,-3.06,-3.063,-3.0571,-3.0574,-3.06,-3.0597,-3.0608,-3.0369,-2.8352,-2.7618,-2.7894,0.0,0.0,0.0,0.0,0.0,-3.9609,-3.9508,-3.9714,-3.9952,0.0,0.0,0.0,-4.1087,-4.1594,-4.2078,-4.2623,-4.2737,-4.283,-4.2886,-4.2564,-4.223,-4.2021,-4.1629,-4.1278,-4.0932,-4.0569,-4.0101,0.0,0.0,0.0,0.0,-3.9647,-3.9834,-4.0048,-4.0243,-3.9714,-3.8701,-3.8116,-3.6645,-3.4598,-3.4005,-3.3744,-3.3614,-3.246,-3.2026,-3.1819,-3.0315,-3.0552,-3.1524,-3.1507,-3.0939,-3.0264,-3.023,-3.1166,-3.2526,-3.3652,-3.3137,-3.2174,-3.2222,-3.0365,-2.8479,-2.851,0.0,0.0,-1.797,-2.1515,-2.474,-2.0803,-1.923,-1.8461,-1.8439,-1.8434,-1.8439,-1.8443,-1.8421,-1.8461,-1.8455,-2.4097,-2.8801,-3.0391,-3.2006,-3.3201,-3.3874,-3.3551,-3.3287,-3.3283,-3.2583,-3.2688,-3.3833,-3.2813,-3.1697,-3.0641,-3.0573,-3.0042,-2.8887,-3.0012,-3.0628,-3.0614,-2.9415,-2.9512,-3.0588,-3.0602,-2.9954,-2.8919,-2.8922,-2.8876,-2.8876,-2.8885,-2.8903,-2.8856,-2.8871,-2.8893,-2.8673,-2.7079,-2.6479,-2.6739,0.0,0.0,-4.0171,-4.058,-4.0303,-4.0171,-4.058,-4.0563,-4.0497,0.0,-4.0625,-4.0978,-4.1848,-4.2318,-4.285,-4.3471,-4.3572,-4.3656,-4.3772,-4.359,-4.3437,-4.3369,-4.305,-4.2567,-4.1848,-4.1757,-4.1402,0.0,0.0,0.0,0.0,-4.0891,-4.0747,-4.0308,0.0,-4.0412,-3.954,-3.9764,-3.8356,-3.5872,-3.5667,-3.5559,-3.5281,-3.2809,-3.1711,-3.1516,-3.1509,-3.1479,-3.1556,-3.1809,-3.0767,-2.9765,-3.2014,-3.2739,-3.3244,-3.5676,-3.4614,-3.2661,-3.2954,-3.144,-2.9775,-2.9767,-2.9376,0.0,-2.71,-2.6714,-2.4422,-1.6171,-2.0895,-2.6481,-2.6504,-2.674,-2.6843,-2.6546,-2.7112,-2.7423,-2.7031,-2.9217,-3.091,-3.0893,-3.3903,-3.4639,-3.1239,-3.2345,-3.3288,-3.3319,-3.162,-3.06,-3.0588,-3.0337,-3.0148,-3.015,-3.0163,-2.8947,-2.6505,-2.8891,-2.9955,-2.9577,-2.7154,-2.7417,-3.0117,-3.0121,-2.8817,-2.6518,-2.6479,-2.6492,-2.6518,-2.6483,-2.6501,-2.6531,-2.6505,-2.6517,-2.6467,-2.6509,-2.6509,-2.6518,-4.1013,-4.0967,-4.0891,-4.0943,-4.0849,-4.0819,-4.0871,-4.0884,-4.099,-4.13,-4.1997,-4.2698,-4.3265,-4.3738,-4.4063,-4.4205,-4.4549,-4.4651,-4.435,-4.4063,-4.3701,-4.3339,-4.3067,-4.2793,-4.2582,-4.2641,-4.2451,-4.2032,0.0,0.0,0.0,-4.2141,-4.2105,-4.2016,-4.2002,-4.1564,-4.0664,-3.9206,-3.8219,-3.7551,-3.6156,-3.5385,-3.4971,-3.4431,-3.3085,-3.1519,-3.1497,-3.1497,-3.1774,-3.3614,-3.4234,-3.431,-3.4819,-3.4994,-3.5086,-3.5609,-3.5414,-3.5484,-3.7886,-3.8231,-3.781,-3.7857,-3.464,0.0,-2.8684,-2.8168,-2.7665,-2.5883,-2.6046,-2.6503,-2.6483,-2.8337,-2.9074,-2.6878,-3.0928,-3.3289,-3.0256,-3.1555,-3.2795,-3.2786,-3.3458,-3.3574,-3.2838,-3.3081,-3.3277,-3.3324,-3.1627,-3.0586,-3.0582,-2.851,-2.7273,-2.7289,-2.7284,-2.704,-2.6489,-2.7036,-2.605,-2.3479,-2.296,-2.4312,-2.7328,-2.7278,-2.6987,-2.6507,-2.6507,-2.6535,-2.6535,-2.6525,-2.6489,-2.6501,-2.6502,-2.6521,-2.6482,-2.6521,-2.6515,-2.6482,-4.1803,-4.163,-4.1455,-4.1622,-4.1569,-4.1595,-4.1778,-4.1955,-4.2126,-4.2342,-4.3032,-4.3597,-4.3887,-4.4417,-4.4768,-4.4811,-4.5011,-4.5058,-4.4848,-4.4706,-4.4492,-4.4277,-4.4102,-4.3897,-4.3645,-4.3627,-4.3412,-4.3057,0.0,0.0,0.0,-4.2941,-4.2904,-4.2804,-4.294,-4.2632,-4.1814,-3.9282,-3.8202,-3.8114,-3.7229,-3.6078,-3.4905,-3.4906,-3.418,-3.322,-3.3187,-3.3176,-3.3355,-3.4495,-3.505,-3.5295,-3.554,-3.5573,-3.5402,-3.4308,-3.4758,-3.5942,-3.7448,-3.8938,-4.0081,-4.0117,-3.81,0.0,0.0,-3.0007,-2.9572,-2.9625,-2.9021,-2.8132,-2.6729,-2.7605,-2.8546,-2.8566,-3.29,-3.5002,-3.1125,-3.139,-3.2268,-3.3208,-3.3269,-3.3324,-3.33,-3.3278,-3.2906,-3.2007,-3.1086,-3.0606,-3.0587,-2.7994,-2.6511,-2.6521,-2.4943,-2.4167,-2.4132,-2.416,-2.3346,-2.1795,-2.1406,-2.2037,-2.3575,-2.353,-2.3537,-2.3593,-2.357,-2.3807,-2.4134,-2.4134,-2.3925,-2.3735,-2.5727,-2.651,-2.6296,-2.4779,-2.5182,-2.6513,-4.2573,-4.2315,-4.2092,-4.2374,-4.2364,-4.2447,-4.2714,-4.2996,-4.3211,-4.3332,-4.3751,-4.4139,-4.4288,-4.482,-4.5203,-4.5244,-4.5284,-4.5323,-4.5342,-4.5321,-4.5282,-4.5285,-4.5182,-4.4973,-4.4616,-4.453,-4.4322,-4.398,0.0,0.0,0.0,-4.3738,-4.366,-4.3483,-4.3564,-4.343,-4.3023,-3.9827,-3.8456,-3.8462,-3.8489,-3.7019,-3.4903,-3.4899,-3.4906,-3.4906,-3.4931,-3.4883,-3.4923,-3.4908,-3.507,-3.5411,-3.6118,-3.6024,-3.5235,-3.3532,-3.4611,-3.6394,-3.637,-3.7784,-3.9487,-4.0377,-4.0637,-3.9508,0.0,0.0,0.0,-3.1844,-3.1712,-3.1016,-2.881,-2.7808,-2.8279,-3.122,-3.3826,-3.4349,-3.1233,-3.1259,-3.2029,-3.3075,-3.3276,-3.3313,-3.3297,-3.2951,-3.219,-3.0734,-3.061,-3.0375,-2.9871,-2.7143,-2.5578,-2.5612,-2.3116,-2.1765,-2.1576,-2.1603,-2.1597,-2.1562,-2.0951,-2.0246,-1.9639,-1.9563,-1.9612,-1.9639,-2.0325,-2.0943,-2.1574,-2.1532,-2.1185,-2.0933,-2.4288,-2.5611,-2.5274,-2.2739,-2.3408,-2.5587,-4.2957,-4.3014,-4.3069,-4.2958,-4.3105,-4.3194,-4.3087,-4.3248,-4.3586,-4.4158,-4.4298,-4.453,-4.5014,-4.5304,-4.5454,-4.5454,-4.5626,-4.5776,-4.5892,-4.5699,-4.5549,-4.5549,-4.5381,-4.5182,-4.5032,-4.509,-4.5044,-4.495,-4.4973,0.0,0.0,-4.4992,-4.4931,-4.4753,-4.3653,-4.3603,-4.4105,-4.0833,-3.9443,-3.9438,-3.9444,-3.7614,-3.4902,-3.4902,-3.4871,-3.4891,-3.4897,-3.4903,-3.488,-3.488,-3.5723,-3.7041,-3.8652,-3.7522,-3.5557,-3.5304,-3.7091,-3.9133,-3.9158,-3.7664,-3.7145,-4.1498,-4.2597,-4.2427,-4.1799,0.0,-3.8957,-3.6207,0.0,-3.5529,-3.5255,0.0,0.0,-3.5038,-3.3825,-3.2139,-3.142,-3.363,-3.4694,-3.3061,-3.3098,-3.3319,-3.3308,-3.1884,-3.08,-3.0592,-3.0586,-2.9522,-2.7085,-2.4006,-2.2321,-2.2302,-2.1988,-2.147,-2.0761,-2.0713,-2.0762,-2.0729,-2.0639,-1.8949,-1.5958,-1.595,-1.6022,-1.619,-1.9286,-2.068,-2.075,-2.0752,-2.0654,-2.0702,-2.1871,-2.2304,-2.2296,-2.1921,-2.2007,-2.2295,-4.3408,-4.3442,-4.3511,-4.3424,-4.3627,-4.3772,-4.3689,-4.3967,-4.4299,-4.4612,-4.4867,-4.5144,-4.54,-4.564,-4.5789,-4.5789,-4.5907,-4.5988,-4.6007,-4.5919,-4.5894,-4.5891,-4.5813,-4.5744,-4.568,-4.5708,-4.5712,-4.568,-4.5505,-4.5445,0.0,-4.5265,-4.5173,-4.509,-4.4556,-4.4398,-4.4282,-4.098,-3.9602,-3.9563,-3.9024,-3.8003,-3.6798,-3.6808,-3.6028,-3.4922,-3.4886,-3.4925,-3.4886,-3.4908,-3.6524,-3.8737,-3.9912,-3.9206,-3.7807,-3.7277,-3.791,-3.8898,-3.9445,-3.8366,-3.7596,-3.9661,-4.1548,-4.2907,-4.2904,-4.265,-4.1737,-3.9427,0.0,0.0,0.0,0.0,0.0,0.0,-3.6422,-3.5596,-3.2888,-3.5816,-3.7284,-3.4794,-3.4171,-3.3741,-3.3336,-3.2579,-3.1605,-3.0251,-2.8967,-2.7722,-2.656,-2.4816,-2.2965,-2.1185,-2.1094,-2.0948,-2.0585,-1.8592,-1.7547,-1.7565,-1.7577,-1.6847,-1.5427,-1.536,-1.5435,-1.5516,-1.6952,-1.7568,-1.7557,-1.7569,-1.8744,-2.0614,-2.0981,-2.139,-2.1832,-2.1816,-2.1837,-2.1793,-4.3923,-4.3841,-4.3809,-4.3809,-4.403,-4.4229,-4.4279,-4.465,-4.4919,-4.4969,-4.5284,-4.5568,-4.5699,-4.5887,-4.6009,-4.6034,-4.6067,-4.6065,-4.6065,-4.6102,-4.6135,-4.6147,-4.6136,-4.6139,-4.6133,-4.6111,-4.6102,-4.6092,-4.5859,-4.5744,0.0,-4.5509,-4.5398,-4.5341,-4.5357,-4.5052,-4.4285,-4.0998,-3.9595,-3.9539,-3.8852,-3.8432,-3.8162,-3.7955,-3.6859,-3.5496,-3.5496,-3.5496,-3.5471,-3.5473,-3.7022,-3.9108,-4.0402,-4.0079,-3.9119,-3.8713,-3.859,-3.8738,-3.9428,-3.8907,-3.8076,-3.7606,-4.0609,-4.3688,-4.3697,-4.3947,-4.3834,-4.2551,-4.331,0.0,0.0,0.0,-3.8787,-3.8755,0.0,-3.9192,-3.6465,-3.8356,-3.906,-3.6486,-3.5368,-3.4959,-3.5322,-3.4798,-3.3501,-3.1229,-2.893,-2.7271,-2.6534,-2.5726,-2.4279,-2.1945,-2.108,-2.0621,-2.0564,-1.7146,-1.5378,-1.536,-1.5427,-1.542,-1.542,-1.5372,-1.5365,-1.542,-1.542,-1.536,-1.5427,-1.5382,-1.6887,-1.9277,-2.0201,-2.0997,-2.146,-2.1456,-2.1624,-2.1834,-4.4468,-4.4277,-4.4109,-4.4109,-4.4306,-4.456,-4.4745,-4.5007,-4.5263,-4.5454,-4.5551,-4.5701,-4.5945,-4.5991,-4.6026,-4.6091,-4.603,-4.6065,-4.6201,-4.6215,-4.6231,-4.6288,-4.6227,-4.6201,-4.6191,-4.6132,-4.6097,-4.6091,-4.6091,-4.6085,0.0,-4.6013,-4.5902,-4.5771,-4.577,-4.5303,-4.4268,-4.0994,-3.9602,-3.9591,-3.9573,-3.9021,-3.8114,-3.734,-3.6992,-3.6913,-3.6913,-3.6913,-3.6939,-3.6939,-3.7005,-3.7517,-4.0024,-3.9614,-3.8401,-3.9294,-3.9551,-3.9551,-3.9588,-3.8902,-3.779,-3.6094,-4.0739,-4.5697,-4.5713,-4.5817,-4.5889,-4.5841,-4.5866,-4.5914,-4.5849,-4.5359,-4.5002,-4.5006,-4.2564,0.0,0.0,-4.1497,-3.9537,-3.7584,-3.6462,-3.7141,-4.033,-3.8647,-3.6484,-3.442,-3.1905,-2.9334,-2.6649,-2.5716,-2.5241,-2.5121,-2.2178,-2.0584,-2.0622,-1.7111,-1.5367,-1.5427,-1.5426,-1.5423,-1.5423,-1.5423,-1.5423,-1.5423,-1.5423,-1.5416,-1.5401,-1.5412,-1.5434,-1.5916,-1.9277,-2.0595,-2.0634,-2.0641,-2.109,-2.1808,-4.4688,-4.477,-4.4776,-4.4599,-4.4795,-4.4981,-4.5052,-4.5264,-4.5418,-4.549,-4.5632,-4.5819,-4.6027,-4.6072,-4.6093,-4.6147,-4.6181,-4.6208,-4.6209,-4.6198,-4.6228,-4.6308,-4.6189,-4.6153,-4.6192,-4.6125,-4.6119,-4.6178,-4.6119,-4.6131,0.0,0.0,-4.6014,-4.5916,-4.5853,-4.5648,-4.5111,-4.1231,-3.9599,-3.9589,-3.9608,-3.9036,-3.8116,-3.731,-3.6978,-3.7013,-3.6998,-3.7003,-3.6978,-3.7013,-3.6988,-3.7156,-3.8016,-3.8245,-3.8264,-3.8566,-3.867,-3.8658,-3.8682,-3.8889,-3.9111,-3.9063,-4.0785,-4.308,-4.5297,-4.5905,-4.6001,-4.5993,-4.61,-4.6156,-4.6013,-4.5856,-4.5669,-4.5367,-4.4289,-4.3613,0.0,-4.303,-4.1904,-4.0963,-3.9208,-3.8204,-3.8605,-3.7943,-3.6635,-3.4546,-3.2038,-3.0207,-2.927,-2.7206,-2.5881,-2.5301,-2.2221,-2.0579,-2.0632,-1.9414,-1.7691,-1.5435,-1.5433,-1.5431,-1.5431,-1.5431,-1.5431,-1.5431,-1.5431,-1.5365,-1.5427,-1.5375,-1.5375,-1.5769,-1.9231,-2.0575,-2.0692,-2.1215,-2.1597,-2.166,-4.4943,-4.514,-4.5223,-4.4966,-4.5142,-4.5323,-4.5323,-4.5472,-4.561,-4.561,-4.5761,-4.5938,-4.6066,-4.6105,-4.6153,-4.6221,-4.6248,-4.6261,-4.6249,-4.6239,-4.6251,-4.6309,-4.6182,-4.6162,-4.6234,-4.615,-4.6146,-4.6231,-4.6166,-4.6172,0.0,0.0,-4.6105,-4.6065,-4.5953,-4.5872,-4.5536,-4.1358,-3.9615,-3.9604,-3.9586,-3.9245,-3.8689,-3.8458,-3.7811,-3.7023,-3.6998,-3.7016,-3.7053,-3.7332,-3.7256,-3.7006,-3.6988,-3.7566,-3.8193,-3.8182,-3.8191,-3.8193,-3.8186,-3.8643,-3.9234,-3.9757,-4.0334,-4.1676,-4.5044,-4.5891,-4.5576,-4.4052,-4.5046,-4.5959,-4.5205,-4.5476,-4.5718,-4.5347,-4.5062,-4.472,0.0,-4.3823,-4.334,-4.2978,-4.1364,-3.9846,-3.8819,-3.8712,-3.8121,-3.6789,-3.4451,-3.2367,-3.0683,-2.8937,-2.7169,-2.5336,-2.2226,-2.0627,-2.0635,-2.0591,-1.8887,-1.5442,-1.5434,-1.5372,-1.5431,-1.5431,-1.5431,-1.5431,-1.5431,-1.5418,-1.5532,-1.6706,-1.7268,-1.7505,-1.9711,-2.0575,-2.0624,-2.1148,-2.112,-2.0679,-4.5222,-4.5381,-4.5454,-4.5244,-4.5381,-4.5507,-4.5507,-4.5692,-4.58,-4.58,-4.593,-4.6027,-4.6085,-4.6104,-4.6153,-4.6287,-4.6236,-4.6222,-4.6307,-4.6308,-4.6292,-4.6306,-4.6231,-4.6225,-4.6293,-4.617,-4.6156,-4.6297,-4.6231,-4.623,0.0,0.0,-4.6191,-4.6191,-4.6144,-4.5994,-4.5543,-4.1412,-3.964,-3.9599,-3.9589,-3.96,-3.9676,-4.043,-3.9199,-3.7051,-3.7019,-3.7041,-3.722,-3.799,-3.7703,-3.7006,-3.6987,-3.7542,-3.8223,-3.8197,-3.8192,-3.8204,-3.8182,-3.8205,-3.8192,-3.8181,-3.9452,-4.1499,-4.4689,-4.5719,-4.4833,-4.0746,-4.3034,-4.5311,-4.3803,-4.4583,-4.5442,-4.5342,-4.503,-4.4599,-4.4079,-4.4005,-4.3878,-4.3548,-4.2745,-4.194,-4.1111,-4.0966,-4.082,-4.0701,-3.8711,-3.5507,-3.0826,-3.0588,-2.8985,-2.5453,-2.2407,-2.0785,-2.0596,-2.0635,-1.8975,-1.5652,-1.5457,-1.5427,-1.5416,-1.5423,-1.5431,-1.5431,-1.5423,-1.5411,-1.5703,-1.9181,-2.06,-2.0622,-2.0622,-2.0566,-2.0615,-2.0671,-2.0009,-1.9132,-4.5418,-4.5574,-4.5708,-4.5658,-4.5692,-4.5723,-4.5723,-4.5766,-4.58,-4.58,-4.593,-4.6027,-4.6085,-4.6143,-4.6212,-4.6287,-4.6278,-4.6273,-4.6308,-4.625,-4.6247,-4.63,-4.6182,-4.6162,-4.6222,-4.6137,-4.6133,-4.6239,-4.6205,-4.6222,-4.6308,0.0,-4.6269,-4.6269,-4.6258,-4.6164,-4.5769,-4.2069,-4.0156,-3.9599,-3.959,-3.9588,-3.9632,-3.9815,-3.9053,-3.7824,-3.7232,-3.7666,-3.8624,-3.9097,-3.8244,-3.6989,-3.6991,-3.7533,-3.8194,-3.8192,-3.8192,-3.8207,-3.8219,-3.8212,-3.8214,-3.8193,-3.8534,-3.911,-3.9938,-4.3194,-4.5696,-4.4591,-4.333,-4.3,-4.4843,-4.5182,-4.5252,-4.5419,-4.5074,-4.4599,-4.4079,-4.4005,-4.3878,-4.3548,-4.3282,-4.3073,-4.2853,-4.1646,-4.0004,-3.778,-3.7539,-3.5512,-3.083,-3.0625,-2.9252,-2.6274,-2.4803,-2.2963,-2.0605,-2.0633,-2.0136,-1.9188,-1.6644,-1.5368,-1.542,-1.5372,-1.5431,-1.5423,-1.5381,-1.5413,-1.5632,-1.9128,-2.0622,-2.0566,-2.0566,-2.0566,-2.0635,-2.129,-2.0471,-1.912,-4.561,-4.5723,-4.58,-4.58,-4.58,-4.58,-4.58,-4.5838,-4.5877,-4.5877,-4.5988,-4.6065,-4.6143,-4.6181,-4.6231,-4.6287,-4.6308,-4.6308,-4.6308,-4.6269,-4.6269,-4.6308,-4.6237,-4.6215,-4.623,-4.6175,-4.6187,-4.6244,-4.622,-4.6231,-4.6308,0.0,-4.6308,-4.6308,-4.6305,-4.623,-4.5839,-4.1944,-4.0022,-3.9595,-3.9588,-3.9599,0.0,-3.9593,-3.9258,-3.8693,-3.7822,-3.8041,-3.8794,-3.9413,-3.8951,-3.8127,-3.8135,-3.8176,-3.8194,-3.8192,-3.8192,-3.8192,-3.8192,-3.8192,-3.8189,-3.8209,-3.7635,-3.7062,-3.7045,-3.9914,-4.2577,-4.2602,-4.1759,-4.1654,-4.3682,-4.4279,-4.4633,-4.5126,-4.4872,-4.4484,-4.4048,-4.4005,-4.3878,-4.3548,-4.3506,-4.3483,-4.3483,-4.2596,-4.1028,-3.8605,-3.7494,-3.586,-3.3301,-3.1535,-2.9357,-2.657,-2.5733,-2.4455,-2.2676,-2.1251,-2.0631,-2.0556,-1.8647,-1.6887,-1.5427,-1.5435,-1.5397,-1.539,-1.5375,-1.6283,-1.7843,-1.9822,-2.0596,-2.0641,-2.0609,-2.146,-2.2703,-2.3189,-2.136,-1.863,-4.5752,-4.58,-4.58,-4.58,-4.58,-4.58,-4.58,-4.5896,-4.5969,-4.5969,-4.6054,-4.6119,-4.6177,-4.6203,-4.6249,-4.6288,-4.6308,-4.6308,-4.6308,-4.6308,-4.6308,-4.6308,-4.6308,-4.6308,-4.6308,-4.623,-4.623,-4.6308,-4.6236,-4.6244,0.0,0.0,-4.6308,-4.6308,-4.6294,-4.624,-4.5812,-4.145,-3.9602,-3.9599,-3.9599,-3.9602,-3.9596,-3.9605,-3.96,-3.949,-3.8682,-3.8303,-3.8318,-3.9134,-3.9418,-3.94,-3.9436,-3.8847,-3.82,-3.8194,-3.8192,-3.8192,-3.8194,-3.8034,-3.7873,-3.7843,-3.6878,-3.591,-3.5793,-3.6838,-3.7908,-3.8025,-3.9406,-4.0765,-4.1305,-4.2527,-4.3682,-4.4442,-4.4373,-4.4106,-4.374,-4.3832,-4.3822,-4.3536,-4.3506,0.0,-4.319,-4.3155,-4.2654,-4.1334,-3.8562,-3.6821,-3.6648,-3.3006,-2.9645,-2.6867,-2.6097,-2.5606,-2.5312,-2.2593,-2.1213,-2.1252,-2.0817,-1.9036,-1.6102,-1.6046,-1.6053,-1.6053,-1.611,-1.7766,-2.0595,-2.0575,-2.0811,-2.1186,-2.1238,-2.3103,-2.5739,-2.5948,-2.3024,-1.9033,-4.5752,-4.58,-4.58,-4.58,-4.58,-4.58,-4.58,-4.5819,-4.5838,-4.5838,-4.5997,-4.6099,-4.6119,-4.6216,-4.6282,-4.6308,-4.6308,-4.6308,-4.6308,-4.6308,-4.6308,-4.6308,-4.6308,-4.6308,-4.6308,-4.6289,-4.6289,-4.6308,-4.6284,-4.6284,-4.6308,-4.6308,-4.6308,-4.6308,-4.6303,-4.624,-4.5796,-4.1454,-3.9597,-3.9594,-3.9583,-3.9602,-3.9596,-3.959,-3.9619,-3.9591,-3.9407,-3.8849,-3.8217,-3.8382,-3.8449,-3.8456,-3.846,-3.8328,-3.8204,-3.8204,-3.8192,-3.8212,-3.8187,-3.7167,-3.6058,-3.6046,-3.6923,-3.7574,-3.6834,-3.6357,-3.6278,-3.7,-3.8417,-3.9516,-3.9445,-4.0818,-4.2249,-4.317,-4.3339,-4.3066,-4.2293,-4.3003,-4.3577,-4.3502,-4.348,-4.2951,-4.1479,-4.1364,-4.1842,-4.2979,-4.1222,-3.9272,-3.7409,-3.448,-3.1409,-2.8304,-2.808,-2.7135,-2.5293,-2.472,-2.4478,-2.4464,-2.1847,-2.0272,-1.9669,-1.9725,-1.9714,-1.9705,-1.9717,-2.0033,-2.0569,-2.0565,-2.2155,-2.4469,-2.4504,-2.5936,-2.817,-2.9282,-2.7406,-2.3972,-4.5752,-4.58,-4.58,-4.58,-4.58,-4.58,-4.58,-4.58,-4.5819,-4.5877,-4.6065,-4.6152,-4.6156,-4.6246,-4.6308,-4.6308,-4.6308,-4.6308,-4.6308,-4.6308,-4.6308,-4.6308,-4.6308,-4.6308,-4.6308,-4.6308,-4.6308,-4.6308,-4.6308,-4.6308,-4.6308,-4.6308,-4.6308,-4.6308,-4.6225,-4.5401,-4.3925,-4.1648,-4.0267,-3.9599,-3.9613,-3.9602,-3.9602,-3.9602,-3.9602,-3.96,-3.96,-3.9312,-3.885,-3.8346,-3.821,-3.82,-3.8199,-3.82,-3.8212,-3.8189,-3.8192,-3.8194,-3.8202,-3.7272,-3.6257,-3.6249,-3.6905,-3.7297,-3.6422,-3.6365,-3.6435,-3.6256,-3.7198,-3.8196,-3.8707,-4.0257,-4.156,-4.1941,-4.2686,-4.293,-4.2228,-4.2406,-4.2844,-4.3427,-4.3511,-4.2811,-4.1086,-4.0889,-4.1261,-4.2068,-4.1388,-3.9156,-3.5047,-3.3548,-3.1529,-2.868,-2.8616,-2.812,-2.6985,-2.7011,-2.6469,-2.5289,-2.3746,-2.3028,-2.3014,-2.3029,-2.3073,-2.3062,-2.3047,-2.3003,-2.315,-2.4281,-2.4956,-2.5402,-2.6571,-2.7683,-2.8707,-2.975,-2.9272,-2.7601,-4.5708,-4.5766,-4.58,-4.58,-4.58,-4.58,-4.58,-4.58,-4.5838,-4.5949,-4.6065,-4.6161,-4.6153,-4.6229,-4.6289,-4.6289,-4.6289,-4.6308,-4.6308,-4.6308,-4.6308,-4.6308,-4.6308,-4.6308,-4.6308,-4.6308,-4.6308,-4.6308,-4.6308,-4.6211,-4.6035,-4.6211,-4.619,-4.5997,-4.5774,-4.4374,-4.2145,-4.1514,-4.061,-3.9596,-3.9599,-3.9602,-3.9602,-3.9602,-3.9602,-3.9602,-3.9602,-3.9614,-3.9488,-3.8748,-3.849,-3.8462,-3.824,-3.8204,-3.8186,-3.8207,-3.8192,-3.814,-3.7985,-3.7379,-3.679,-3.6649,-3.6702,-3.6594,-3.5797,-3.6292,-3.6696,-3.5786,-3.6157,-3.6886,-3.7873,-3.9295,-4.0397,-4.0556,-4.1689,-4.2406,-4.1965,-4.1842,-4.2061,-4.2695,-4.2791,-4.2242,-4.0845,-4.072,-4.0745,-4.075,-4.015,-3.7719,-3.3102,-3.2568,-3.1456,-2.9491,-2.8856,-2.8575,-2.8619,-2.8584,-2.7747,-2.599,-2.5984,-2.6015,-2.6,-2.6005,-2.5992,-2.6,-2.6571,-2.6653,-2.654,-2.831,-2.7957,-2.6565,-2.8332,-2.9079,-2.9185,-2.9663,-3.0155,-3.0003,-4.5524,-4.5673,-4.58,-4.58,-4.58,-4.58,-4.58,-4.58,-4.58,-4.5819,-4.5949,-4.6028,-4.6007,-4.6124,-4.6211,-4.6211,-4.6269,-4.6308,-4.6308,-4.6308,-4.6308,-4.6308,-4.6308,-4.6308,-4.6308,-4.6308,-4.6308,-4.6308,-4.6308,-4.5898,-4.5137,-4.5937,-4.5843,-4.5021,-4.4502,-4.352,-4.2082,-4.0471,-3.9705,-3.9607,-3.9602,-3.9602,-3.9602,-3.9602,-3.9602,-3.9602,-3.9602,-3.9596,-3.959,-3.9489,-3.948,-3.9305,-3.848,-3.8191,-3.8214,-3.8186,-3.8192,-3.802,-3.7226,-3.6784,-3.6409,-3.5874,-3.612,-3.6351,-3.5732,-3.5698,-3.5749,-3.561,-3.5644,-3.5742,-3.5872,-3.6627,-3.7592,-3.8656,-3.9572,-4.0164,-4.0285,-4.1194,-4.147,-4.0539,-4.0408,-4.0331,-4.0203,-4.0155,-4.0197,-4.015,-3.7652,-3.5578,-3.4394,-3.3068,-3.2311,-3.2071,-2.9765,-2.8605,-2.8629,-2.8623,-2.8518,-2.8306,-2.8289,-2.83,-2.8275,-2.8289,-2.8262,-2.8393,-3.0708,-3.1097,-3.0043,-3.0214,-3.0192,-3.0007,-3.0244,-3.0525,-3.0807,-3.0502,-3.0438,-3.024,-4.5284,-4.5472,-4.5626,-4.5626,-4.5723,-4.58,-4.58,-4.58,-4.58,-4.58,-4.593,-4.5996,-4.6002,-4.6085,-4.613,-4.6147,-4.6205,-4.623,-4.623,-4.6289,-4.6308,-4.6308,-4.6308,-4.6308,-4.6308,-4.6308,-4.6273,-4.6247,-4.6273,-4.6095,-4.5741,-4.6072,-4.5732,-4.4772,-4.3511,-4.2535,-4.1679,-4.0222,-3.9607,-3.9602,-3.9602,-3.9602,-3.9602,-3.9602,-3.9602,-3.9602,-3.9602,-3.9602,-3.9602,-3.9602,-3.9608,-3.9438,-3.8504,-3.8186,-3.8198,-3.8189,-3.8192,-3.8106,-3.7774,-3.7396,-3.7046,-3.6825,-3.676,-3.6617,-3.6122,-3.6002,-3.5958,-3.5667,-3.5316,-3.5128,-3.5115,-3.5723,-3.643,-3.7017,-3.9183,-4.0639,-4.0182,-4.0473,-4.0593,-4.0132,-4.0096,-4.0098,-4.0103,-3.8081,-3.7392,-3.8897,-3.7731,-3.6537,-3.548,-3.3492,-3.2428,-3.24,-3.1392,-3.0866,-3.0855,-3.0104,-3.0086,-3.0877,-3.0869,-3.0902,-3.0895,-3.1523,-3.1498,-3.0938,-3.2617,-3.305,-3.2556,-3.1916,-3.1619,-3.159,-3.1083,-3.1006,-3.111,-3.0908,-3.0821,-3.0837,-4.5052,-4.5264,-4.5418,-4.549,-4.5626,-4.5737,-4.58,-4.58,-4.58,-4.58,-4.5877,-4.5949,-4.5949,-4.6027,-4.6067,-4.6075,-4.6131,-4.6163,-4.6161,-4.6229,-4.6269,-4.6269,-4.6273,-4.6269,-4.6269,-4.6251,-4.6226,-4.6162,-4.6229,-4.6086,-4.5782,-4.5544,-4.4866,-4.386,-4.2568,-4.1648,-4.0969,-4.0022,-3.9595,-3.9602,-3.9602,-3.9602,-3.9602,-3.9602,-3.9602,-3.9602,-3.9602,-3.9602,-3.9602,-3.9602,-3.9413,-3.9087,-3.8409,-3.8255,-3.83,-3.8223,-3.8192,-3.8192,-3.802,-3.7756,-3.7414,-3.7208,-3.6939,-3.6597,-3.6199,-3.6088,-3.5958,-3.547,-3.5178,-3.4975,-3.4833,-3.5376,-3.5957,-3.6322,-3.8054,-3.9462,-3.9997,-4.0076,-3.9814,-3.911,-3.904,-3.8745,-3.7926,-3.6474,-3.5995,-3.6977,-3.7249,-3.6896,-3.5871,-3.3567,-3.2331,-3.2327,-3.2394,-3.2428,-3.2378,-3.1486,-3.153,-3.2392,-3.2392,-3.2391,-3.2434,-3.3872,-3.3855,-3.2798,-3.3739,-3.4093,-3.3928,-3.3168,-3.2872,-3.2801,-3.2065,-3.1762,-3.1747,-3.1366,-3.1233,-3.1233,-4.48,-4.503,-4.5283,-4.5454,-4.549,-4.5577,-4.5766,-4.58,-4.58,-4.58,-4.58,-4.58,-4.58,-4.593,-4.6007,-4.6007,-4.6046,-4.6104,-4.6091,-4.6156,-4.6191,-4.6191,-4.621,-4.6195,-4.6195,-4.6134,-4.6098,-4.6098,-4.6096,-4.565,-4.4798,-4.3932,-4.2932,-4.1841,-4.1609,-4.0912,-3.9911,-3.9679,-3.9602,-3.9602,-3.9602,-3.9602,-3.9602,-3.9602,-3.9602,-3.9602,-3.9602,-3.9602,-3.9602,-3.9602,-3.8995,-3.8195,-3.8195,-3.839,-3.8552,-3.8285,-3.8192,-3.8106,-3.7632,-3.7505,-3.7321,-3.6533,-3.6301,-3.6174,-3.5711,-3.5622,-3.547,-3.4927,-3.5224,-3.5424,-3.488,-3.5243,-3.5935,-3.695,-3.5397,-3.5516,-3.9554,-4.0093,-3.9226,-3.6831,-3.6545,-3.5498,-3.2762,-3.5975,-3.71,-3.4242,-3.5284,-3.576,-3.5156,-3.3216,-3.2106,-3.2099,-3.2313,-3.2383,-3.2402,-3.239,-3.24,-3.2425,-3.2425,-3.2414,-3.2499,-3.4627,-3.4808,-3.3509,-3.4274,-3.4361,-3.4002,-3.3986,-3.3986,-3.3935,-3.3407,-3.3198,-3.3039,-3.2059,-3.158,-3.1422,-4.4613,-4.4764,-4.4943,-4.4992,-4.5285,-4.5507,-4.5594,-4.5723,-4.58,-4.58,-4.58,-4.58,-4.58,-4.5838,-4.5858,-4.5858,-4.5969,-4.6028,-4.6026,-4.6085,-4.6119,-4.6138,-4.6135,-4.6122,-4.6123,-4.6106,-4.6077,-4.6038,-4.6087,-4.5622,-4.4707,-4.3699,-4.2694,-4.1684,-4.0806,-4.022,-3.9892,-3.9679,-3.9602,-3.9602,-3.9602,-3.9602,-3.9602,-3.9602,-3.9602,-3.9602,-3.9602,-3.9595,-3.9541,-3.9216,-3.8915,-3.8612,-3.8303,-3.8259,-3.83,-3.8241,-3.8192,-3.8192,-3.802,-3.7523,-3.7017,-3.6781,-3.6266,-3.5783,-3.5622,-3.5622,-3.556,-3.5379,-3.488,-3.4529,-3.4628,-3.3992,-3.352,-3.3842,-3.3354,-3.3365,-3.4668,-3.4825,-3.4563,-3.3779,-3.3367,-3.2821,-3.2182,-3.4112,-3.4627,-3.2792,-3.3566,-3.4296,-3.4791,-3.3417,-3.2571,-3.2563,-3.2277,-3.2144,-3.2182,-3.2226,-3.2323,-3.2379,-3.2772,-3.3165,-3.3527,-3.4188,-3.4274,-3.3882,-3.4497,-3.4659,-3.4529,-3.4529,-3.4529,-3.448,-3.3547,-3.3182,-3.3145,-3.2532,-3.2358,-3.2373,-4.4515,-4.4595,-4.4714,-4.4795,-4.5036,-4.5265,-4.5381,-4.549,-4.561,-4.5692,-4.5692,-4.5723,-4.58,-4.58,-4.58,-4.58,-4.5877,-4.593,-4.593,-4.6007,-4.6067,-4.6056,-4.6056,-4.6053,-4.6065,-4.6007,-4.5969,-4.593,-4.5583,-4.4924,-4.3936,-4.2939,-4.1949,-4.0996,-4.0248,-3.9848,-3.9777,-3.9631,-3.9602,-3.9602,-3.9602,-3.9602,-3.9602,-3.9602,-3.9608,-3.9589,-3.9595,-3.9365,-3.9017,-3.8739,-3.8654,-3.8603,-3.8376,-3.8245,-3.8192,-3.8225,-3.8225,-3.8225,-3.8225,-3.7685,-3.7094,-3.6939,-3.6392,-3.5844,-3.5622,-3.5622,-3.5532,-3.5316,-3.4927,-3.4626,-3.4661,-3.3662,-3.2855,-3.3002,-3.2641,-3.2404,-3.239,-3.242,-3.2577,-3.3099,-3.2664,-3.2385,-3.272,-3.3021,-3.2721,-3.1394,-3.208,-3.2715,-3.3089,-3.2693,-3.2382,-3.2312,-3.2038,-3.1955,-3.2083,-3.2358,-3.2578,-3.2734,-3.323,-3.3665,-3.4036,-3.4235,-3.4284,-3.4333,-3.488,-3.5115,-3.5068,-3.488,-3.4769,-3.4673,-3.3598,-3.3182,-3.3145,-3.285,-3.2664,-3.2609,-4.4468,-4.4487,-4.456,-4.4764,-4.4776,-4.4872,-4.5118,-4.5201,-4.5283,-4.5454,-4.5472,-4.556,-4.5737,-4.5752,-4.5752,-4.5752,-4.5766,-4.58,-4.58,-4.593,-4.5988,-4.5988,-4.5974,-4.5974,-4.5974,-4.5844,-4.5733,-4.5675,-4.4726,-4.371,-4.2584,-4.1762,-4.0862,-3.9892,-3.9892,-3.9777,-3.9602,-3.9602,-3.9602,-3.9602,-3.9596,-3.9614,-3.9614,-3.959,-3.96,-3.9591,-3.9514,-3.8934,-3.8206,-3.8208,-3.8217,-3.8227,-3.8423,-3.8354,-3.8225,-3.8274,-3.8241,-3.8225,-3.8241,-3.7862,-3.7358,-3.6978,-3.6557,-3.6131,-3.5711,-3.5622,-3.5424,-3.4927,-3.5178,-3.5333,-3.4883,-3.4039,-3.3526,-3.3853,-3.3055,-3.2398,-3.2398,-3.2398,-3.2909,-3.4203,-3.3779,-3.3487,-3.3836,-3.2658,-3.1397,-3.0199,-3.0911,-3.1176,-3.051,-3.1278,-3.167,-3.1482,-3.167,-3.1841,-3.194,-3.2641,-3.3093,-3.3339,-3.3818,-3.4036,-3.4086,-3.4625,-3.4816,-3.4833,-3.5379,-3.5622,-3.5577,-3.5068,-3.488,-3.4769,-3.37,-3.3287,-3.3251,-3.3027,-3.2664,-3.2302,-4.4199,-4.4383,-4.4515,-4.456,-4.4688,-4.4825,-4.4872,-4.5074,-4.5222,-4.5264,-4.5264,-4.5284,-4.5323,-4.5343,-4.5343,-4.5343,-4.5626,-4.58,-4.58,-4.5819,-4.5838,-4.5838,-4.5715,-4.5616,-4.5616,-4.5437,-4.5017,-4.4345,-4.4097,-4.3216,-4.1705,-4.1336,-4.0737,-3.9892,-3.9731,-3.9631,-3.9602,-3.9602,-3.9602,-3.9596,-3.9593,-3.9616,-3.9608,-3.9602,-3.9602,-3.9508,-3.8776,-3.8395,-3.8232,-3.8449,-3.8368,-3.8219,-3.8256,-3.8241,-3.8192,-3.8225,-3.8225,-3.814,-3.7792,-3.7358,-3.6939,-3.6516,-3.6114,-3.5756,-3.5622,-3.5622,-3.5424,-3.4927,-3.4577,-3.4415,-3.46,-3.3588,-3.2703,-3.2749,-3.2547,-3.2398,-3.2398,-3.2404,-3.2486,-3.2875,-3.2577,-3.2367,-3.2332,-3.1901,-3.0935,-2.9341,-3.0021,-3.0427,-3.0288,-3.06,-3.1029,-3.1482,-3.1539,-3.1597,-3.1597,-3.2437,-3.3407,-3.4415,-3.4577,-3.4593,-3.4529,-3.5131,-3.5148,-3.4787,-3.5333,-3.5622,-3.5577,-3.547,-3.5424,-3.5316,-3.4673,-3.4169,-3.3783,-3.3575,-3.3187,-3.2718,-4.3831,-4.414,-4.4306,-4.4306,-4.4513,-4.4655,-4.4655,-4.4783,-4.491,-4.5007,-4.503,-4.5074,-4.5201,-4.5201,-4.5201,-4.5201,-4.5399,-4.5543,-4.5543,-4.5543,-4.5543,-4.5543,-4.5418,-4.5362,-4.5362,-4.5263,-4.4739,-4.3757,-4.2995,-4.2115,-4.113,-4.0636,-4.0193,-3.9754,-3.965,-3.9602,-3.9602,-3.9602,-3.9602,-3.9596,-3.9597,-3.9341,-3.8951,-3.896,-3.8976,-3.8902,-3.8361,-3.8242,-3.8308,-3.8373,-3.8336,-3.8192,-3.8192,-3.8192,-3.8192,-3.8192,-3.8192,-3.814,-3.7739,-3.7266,-3.6741,-3.6114,-3.5783,-3.5622,-3.5622,-3.5622,-3.5424,-3.4927,-3.4577,-3.4333,-3.432,-3.3488,-3.2819,-3.2866,-3.2633,-3.2382,-3.2272,-3.2364,-3.2338,-3.2165,-3.1985,-3.1832,-3.1691,-3.1294,-3.0669,-2.9685,-3.0068,-3.0323,-3.0317,-3.0748,-3.1087,-3.1482,-3.1482,-3.1539,-3.167,-3.2625,-3.3649,-3.4625,-3.4944,-3.5071,-3.4994,-3.5367,-3.5383,-3.5088,-3.5412,-3.5594,-3.5577,-3.5333,-3.5085,-3.4833,-3.4268,-3.3767,-3.3266,-3.3208,-3.3027,-3.2773,-4.3295,-4.3688,-4.3899,-4.4011,-4.4277,-4.444,-4.444,-4.4468,-4.456,-4.472,-4.4745,-4.4843,-4.5071,-4.5094,-4.5094,-4.5094,-4.5094,-4.5137,-4.5201,-4.5201,-4.5201,-4.5201,-4.5159,-4.514,-4.514,-4.4982,-4.4338,-4.318,-4.1764,-4.091,-4.0591,-3.9915,-3.9602,-3.9602,-3.9552,-3.9552,-3.9552,-3.9502,-3.9502,-3.9495,-3.9573,-3.9082,-3.8285,-3.8232,-3.82,-3.8204,-3.8266,-3.8342,-3.8365,-3.8271,-3.8238,-3.8225,-3.8192,-3.8192,-3.8192,-3.814,-3.8106,-3.8054,-3.7721,-3.719,-3.6539,-3.5766,-3.5622,-3.5622,-3.5622,-3.5532,-3.5333,-3.4785,-3.4625,-3.4366,-3.3885,-3.3407,-3.3124,-3.3287,-3.2812,-3.2327,-3.2145,-3.2221,-3.2181,-3.1849,-3.1796,-3.1697,-3.1534,-3.097,-3.0584,-3.0524,-3.0524,-3.0524,-3.0524,-3.1029,-3.1409,-3.1482,-3.1482,-3.1655,-3.194,-3.2949,-3.3751,-3.4284,-3.4913,-3.5135,-3.5024,-3.5228,-3.5337,-3.5337,-3.5446,-3.552,-3.5532,-3.4975,-3.4529,-3.4036,-3.3495,-3.2933,-3.2547,-3.2672,-3.2633,-3.2648,-4.2182,-4.2562,-4.2963,-4.3647,-4.3968,-4.417,-4.417,-4.4335,-4.4496,-4.4551,-4.4551,-4.456,-4.4587,-4.4613,-4.4613,-4.4613,-4.4613,-4.4777,-4.518,-4.5201,-4.5201,-4.5201,-4.4985,-4.4849,-4.4849,-4.4046,-4.2817,-4.123,-4.0986,-4.0472,-3.9765,-3.9677,-3.9602,-3.9577,-3.9362,-3.9264,-3.9256,-3.9092,-3.9007,-3.9034,-3.946,-3.9283,-3.8731,-3.835,-3.8223,-3.824,-3.8501,-3.8515,-3.8382,-3.8291,-3.83,-3.8274,-3.8225,-3.8192,-3.814,-3.7863,-3.7685,-3.7523,-3.7114,-3.6416,-3.5783,-3.5605,-3.5622,-3.5622,-3.5622,-3.5224,-3.4769,-3.4235,-3.3767,-3.3287,-3.2749,-3.2602,-3.2547,-3.2578,-3.2453,-3.2342,-3.2176,-3.2048,-3.1879,-3.1826,-3.1655,-3.1524,-3.1509,-3.1409,-3.1087,-3.0524,-3.0524,-3.0524,-3.0524,-3.0584,-3.0896,-3.1467,-3.1482,-3.1796,-3.2492,-3.2641,-3.3093,-3.3751,-3.3853,-3.3802,-3.37,-3.4317,-3.4496,-3.4431,-3.5182,-3.5446,-3.5321,-3.4816,-3.4625,-3.4529,-3.3818,-3.3339,-3.3093,-3.3093,-3.2911,-3.2648,-4.1103,-4.1437,-4.1893,-4.2702,-4.3047,-4.3386,-4.3818,-4.4109,-4.4277,-4.4277,-4.4411,-4.4515,-4.4515,-4.4515,-4.4515,-4.4515,-4.4515,-4.4587,-4.4808,-4.4833,-4.4833,-4.4833,-4.4707,-4.444,-4.3988,-4.2517,-4.137,-4.0584,-4.002,-3.9574,-3.9221,-3.9221,-3.9221,-3.9221,-3.9092,-3.9036,-3.9036,-3.8921,-3.891,-3.8918,-3.9142,-3.9085,-3.887,-3.838,-3.8186,-3.8212,-3.8394,-3.8372,-3.8328,-3.8267,-3.8271,-3.8274,-3.8225,-3.8192,-3.8106,-3.7721,-3.7283,-3.6843,-3.6638,-3.6114,-3.5622,-3.5622,-3.5379,-3.5178,-3.5178,-3.4975,-3.4577,-3.3767,-3.3614,-3.3355,-3.2547,-3.2398,-3.2398,-3.2398,-3.2398,-3.2342,-3.215,-3.1921,-3.1736,-3.1655,-3.1539,-3.1482,-3.1482,-3.0837,-3.0584,-3.1029,-3.0389,-3.0269,-3.1029,-3.1029,-3.1161,-3.1482,-3.1482,-3.164,-3.2007,-3.2327,-3.2641,-3.2933,-3.3339,-3.3443,-3.3287,-3.37,-3.3969,-3.4235,-3.4658,-3.4977,-3.5245,-3.4738,-3.4317,-3.4036,-3.3407,-3.2949,-3.2547,-3.2547,-3.2453,-3.2318,-4.0022,-4.036,-4.0802,-4.1606,-4.1937,-4.241,-4.3207,-4.3564,-4.3794,-4.398,-4.4188,-4.4306,-4.4306,-4.4306,-4.4306,-4.4306,-4.4306,-4.4306,-4.4306,-4.4138,-4.4102,-4.4233,-4.4045,-4.3511,-4.2658,-4.1166,-4.0309,-4.0067,-3.9275,-3.891,-3.891,-3.891,-3.891,-3.891,-3.8833,-3.8803,-3.8803,-3.8762,-3.8762,-3.8732,-3.8761,-3.872,-3.8702,-3.8347,-3.8192,-3.8192,-3.8225,-3.8189,-3.8119,-3.8088,-3.8122,-3.8156,-3.8054,-3.8054,-3.7933,-3.7469,-3.6803,-3.6182,-3.6156,-3.5871,-3.5622,-3.5622,-3.5224,-3.4769,-3.4769,-3.4625,-3.4202,-3.3339,-3.3407,-3.3371,-3.2547,-3.2398,-3.2398,-3.2398,-3.2398,-3.2302,-3.2038,-3.1879,-3.1751,-3.1524,-3.1482,-3.1482,-3.1482,-3.045,-3.0208,-3.1409,-3.0389,-3.0269,-3.1409,-3.1482,-3.1482,-3.1482,-3.1482,-3.1482,-3.1482,-3.1966,-3.2176,-3.2176,-3.2734,-3.2933,-3.2826,-3.3039,-3.3407,-3.3767,-3.3969,-3.4333,-3.4771,-3.4235,-3.3767,-3.3287,-3.2734,-3.2287,-3.1996,-3.194,-3.1996,-3.2053,-3.9068,-3.9372,-3.973,-4.0509,-4.0844,-4.1302,-4.2093,-4.2456,-4.2894,-4.3619,-4.3744,-4.3744,-4.3744,-4.3744,-4.3744,-4.3744,-4.3744,-4.3744,-4.3744,-4.3074,-4.2883,-4.3361,-4.2618,-4.1686,-4.0635,-4.0486,-3.9946,-3.9013,-3.8929,-3.891,-3.891,-3.891,-3.891,-3.891,-3.8634,-3.8541,-3.851,-3.8322,-3.8241,-3.8259,-3.8225,-3.8244,-3.8244,-3.8225,-3.8192,-3.8225,-3.8274,-3.7982,-3.756,-3.7703,-3.7739,-3.7739,-3.7596,-3.7542,-3.7469,-3.7055,-3.6333,-3.5667,-3.5667,-3.5622,-3.5622,-3.5622,-3.5224,-3.4769,-3.4769,-3.4003,-3.3287,-3.3251,-3.2841,-3.2492,-3.2382,-3.2398,-3.2398,-3.2398,-3.2398,-3.2302,-3.2038,-3.1981,-3.1868,-3.1539,-3.1482,-3.1482,-3.1482,-3.0837,-3.0718,-3.1467,-3.0837,-3.0718,-3.1467,-3.1482,-3.1482,-3.1482,-3.1482,-3.1482,-3.1482,-3.1524,-3.1582,-3.1582,-3.164,-3.1625,-3.164,-3.2231,-3.2492,-3.2547,-3.3198,-3.3443,-3.3339,-3.2895,-3.2695,-3.2586,-3.191,-3.1754,-3.1996,-3.1841,-3.1898,-3.1996,-3.8294,-3.8507,-3.8898,-3.9677,-3.9908,-4.0231,-4.0995,-4.1345,-4.1603,-4.1915,-4.2101,-4.2229,-4.2229,-4.2229,-4.2229,-4.2229,-4.2229,-4.2229,-4.2229,-4.1933,-4.186,-4.2058,-4.1258,-4.0624,-4.0203,-3.9557,-3.9031,-3.8634,-3.8546,-3.8451,-3.8451,-3.8451,-3.8451,-3.8451,-3.8354,-3.8322,-3.8322,-3.8241,-3.8192,-3.8192,-3.8192,-3.8198,-3.8097,-3.7005,-3.6916,-3.7358,-3.7216,-3.7179,-3.7193,-3.7208,-3.7246,-3.7246,-3.717,-3.7132,-3.7055,-3.6638,-3.6071,-3.5622,-3.5622,-3.5622,-3.5515,-3.5178,-3.4673,-3.4219,-3.3903,-3.3495,-3.3093,-3.2788,-3.2788,-3.2788,-3.2437,-3.2398,-3.2398,-3.2398,-3.2398,-3.2302,-3.2038,-3.1996,-3.1883,-3.1539,-3.1482,-3.1482,-3.1482,-3.0896,-3.0584,-3.0837,-3.0644,-3.0584,-3.0896,-3.1278,-3.1482,-3.1482,-3.1482,-3.1482,-3.1482,-3.1482,-3.1482,-3.1482,-3.1482,-3.1482,-3.1539,-3.1754,-3.2079,-3.2382,-3.2641,-3.2949,-3.3145,-3.2695,-3.2492,-3.2382,-3.1754,-3.1524,-3.1582,-3.1597,-3.1597,-3.1582,-3.7631,-3.7899,-3.8287,-3.8916,-3.9007,-3.9278,-4.0039,-4.0304,-4.0513,-4.075,-4.0936,-4.1052,-4.1052,-4.1052,-4.1052,-4.1052,-4.1052,-4.1052,-4.1052,-4.0813,-4.078,-4.0917,-4.0159,-3.9686,-3.9596,-3.8878,-3.8478,-3.8401,-3.8274,-3.8192,-3.8192,-3.8192,-3.8192,-3.8192,-3.8192,-3.8106,-3.7967,-3.7967,-3.7898,-3.781,-3.8079,-3.8187,-3.8002,-3.6266,-3.599,-3.6505,-3.6576,-3.6681,-3.6764,-3.6741,-3.6741,-3.6764,-3.6741,-3.6719,-3.6638,-3.6199,-3.5827,-3.5622,-3.5622,-3.5622,-3.5515,-3.5131,-3.4529,-3.3919,-3.3563,-3.3198,-3.2841,-3.2492,-3.2695,-3.2841,-3.2437,-3.2398,-3.2398,-3.2398,-3.2398,-3.2342,-3.2094,-3.2053,-3.1883,-3.1597,-3.1539,-3.1409,-3.1219,-3.0584,-3.0208,-3.0208,-3.0208,-3.0389,-3.0777,-3.1219,-3.1482,-3.1482,-3.1482,-3.1482,-3.1482,-3.1482,-3.1482,-3.1482,-3.1482,-3.1482,-3.1482,-3.1482,-3.1754,-3.2135,-3.2135,-3.2327,-3.2625,-3.2272,-3.2135,-3.2064,-3.164,-3.1409,-3.1292,-3.1366,-3.1307,-3.1292,-3.7052,-3.754,-3.7969,-3.8158,-3.8192,-3.8464,-3.926,-3.9387,-3.9659,-4.0401,-4.0492,-4.0492,-4.0492,-4.0492,-4.0492,-4.0492,-4.0492,-4.0492,-4.0492,-3.9804,-3.9622,-4.0055,-3.9316,-3.8773,-3.8491,-3.851,-3.8401,-3.8192,-3.8192,-3.8192,-3.8192,-3.8192,-3.8192,-3.8192,-3.8192,-3.7933,-3.7505,-3.7505,-3.7266,-3.697,-3.7813,-3.8192,-3.7994,-3.6274,-3.5593,-3.5719,-3.6576,-3.6638,-3.6301,-3.6301,-3.6301,-3.6301,-3.6301,-3.6301,-3.6216,-3.5756,-3.5622,-3.5622,-3.5622,-3.5622,-3.5622,-3.5577,-3.4769,-3.3986,-3.3986,-3.3161,-3.2398,-3.2398,-3.2398,-3.2398,-3.2398,-3.2398,-3.2398,-3.2398,-3.2398,-3.2342,-3.2247,-3.2094,-3.194,-3.1799,-3.1597,-3.1219,-3.0584,-2.9889,-2.9504,-2.9504,-2.9504,-3.0072,-3.1409,-3.1482,-3.1482,-3.1482,-3.1482,-3.1482,-3.1482,-3.1482,-3.1482,-3.1482,-3.1482,-3.1482,-3.1482,-3.1482,-3.1482,-3.1482,-3.1482,-3.1482,-3.1482,-3.1482,-3.1482,-3.1482,-3.1351,-3.1278,-3.1292,-3.1132,-3.1087,-3.1087,-3.644,-3.6956,-3.7394,-3.7542,-3.781,-3.8128,-3.85,-3.8554,-3.8627,-3.8862,-3.888,-3.888,-3.888,-3.888,-3.888,-3.888,-3.888,-3.888,-3.888,-3.8663,-3.8466,-3.8289,-3.8347,-3.8354,-3.8289,-3.8289,-3.8104,-3.7721,-3.7721,-3.7559,-3.7301,-3.7301,-3.7301,-3.7301,-3.7301,-3.7226,-3.7094,-3.7094,-3.7017,-3.6917,-3.7167,-3.7276,-3.7154,-3.6004,-3.5582,-3.5625,-3.5899,-3.5898,-3.5783,-3.5783,-3.5783,-3.5783,-3.5783,-3.5783,-3.5783,-3.5667,-3.5622,-3.5622,-3.5622,-3.5622,-3.5532,-3.5115,-3.4529,-3.3869,-3.3495,-3.2895,-3.2398,-3.2398,-3.2398,-3.2398,-3.2398,-3.2398,-3.2398,-3.2398,-3.2398,-3.2342,-3.2247,-3.2094,-3.194,-3.1799,-3.1597,-3.1409,-3.1219,-3.1029,-3.0703,-3.0269,-3.0208,-3.0584,-3.1467,-3.1482,-3.1482,-3.1482,-3.1482,-3.1482,-3.1482,-3.1482,-3.1482,-3.1482,-3.1482,-3.1482,-3.1482,-3.1482,-3.1482,-3.1482,-3.1482,-3.1482,-3.1482,-3.1409,-3.1351,-3.1351,-3.119,-3.1073,-3.094,-3.1073,-3.1014,-3.0895,-3.6002,-3.6457,-3.686,-3.7041,-3.7432,-3.7774,-3.7898,-3.8088,-3.8192,-3.8192,-3.8192,-3.8192,-3.8192,-3.8192,-3.8192,-3.8192,-3.802,-3.7863,-3.7703,-3.7703,-3.7577,-3.7283,-3.7523,-3.7703,-3.7703,-3.7703,-3.7541,-3.7266,-3.7266,-3.7132,-3.69,-3.69,-3.69,-3.69,-3.69,-3.6821,-3.6678,-3.6678,-3.6557,-3.6392,-3.6392,-3.6387,-3.6328,-3.5788,-3.5596,-3.5622,-3.5622,-3.5622,-3.5622,-3.5622,-3.5622,-3.5622,-3.5622,-3.5622,-3.5622,-3.5622,-3.5622,-3.5622,-3.5622,-3.5622,-3.5515,-3.5224,-3.4721,-3.4219,-3.3903,-3.3251,-3.2695,-3.2695,-3.2547,-3.2398,-3.2398,-3.2398,-3.2398,-3.2398,-3.2398,-3.2398,-3.2287,-3.2135,-3.2053,-3.194,-3.1769,-3.1539,-3.1219,-3.1161,-3.097,-3.0524,-3.0524,-3.0777,-3.1467,-3.1482,-3.1482,-3.1482,-3.1482,-3.1482,-3.1482,-3.1482,-3.1482,-3.1482,-3.1482,-3.1482,-3.1482,-3.1482,-3.1482,-3.1482,-3.1482,-3.1482,-3.1482,-3.1351,-3.1278,-3.1292,-3.1058,-3.0895,-3.0821,-3.0895,-3.0821,-3.0762,-3.5582,-3.5977,-3.6374,-3.6586,-3.7058,-3.7432,-3.7432,-3.781,-3.8072,-3.8072,-3.8072,-3.8072,-3.8072,-3.8072,-3.8072,-3.8072,-3.7685,-3.7266,-3.6939,-3.69,-3.69,-3.686,-3.686,-3.6821,-3.6781,-3.686,-3.686,-3.686,-3.686,-3.6821,-3.6781,-3.6781,-3.6781,-3.6781,-3.6781,-3.6597,-3.6259,-3.6259,-3.6002,-3.5622,-3.5622,-3.5622,-3.5622,-3.5622,-3.5622,-3.5622,-3.5622,-3.5622,-3.5622,-3.5622,-3.5622,-3.5622,-3.5622,-3.5622,-3.5622,-3.5622,-3.5622,-3.5622,-3.5622,-3.5622,-3.5622,-3.5622,-3.5224,-3.488,-3.4816,-3.3953,-3.3182,-3.3182,-3.2788,-3.2398,-3.2398,-3.2398,-3.2398,-3.2398,-3.2398,-3.2398,-3.2398,-3.2287,-3.2191,-3.2191,-3.194,-3.1539,-3.097,-3.0703,-3.0584,-3.0584,-3.0584,-3.0837,-3.1467,-3.1482,-3.1482,-3.1482,-3.1482,-3.1482,-3.1482,-3.1482,-3.1482,-3.1482,-3.1482,-3.1482,-3.1482,-3.1482,-3.1482,-3.1482,-3.1482,-3.1482,-3.1467,-3.1351,-3.1292,-3.1219,-3.0881,-3.0762,-3.0762,-3.0642,-3.0568,-3.0568,-3.5055,-3.5362,-3.5705,-3.602,-3.6399,-3.6741,-3.6978,-3.7094,-3.7188,-3.7188,-3.7188,-3.7188,-3.7188,-3.7188,-3.7188,-3.7188,-3.7094,-3.6978,-3.69,-3.69,-3.6741,-3.6451,-3.6409,-3.6241,-3.5898,-3.6539,-3.6759,-3.6409,-3.6409,-3.6241,-3.5898,-3.5898,-3.5898,-3.5898,-3.5898,-3.581,-3.5739,-3.5739,-3.5711,-3.5622,-3.5622,-3.5622,-3.5622,-3.5622,-3.5622,-3.5622,-3.5622,-3.5622,-3.5622,-3.5622,-3.5622,-3.5622,-3.5622,-3.5622,-3.5622,-3.5622,-3.5622,-3.5622,-3.5622,-3.5622,-3.5622,-3.5622,-3.5515,-3.5333,-3.488,-3.3953,-3.3182,-3.3182,-3.2788,-3.2398,-3.2398,-3.2398,-3.2398,-3.2398,-3.2398,-3.2398,-3.2398,-3.2287,-3.2191,-3.2191,-3.194,-3.1727,-3.1597,-3.1409,-3.1278,-3.1278,-3.1278,-3.1351,-3.1482,-3.1482,-3.1482,-3.1482,-3.1482,-3.1482,-3.1482,-3.1482,-3.1482,-3.1482,-3.1482,-3.1482,-3.1482,-3.1482,-3.1482,-3.1482,-3.1482,-3.1409,-3.1351,-3.119,-3.1073,-3.0881,-3.0702,-3.0642,-3.0642,-3.0628,-3.0568,-3.0568,-3.4899,-3.5118,-3.5396,-3.5588,-3.6028,-3.6392,-3.6597,-3.6799,-3.69,-3.69,-3.69,-3.69,-3.69,-3.69,-3.6821,-3.6638,-3.6597,-3.6516,-3.6291,-3.6266,-3.6182,-3.5958,-3.5958,-3.5827,-3.5622,-3.6071,-3.6182,-3.5958,-3.5958,-3.5827,-3.5622,-3.5622,-3.5622,-3.5622,-3.5622,-3.5622,-3.5622,-3.5622,-3.5622,-3.5622,-3.5622,-3.5622,-3.5622,-3.5622,-3.5622,-3.5622,-3.5622,-3.5622,-3.5622,-3.5622,-3.5622,-3.5622,-3.5622,-3.5622,-3.5622,-3.5622,-3.5622,-3.5622,-3.5622,-3.5622,-3.5622,-3.5622,-3.5622,-3.5532,-3.5224,-3.4366,-3.3563,-3.3563,-3.2949,-3.2398,-3.2398,-3.2602,-3.2695,-3.2437,-3.2586,-3.2695,-3.2453,-3.2342,-3.2302,-3.2302,-3.2094,-3.194,-3.1784,-3.1727,-3.1597,-3.1539,-3.1482,-3.1482,-3.1482,-3.1482,-3.1482,-3.1482,-3.1482,-3.1482,-3.1482,-3.1482,-3.1482,-3.1482,-3.1482,-3.1482,-3.1482,-3.1482,-3.1482,-3.1482,-3.1482,-3.1409,-3.1292,-3.1132,-3.0955,-3.0762,-3.0642,-3.0568,-3.0568,-3.0568,-3.0568,-3.0582,-3.4899,-3.5088,-3.5245,-3.5291,-3.5756,-3.6131,-3.6174,-3.6474,-3.6661,-3.6661,-3.6661,-3.6661,-3.6661,-3.6661,-3.6557,-3.6216,-3.6174,-3.6002,-3.5622,-3.5622,-3.5622,-3.5622,-3.5622,-3.5622,-3.5622,-3.5622,-3.5622,-3.5622,-3.5622,-3.5622,-3.5622,-3.5622,-3.5622,-3.5622,-3.5622,-3.5622,-3.5622,-3.5622,-3.5622,-3.5622,-3.5622,-3.5622,-3.5622,-3.5622,-3.5622,-3.5622,-3.5622,-3.5622,-3.5622,-3.5622,-3.5622,-3.5622,-3.5622,-3.5622,-3.5622,-3.5622,-3.5622,-3.5622,-3.5622,-3.5622,-3.5577,-3.547,-3.547,-3.547,-3.547,-3.4785,-3.4136,-3.4036,-3.3319,-3.2656,-3.2547,-3.3002,-3.3198,-3.2749,-3.3002,-3.3039,-3.2586,-3.2437,-3.2398,-3.2398,-3.2302,-3.2094,-3.1841,-3.1799,-3.1727,-3.1539,-3.1482,-3.1482,-3.1482,-3.1482,-3.1482,-3.1482,-3.1482,-3.1409,-3.1351,-3.1409,-3.1409,-3.1351,-3.1467,-3.1482,-3.1482,-3.1482,-3.1482,-3.1482,-3.1482,-3.1409,-3.1234,-3.1132,-3.0955,-3.0762,-3.0642,-3.0568,-3.0568,-3.0568,-3.0568,-3.0582,-3.4899,-3.4947,-3.5041,-3.5245,-3.5383,-3.5503,-3.5667,-3.5739,-3.5783,-3.5783,-3.5783,-3.5783,-3.5783,-3.5783,-3.5739,-3.5694,-3.5694,-3.5667,-3.5622,-3.5622,-3.5622,-3.5622,-3.5622,-3.5622,-3.5622,-3.5622,-3.5622,-3.5622,-3.5622,-3.5622,-3.5622,-3.5622,-3.5622,-3.5622,-3.5622,-3.5622,-3.5622,-3.5622,-3.5622,-3.5622,-3.5622,-3.5622,-3.5622,-3.5622,-3.5622,-3.5622,-3.5622,-3.5622,-3.5622,-3.5622,-3.5622,-3.5622,-3.5622,-3.5622,-3.5622,-3.5622,-3.5622,-3.5622,-3.5622,-3.5622,-3.547,-3.5021,-3.4927,-3.4927,-3.4927,-3.4785,-3.4577,-3.4086,-3.3885,-3.3614,-3.3198,-3.3511,-3.3869,-3.3783,-3.3459,-3.3182,-3.3093,-3.2695,-3.2398,-3.2398,-3.2302,-3.2094,-3.1841,-3.1799,-3.1727,-3.1539,-3.1482,-3.1482,-3.1482,-3.1482,-3.1482,-3.1482,-3.1482,-3.1219,-3.0644,-3.1219,-3.1219,-3.0644,-3.1219,-3.1482,-3.1482,-3.1482,-3.1482,-3.1482,-3.1482,-3.1366,-3.1132,-3.1087,-3.0895,-3.0642,-3.0628,-3.0568,-3.0568,-3.0568,-3.0568,-3.0582,-3.4994,-3.4994,-3.5105,-3.5337,-3.54,-3.5475,-3.5577,-3.5622,-3.5622,-3.5622,-3.5622,-3.5622,-3.5622,-3.5622,-3.5622,-3.5622,-3.5622,-3.5622,-3.5622,-3.5622,-3.5622,-3.5622,-3.5622,-3.5622,-3.5622,-3.5622,-3.547,-3.5178,-3.547,-3.5622,-3.5622,-3.5622,-3.5622,-3.5622,-3.5622,-3.5622,-3.5622,-3.5622,-3.5622,-3.5622,-3.5622,-3.5622,-3.5622,-3.5622,-3.5622,-3.5622,-3.5622,-3.5424,-3.5178,-3.5178,-3.5178,-3.5115,-3.4769,-3.5131,-3.5532,-3.5224,-3.5379,-3.5622,-3.5622,-3.5622,-3.5532,-3.5316,-3.5021,-3.488,-3.5178,-3.5021,-3.4721,-3.448,-3.4235,-3.3935,-3.3665,-3.407,-3.4333,-3.4036,-3.3818,-3.3563,-3.3235,-3.2749,-3.2398,-3.2398,-3.2342,-3.2247,-3.2038,-3.2038,-3.194,-3.167,-3.167,-3.1597,-3.1539,-3.1482,-3.1351,-3.097,-3.097,-3.0644,-2.995,-3.0208,-3.0389,-3.0524,-3.0389,-3.0777,-3.1482,-3.1482,-3.1482,-3.1482,-3.1482,-3.1366,-3.1087,-3.1087,-3.0895,-3.0568,-3.0568,-3.0568,-3.0568,-3.0568,-3.0462,-3.028]}]]